[[{"header":{"parameterUnit":"m.s-1","parameterCategory":1,"la1":31.0,"la2":29.5877,"lo1":-88.7671,"lo2":-86.6584,"dy":0.0162,"dx":0.0185,"nx":115,"ny":88,"refTime":"2023-08-21T18:00:00:Z","depth":0,"parameterNumber":2,"parameterNumberName":"U-component_of_WINDS"},"data":[0.0,0.0,0.0,0.0,0.0,0.0,0.0,0.0,0.0,0.0,0.0,0.0,0.0,0.0,0.0,0.0,0.0,0.0,0.0,0.0,0.0,0.0,0.0,0.0,0.0,0.0,0.0,0.0,0.0,0.0,0.0,0.0,0.0,0.0,0.0,0.0,0.0,0.0,0.0,0.0,0.0,0.0,0.0,0.0,0.0,0.0,0.0,0.0,0.0,0.0,0.0,0.0,0.0,0.0,0.0,0.0,0.0,0.0,0.0,0.0,0.0,0.0,0.0,0.0,0.0,0.0,0.0,0.0,0.0,0.0,0.0,0.0,0.0,0.0,0.0,0.0,0.0,0.0,0.0,0.0,0.0,0.0,0.0,0.0,0.0,0.0,0.0,0.0,0.0,0.0,0.0,0.0,0.0,0.0,0.0,0.0,0.0,0.0,0.0,0.0,0.0,0.0,0.0,0.0,0.0,0.0,0.0,0.0,0.0,0.0,0.0,0.0,0.0,0.0,0.0,0.0,0.0,0.0,0.0,0.0,0.0,0.0,0.0,0.0,0.0,0.0,0.0,0.0,0.0,0.0,0.0,0.0,0.0,0.0,0.0,0.0,0.0,0.0,0.0,0.0,0.0,0.0,0.0,0.0,0.0,0.0,0.0,0.0,0.0,0.0,0.0,0.0,0.0,0.0,0.0,0.0,0.0,0.0,0.0,0.0,0.0,0.0,0.0,0.0,0.0,0.0,0.0,0.0,0.0,0.0,0.0,0.0,0.0,0.0,0.0,0.0,0.0,0.0,0.0,0.0,0.0,0.0,0.0,0.0,0.0,0.0,0.0,0.0,0.0,0.0,0.0,0.0,0.0,0.0,0.0,0.0,0.0,0.0,0.0,0.0,0.0,0.0,0.0,0.0,0.0,0.0,0.0,0.0,0.0,0.0,0.0,0.0,0.0,0.0,0.0,0.0,0.0,0.0,0.0,0.0,0.0,0.0,0.0,0.0,0.0,0.0,0.0,0.0,0.0,0.0,0.0,0.0,0.0,0.0,0.0,0.0,0.0,0.0,0.0,0.0,0.0,0.0,0.0,0.0,0.0,0.0,0.0,0.0,0.0,0.0,0.0,0.0,0.0,0.0,0.0,0.0,0.0,0.0,0.0,0.0,0.0,0.0,0.0,0.0,0.0,0.0,0.0,0.0,0.0,0.0,0.0,0.0,0.0,0.0,0.0,0.0,0.0,0.0,0.0,0.0,0.0,0.0,0.0,0.0,0.0,0.0,0.0,0.0,0.0,0.0,0.0,0.0,0.0,0.0,0.0,0.0,0.0,0.0,0.0,0.0,0.0,0.0,0.0,0.0,0.0,0.0,0.0,0.0,0.0,0.0,0.0,0.0,0.0,0.0,0.0,0.0,0.0,0.0,0.0,0.0,0.0,0.0,0.0,0.0,0.0,0.0,0.0,0.0,0.0,0.0,0.0,0.0,0.0,0.0,0.0,0.0,0.0,0.0,0.0,0.0,0.0,0.0,0.0,0.0,0.0,0.0,0.0,0.0,0.0,0.0,0.0,0.0,0.0,0.0,0.0,0.0,0.0,0.0,0.0,0.0,0.0,0.0,0.0,0.0,0.0,0.0,0.0,0.0,0.0,0.0,0.0,0.0,0.0,0.0,0.0,0.0,0.0,0.0,0.0,0.0,0.0,0.0,0.0,0.0,0.0,0.0,0.0,0.0,0.0,0.0,0.0,0.0,0.0,0.0,0.0,0.0,0.0,0.0,0.0,0.0,0.0,0.0,0.0,0.0,0.0,0.0,0.0,0.0,0.0,0.0,0.0,0.0,0.0,0.0,0.0,0.0,0.0,0.0,0.0,0.0,0.0,0.0,0.0,0.0,0.0,0.0,0.0,0.0,0.0,0.0,0.0,0.0,0.0,0.0,0.0,0.0,0.0,0.0,0.0,0.0,0.0,0.0,0.0,0.0,0.0,0.0,0.0,0.0,0.0,0.0,0.0,0.0,0.0,0.0,0.0,0.0,0.0,0.0,0.0,0.0,0.0,0.0,0.0,0.0,0.0,0.0,0.0,0.0,0.0,0.0,0.0,0.0,0.0,0.0,0.0,0.0,0.0,0.0,0.0,0.0,0.0,0.0,0.0,0.0,0.0,0.0,0.0,0.0,0.0,0.0,0.0,0.0,0.0,0.0,0.0,0.0,0.0,0.0,0.0,0.0,0.0,0.0,0.0,0.0,0.0,0.0,0.0,0.0,0.0,0.0,0.0,0.0,0.0,0.0,0.0,0.0,0.0,0.0,0.0,0.0,0.0,0.0,0.0,0.0,0.0,0.0,0.0,0.0,0.0,0.0,0.0,0.0,0.0,0.0,0.0,0.0,0.0,0.0,0.0,0.0,0.0,0.0,0.0,0.0,0.0,0.0,0.0,0.0,0.0,0.0,0.0,0.0,0.0,0.0,0.0,0.0,0.0,0.0,0.0,0.0,0.0,0.0,0.0,0.0,0.0,0.0,0.0,0.0,0.0,0.0,0.0,0.0,0.0,0.0,0.0,0.0,0.0,0.0,0.0,0.0,0.0,0.0,0.0,0.0,0.0,0.0,0.0,0.0,0.0,0.0,0.0,0.0,0.0,0.0,0.0,0.0,0.0,0.0,0.0,0.0,0.0,0.0,0.0,0.0,0.0,0.0,0.0,0.0,0.0,0.0,0.0,0.0,0.0,0.0,0.0,0.0,0.0,0.0,0.0,0.0,0.0,0.0,0.0,0.0,0.0,0.0,0.0,0.0,0.0,0.0,0.0,0.0,0.0,0.0,0.0,0.0,0.0,0.0,0.0,0.0,0.0,0.0,0.0,0.0,0.0,0.0,0.0,0.0,0.0,0.0,0.0,0.0,0.0,0.0,0.0,0.0,0.0,0.0,0.0,0.0,0.0,0.0,0.0,0.0,0.0,0.0,0.0,0.0,0.0,0.0,0.0,0.0,0.0,0.0,0.0,0.0,0.0,0.0,0.0,0.0,0.0,0.0,0.0,0.0,0.0,0.0,0.0,0.0,0.0,0.0,0.0,0.0,0.0,0.0,0.0,0.0,0.0,0.0,0.0,0.0,0.0,0.0,0.0,0.0,0.0,0.0,0.0,0.0,0.0,0.0,0.0,0.0,0.0,0.0,0.0,0.0,0.0,0.0,0.0,0.0,0.0,0.0,0.0,0.0,0.0,0.0,0.0,0.0,0.0,0.0,0.0,0.0,0.0,0.0,0.0,0.0,0.0,0.0,0.0,0.0,0.0,0.0,0.0,0.0,0.0,0.0,0.0,0.0,0.0,0.0,0.0,0.0,0.0,0.0,0.0,0.0,0.0,0.0,0.0,0.0,0.0,0.0,0.0,0.0,0.0,0.0,0.0,0.0,0.0,0.0,0.0,0.0,0.0,0.0,0.0,0.0,0.0,0.0,0.0,0.0,0.0,0.0,0.0,0.0,0.0,0.0,0.0,0.0,0.0,0.0,0.0,0.0,0.0,0.0,0.0,0.0,0.0,0.0,0.0,0.0,0.0,0.0,0.0,0.0,0.0,0.0,0.0,0.0,0.0,0.0,0.0,0.0,0.0,0.0,0.0,0.0,0.0,0.0,0.0,0.0,0.0,0.0,0.0,0.0,0.0,0.0,0.0,0.0,0.0,0.0,0.0,0.0,0.0,0.0,0.0,0.0,0.0,0.0,0.0,0.0,0.0,0.0,0.0,0.0,0.0,0.0,0.0,0.0,0.0,0.0,0.0,0.0,0.0,0.0,0.0,0.0,0.0,0.0,0.0,0.0,0.0,0.0,0.0,0.0,0.0,0.0,0.0,0.0,0.0,0.0,0.0,0.0,0.0,0.0,0.0,0.0,0.0,0.0,0.0,0.0,0.0,0.0,0.0,0.0,0.0,0.0,0.0,0.0,0.0,0.0,0.0,0.0,0.0,0.0,0.0,0.0,0.0,0.0,0.0,0.0,0.0,0.0,0.0,0.0,0.0,0.0,0.0,0.0,0.0,0.0,0.0,0.0,0.0,0.0,0.0,0.0,0.0,0.0,0.0,0.0,0.0,0.0,0.0,0.0,0.0,0.0,0.0,0.0,0.0,0.0,0.0,0.0,0.0,0.0,0.0,0.0,0.0,0.0,0.0,0.0,0.0,0.0,0.0,0.0,0.0,0.0,0.0,0.0,0.0,0.0,0.0,0.0,0.0,0.0,0.0,0.0,0.0,0.0,0.0,0.0,0.0,0.0,0.0,0.0,0.0,0.0,0.5253,0.0,0.0,0.0,0.0,0.0,0.0,0.0,0.0,0.0,0.0,0.0,0.0,0.0,0.0,0.0,0.0,0.0,0.0,0.0,0.0,0.0,0.0,0.0,0.0,0.0,0.0,0.0,0.0,0.0,0.0,0.0,0.0,0.0,0.0,0.0,0.0,0.0,0.0,0.0,0.0,0.0,0.0,0.0,0.0,0.0,0.0,0.0,0.0,0.0,0.0,0.0,0.0,0.0,0.0,0.0,0.0,0.0,0.0,0.0,0.0,0.0,0.0,0.0,0.0,0.0,0.0,0.0,0.0,0.0,0.0,0.0,0.0,0.0,0.0,0.0,0.0,0.0,0.0,0.0,0.0,0.0,0.0,0.0,0.0,0.0,0.0,0.0,0.0,0.0,0.0,0.0,0.0,0.0,0.0,0.0,0.0,0.0,0.0,0.0,0.0,0.0,0.0,0.0,0.0,0.0,0.0,0.0,0.0,0.0,0.0,0.516,0.4824,0.4791,0.4755,0.4655,0.0,0.0,0.0,0.0,0.0,0.0,0.0,0.0,0.0,0.0,0.0,0.0,0.0,0.0,0.0,0.0,0.0,0.0,0.0,0.0,0.0,0.0,0.0,0.0,0.0,0.0,0.0,0.0,0.0,0.0,0.0,0.0,0.0,0.0,0.0,0.0,0.0,0.0,0.0,0.0,0.0,0.0,0.0,0.0,0.0,0.0,0.0,0.0,0.0,0.0,0.0,0.0,0.0,0.0,0.0,0.0,0.0,0.0,0.0,0.0,0.0,0.0,0.0,0.0,0.0,0.0,0.0,0.0,0.0,0.0,0.0,0.0,0.0,0.0,0.0,0.0,0.0,0.0,0.0,0.0,0.0,0.0,0.0,0.0,0.0,0.0,0.0,0.0,0.0,0.0,0.0,0.0,0.0,0.0,0.0,0.0,0.0,0.0,0.0,0.0,0.0,0.0,0.0,0.0,0.0,0.0,0.0,0.0,0.0,0.0,0.0,0.0,0.3987,0.402,0.3987,0.0,0.0,0.0,0.0,0.0,0.0,0.0,0.0,0.0,0.0,0.0,0.0,0.0,0.0,0.0,0.0,0.0,0.0,0.0,0.0,0.0,0.0,0.0,0.0,0.0,0.0,0.0,0.0,0.0,0.0,0.0,0.0,0.0,0.0,0.0,0.0,0.0,0.0,0.0,0.0,0.0,0.0,0.0,0.0,0.0,0.0,0.0,0.0,0.0,0.0,0.0,0.0,0.0,0.0,0.0,0.0,0.0,0.0,0.0,0.0,0.0,0.0,0.0,0.0,0.0,0.0,0.0,0.0,0.0,0.0,0.0,0.0,0.0,0.0,0.0,0.0,0.0,0.0,0.0,0.0,0.0,0.0,0.0,0.0,0.0,0.0,0.0,0.0,0.0,0.0,0.0,0.0,0.0,0.0,0.0,0.0,0.0,0.0,0.0,0.0,0.0,0.0,0.0,0.0,0.0,0.0,0.0,0.0,0.0,0.0,0.3456,0.3123,0.3123,0.0,0.3123,0.0,0.0,0.0,0.0,0.0,0.0,0.0,0.0,0.0,0.0,0.0,0.0,0.0,0.0,0.0,0.0,0.0,0.0,0.0,0.0,0.0,0.0,0.0,0.0,0.0,0.0,0.0,0.0,0.0,0.0,0.0,0.0,0.0,0.0,0.0,0.0,0.0,0.0,0.0,0.0,0.0,0.0,0.0,0.0,0.0,0.0,0.0,0.0,0.0,0.0,0.0,0.0,0.0,0.0,0.0,0.0,0.0,0.0,0.0,0.0,0.0,0.0,0.0,0.0,0.0,0.0,0.0,0.0,0.0,0.0,0.0,0.0,0.0,0.0,0.0,0.0,0.0,0.0,0.0,0.0,0.0,0.0,0.0,0.0,0.0,0.0,0.0,0.0,0.0,0.0,0.0,0.0,0.0,0.0,0.0,0.0,0.0,0.0,0.0,0.0,0.0,0.0,0.0,0.0,0.0,0.0,0.0,0.0,0.0,0.0,0.2517,0.2185,0.2185,0.2185,0.0,0.0,0.0,0.0,0.0,0.0,0.0,0.0,0.0,0.0,0.0,0.0,0.0,0.0,0.0,0.0,0.0,0.0,0.0,0.0,0.0,0.0,0.0,0.0,0.0,0.0,0.0,0.0,0.0,0.0,0.0,0.0,0.0,0.0,0.0,0.0,0.0,0.0,0.0,0.0,0.0,0.0,0.0,0.0,0.0,0.0,0.0,0.0,0.0,0.0,0.0,0.0,0.0,0.0,0.0,0.0,0.0,0.0,0.0,0.0,0.0,0.0,0.0,0.0,0.0,0.0,0.0,0.0,0.0,0.0,0.0,0.0,0.0,0.0,0.0,0.0,0.0,0.0,0.0,0.0,0.0,0.0,0.0,0.0,0.0,0.0,0.0,0.0,0.0,0.0,0.0,0.0,0.0,0.0,0.0,0.0,0.0,0.0,0.0,0.0,0.0,0.0,0.0,0.0,0.0,0.0,0.0,0.0,0.0,0.0,0.1712,0.1443,0.1076,0.1143,0.1176,0.1176,0.0,0.0,0.0,0.0,0.0,0.0,0.0,0.0,0.0,0.0,0.0,0.0,0.0,0.0,0.0,0.0,0.0,0.0,0.0,0.0,0.0,0.0,0.0,0.0,0.0,0.0,0.0,0.0,0.0,0.0,0.0,0.0,0.0,0.0,0.0,0.0,0.0,0.0,0.0,0.0,0.0,0.0,0.0,0.0,0.0,0.0,0.0,0.0,0.0,0.0,0.0,0.0,0.0,0.0,0.0,0.0,0.0,0.0,0.0,0.0,0.0,0.0,0.0,0.0,0.0,0.0,0.0,0.0,0.0,0.0,0.0,0.0,0.0,0.0,0.0,0.0,0.0,0.0,0.0,0.0,0.0,0.0,0.0,0.0,0.0,0.0,0.0,0.0,0.0,0.0,0.0,0.0,0.0,0.0,0.0,0.0,0.0,0.0,0.0,0.0,0.0,0.0,0.0,0.0,0.0,0.0,0.0,0.0,0.1109,0.0638,0.0202,-0.0202,-0.0034,0.0067,0.0,0.0,0.0,0.0,0.0,0.0,0.0,0.0,0.0,0.0,0.0,0.0,0.0,0.0,0.0,0.0,0.0,0.0,0.0,0.0,0.0,0.0,0.0,0.0,0.0,0.0,0.0,0.0,0.0,0.0,0.0,0.0,0.0,0.0,0.0,0.0,0.0,0.0,0.0,0.0,0.0,0.0,0.0,0.0,0.0,0.0,0.0,0.0,0.0,0.0,0.0,0.0,0.0,0.0,0.0,0.0,0.0,0.0,0.0,0.0,0.0,0.0,0.0,0.0,0.0,0.0,0.0,0.0,0.0,0.0,0.0,0.0,0.0,0.0,0.0,0.0,0.0,0.0,0.0,0.0,0.0,0.0,0.0,0.0,0.0,0.0,0.0,0.0,0.0,0.0,0.0,0.0,0.0,0.0,0.0,0.0,0.0,0.0,0.0,0.0,0.0,0.0,0.0,0.0,0.0,0.0,0.0,0.0,0.0,-0.0336,-0.0839,-0.1208,-0.1442,-0.1308,-0.1208,0.0,0.0,0.0,0.0,0.0,0.0,0.0,0.0,0.0,0.0,0.0,0.0,0.0,0.0,0.0,0.0,0.0,0.0,0.0,0.0,0.0,0.0,0.0,0.0,0.0,0.0,0.0,0.0,0.0,0.0,0.0,0.0,0.0,0.0,0.0,0.0,0.0,0.0,0.0,0.0,0.0,0.0,0.0,0.0,0.0,0.0,0.0,0.0,0.0,0.0,0.0,0.0,0.0,0.0,0.0,0.0,0.0,0.0,0.0,0.0,0.0,0.0,0.0,0.0,0.0,0.0,0.0,0.0,0.0,0.0,0.0,0.0,0.0,0.0,0.0,0.0,0.0,0.0,0.0,0.0,0.0,0.0,0.0,0.0,0.0,0.0,0.0,0.0,0.0,0.0,0.0,0.0,0.0,0.0,0.0,0.0,0.0,0.0,0.0,0.0,0.0,0.0,0.0,0.0,0.0,0.0,0.0,0.0,0.0,-0.1947,0.0,-0.2614,-0.2817,-0.2614,-0.248,0.0,0.0,0.0,0.0,0.0,0.0,0.0,0.0,0.0,0.0,0.0,0.0,0.0,0.0,0.0,0.0,0.0,0.0,0.0,0.0,0.0,0.0,0.0,0.0,0.0,0.0,0.0,0.0,0.0,0.0,0.0,0.0,0.0,0.0,0.0,0.0,0.0,0.0,0.0,0.0,0.0,0.0,0.0,0.0,0.0,0.0,0.0,0.0,0.0,0.0,0.0,0.0,0.0,0.0,0.0,0.0,0.0,0.0,0.0,0.0,0.0,0.0,0.0,0.0,0.0,0.0,0.0,0.0,0.0,0.0,0.0,0.0,0.0,0.0,0.0,0.0,0.0,0.0,0.0,0.0,0.0,0.0,0.0,0.0,0.0,0.0,0.0,0.0,0.0,0.0,0.0,0.0,0.0,0.0,0.0,0.0,0.0,0.0,0.0,0.0,0.0,0.0,0.0,0.0,0.0,0.0,0.0,0.0,-0.2919,-0.3758,-0.383,-0.4033,-0.4325,-0.403,-0.3727,0.0,0.0,0.0,0.0,0.0,0.0,0.0,0.0,0.0,0.0,0.0,0.0,0.0,0.0,0.0,0.0,0.0,0.0,0.0,0.0,0.0,0.0,0.0,0.0,0.0,0.0,0.0,0.0,0.0,0.0,0.0,0.0,0.0,0.0,0.0,0.0,0.0,0.0,0.0,0.0,0.0,0.0,0.0,0.0,0.0,0.0,0.0,0.0,0.0,0.0,0.0,0.0,0.0,0.0,0.0,0.0,0.0,0.0,0.0,0.0,0.0,0.0,0.0,0.0,0.0,0.0,0.0,0.0,0.0,0.0,0.0,0.0,0.0,0.0,0.0,0.0,0.0,0.0,0.0,0.0,0.0,0.0,0.0,0.0,0.0,0.0,0.0,0.0,0.0,0.0,0.0,0.0,0.0,0.0,0.0,0.0,0.0,0.0,0.0,0.0,0.0,0.0,0.0,0.0,0.0,0.0,0.0,0.0,0.0,-0.5664,-0.58,-0.6124,-0.6606,-0.5994,-0.56,0.0,0.0,0.0,0.0,0.0,0.0,0.0,0.0,0.0,0.0,0.0,0.0,0.0,0.0,0.0,0.0,0.0,0.0,0.0,0.0,0.0,0.0,0.0,0.0,0.0,0.0,0.0,0.0,0.0,0.0,0.0,0.0,0.0,0.0,0.0,0.0,0.0,0.0,0.0,0.0,0.0,0.0,0.0,0.0,0.0,0.0,0.0,0.0,0.0,0.0,0.0,0.0,0.0,0.0,0.0,0.0,0.0,0.0,0.0,0.0,0.0,0.0,0.0,0.0,0.0,0.0,0.0,0.0,0.0,0.0,0.0,0.0,0.0,0.0,0.0,0.0,0.0,0.0,0.0,0.0,0.0,0.0,0.0,0.0,0.0,0.0,0.0,0.0,0.0,0.0,0.0,0.0,0.0,0.0,0.0,0.0,0.0,0.0,0.0,0.0,0.0,0.0,0.0,0.0,0.0,0.0,0.0,0.0,0.0,-0.8226,-0.7765,-0.7793,-0.8344,-0.7638,-0.7169,-0.6992,0.0,0.0,0.0,0.0,0.0,0.0,0.0,0.0,0.0,0.0,0.0,0.0,0.0,0.0,0.0,0.0,0.0,0.0,0.0,0.0,0.0,0.0,0.0,0.0,0.0,0.0,0.0,0.0,0.0,0.0,0.0,0.0,0.0,0.0,0.0,0.0,0.0,0.0,0.0,0.0,0.0,0.0,0.0,0.0,0.0,0.0,0.0,0.0,0.0,0.0,0.0,0.0,0.0,0.0,0.0,0.0,0.0,0.0,0.0,0.0,0.0,0.0,0.0,0.0,0.0,0.0,0.0,0.0,0.0,0.0,0.0,0.0,0.0,0.0,0.0,0.0,0.0,0.0,0.0,0.0,0.0,0.0,0.0,0.0,0.0,0.0,0.0,0.0,0.0,0.0,0.0,0.0,0.0,0.0,0.0,0.0,0.0,0.0,0.0,0.0,0.0,0.0,0.0,0.0,0.0,0.0,0.0,0.0,-1.1314,-0.9782,-0.9179,-0.9622,-0.899,-0.8543,0.0,0.0,0.0,0.0,0.0,0.0,0.0,0.0,0.0,0.0,0.0,0.0,0.0,0.0,0.0,0.0,0.0,0.0,0.0,0.0,0.0,0.0,0.0,0.0,0.0,0.0,0.0,0.0,0.0,0.0,0.0,0.0,0.0,0.0,0.0,0.0,0.0,0.0,0.0,0.0,0.0,0.0,0.0,0.0,0.0,0.0,0.0,0.0,0.0,0.0,0.0,0.0,0.0,0.0,0.0,0.0,0.0,0.0,0.0,0.0,0.0,0.0,0.0,0.0,0.0,0.0,0.0,0.0,0.0,0.0,0.0,0.0,0.0,0.0,0.0,0.0,0.0,0.0,0.0,0.0,0.0,0.0,0.0,0.0,0.0,0.0,0.0,0.0,0.0,0.0,0.0,0.0,0.0,0.0,0.0,0.0,0.0,0.0,0.0,0.0,0.0,0.0,0.0,0.0,0.0,0.0,0.0,0.0,0.0,-1.2631,-1.239,-1.197,-1.1424,-1.0837,-1.0254,0.0,0.0,0.0,0.0,0.0,0.0,0.0,0.0,0.0,0.0,0.0,0.0,0.0,0.0,0.0,0.0,0.0,0.0,0.0,0.0,0.0,0.0,0.0,0.0,0.0,0.0,0.0,0.0,0.0,0.0,0.0,0.0,0.0,0.0,0.0,0.0,0.0,0.0,0.0,0.0,0.0,0.0,0.0,0.0,0.0,0.0,0.0,0.0,0.0,0.0,0.0,0.0,0.0,0.0,0.0,0.0,0.0,0.0,0.0,0.0,0.0,0.0,0.0,0.0,0.0,0.0,0.0,0.0,0.0,0.0,0.0,0.0,0.0,0.0,0.0,0.0,0.0,0.0,0.0,0.0,0.0,0.0,0.0,0.0,0.0,0.0,0.0,0.0,0.0,0.0,0.0,0.0,0.0,0.0,0.0,0.0,0.0,0.0,0.0,0.0,0.0,0.0,0.0,0.0,0.0,0.0,0.0,0.0,-1.3334,-1.4025,-1.4154,-1.3935,-1.3308,-1.2362,-1.1636,0.0,0.0,0.0,0.0,0.0,0.0,0.0,0.0,0.0,0.0,0.0,0.0,0.0,0.0,0.0,0.0,0.0,0.0,0.0,0.0,0.0,0.0,0.0,0.0,0.0,0.0,0.0,0.0,0.0,0.0,0.0,0.0,0.0,0.0,0.0,0.0,0.0,0.0,0.0,0.0,0.0,0.0,0.0,0.0,0.0,0.0,0.0,0.0,0.0,0.0,0.0,0.0,0.0,0.0,0.0,0.0,0.0,0.0,0.0,0.0,0.0,0.0,0.0,0.0,0.0,0.0,0.0,0.0,0.0,0.0,0.0,0.0,0.0,0.0,0.0,0.0,0.0,0.0,0.0,0.0,0.0,0.0,0.0,0.0,0.0,0.0,0.0,0.0,0.0,0.0,0.0,0.0,0.0,0.0,0.0,0.0,0.0,0.0,0.0,0.0,0.0,0.0,0.0,0.0,0.0,0.0,0.0,0.0,-1.4573,-1.54,-1.54,-1.5274,-1.5003,-1.37,-1.2802,0.0,0.0,0.0,0.0,0.0,0.0,0.0,0.0,0.0,0.0,0.0,0.0,0.0,0.0,0.0,0.0,0.0,0.0,0.0,0.0,0.0,0.0,0.0,0.0,0.0,0.0,0.0,0.0,0.0,0.0,0.0,0.0,0.0,0.0,0.0,0.0,0.0,0.0,0.0,0.0,0.0,0.0,0.0,0.0,0.0,0.0,0.0,0.0,0.0,0.0,0.0,0.0,0.0,0.0,0.0,0.0,0.0,0.0,0.0,0.0,0.0,0.0,0.0,0.0,0.0,0.0,0.0,0.0,0.0,0.0,0.0,0.0,0.0,0.0,0.0,0.0,0.0,0.0,0.0,0.0,0.0,0.0,0.0,0.0,0.0,0.0,0.0,0.0,0.0,0.0,0.0,0.0,0.0,0.0,0.0,0.0,0.0,0.0,0.0,0.0,0.0,0.0,0.0,0.0,0.0,0.0,0.0,0.0,-1.5855,-1.6743,-1.6771,-1.6462,-1.5784,-1.4801,-1.3749,0.0,0.0,0.0,0.0,0.0,0.0,0.0,0.0,0.0,0.0,0.0,0.0,0.0,0.0,0.0,0.0,0.0,0.0,0.0,0.0,0.0,0.0,0.0,0.0,0.0,0.0,0.0,0.0,0.0,0.0,0.0,0.0,0.0,0.0,0.0,0.0,0.0,0.0,0.0,0.0,0.0,0.0,0.0,0.0,0.0,0.0,0.0,0.0,-1.4501,0.0,0.0,0.0,0.0,0.0,0.0,0.0,0.0,0.0,0.0,0.0,0.0,0.0,0.0,0.0,0.0,0.0,0.0,0.0,0.0,0.0,0.0,0.0,0.0,0.0,0.0,0.0,0.0,0.0,0.0,0.0,0.0,0.0,0.0,0.0,0.0,0.0,0.0,0.0,0.0,0.0,0.0,0.0,0.0,0.0,0.0,0.0,0.0,0.0,0.0,0.0,0.0,0.0,0.0,0.0,0.0,0.0,0.0,0.0,-1.6536,-1.7175,-1.7213,-1.6931,-1.6399,-1.5801,-1.4787,0.0,0.0,0.0,0.0,0.0,0.0,0.0,0.0,0.0,0.0,0.0,0.0,0.0,0.0,0.0,0.0,0.0,0.0,0.0,0.0,0.0,0.0,0.0,0.0,0.0,0.0,0.0,0.0,0.0,0.0,0.0,0.0,0.0,0.0,0.0,0.0,0.0,0.0,0.0,0.0,0.0,0.0,0.0,0.0,0.0,0.0,0.0,0.0,0.0,0.0,0.0,0.0,0.0,0.0,0.0,0.0,0.0,0.0,0.0,0.0,0.0,0.0,0.0,0.0,0.0,0.0,0.0,0.0,0.0,0.0,0.0,0.0,0.0,0.0,0.0,0.0,0.0,0.0,0.0,0.0,0.0,0.0,0.0,0.0,0.0,0.0,0.0,0.0,0.0,0.0,0.0,0.0,0.0,0.0,0.0,0.0,0.0,0.0,0.0,0.0,0.0,0.0,0.0,0.0,0.0,0.0,0.0,-1.6233,-1.6964,-1.7376,-1.7436,-1.7279,-1.6941,-1.6661,-1.5761,-1.4148,0.0,0.0,0.0,0.0,0.0,0.0,0.0,0.0,0.0,0.0,0.0,0.0,0.0,0.0,0.0,0.0,0.0,0.0,0.0,0.0,0.0,0.0,0.0,0.0,0.0,0.0,0.0,0.0,0.0,0.0,0.0,0.0,0.0,0.0,0.0,0.0,0.0,0.0,-1.2767,-1.4379,0.0,0.0,0.0,0.0,0.0,0.0,0.0,0.0,-2.0037,0.0,0.0,0.0,0.0,0.0,0.0,0.0,0.0,0.0,0.0,0.0,0.0,0.0,0.0,0.0,0.0,0.0,0.0,0.0,0.0,0.0,0.0,0.0,0.0,0.0,0.0,0.0,0.0,0.0,0.0,0.0,0.0,0.0,0.0,0.0,0.0,0.0,0.0,0.0,0.0,0.0,0.0,0.0,0.0,0.0,0.0,0.0,0.0,0.0,0.0,0.0,0.0,0.0,0.0,0.0,0.0,-1.6326,-1.7069,-1.7723,-1.8342,-1.8482,-1.8206,-1.7509,-1.7268,-1.659,-1.5349,0.0,0.0,0.0,0.0,0.0,0.0,0.0,0.0,0.0,0.0,0.0,0.0,0.0,0.0,0.0,0.0,0.0,0.0,0.0,0.0,0.0,0.0,0.0,0.0,0.0,0.0,0.0,0.0,0.0,0.0,0.0,0.0,0.0,0.0,0.0,0.0,0.0,0.0,0.0,-1.6715,-1.7982,0.0,0.0,0.0,0.0,0.0,0.0,0.0,0.0,-2.2271,0.0,0.0,0.0,0.0,0.0,0.0,0.0,0.0,0.0,0.0,0.0,0.0,0.0,0.0,0.0,0.0,0.0,0.0,0.0,0.0,0.0,0.0,0.0,0.0,0.0,0.0,0.0,0.0,0.0,0.0,0.0,0.0,0.0,0.0,0.0,0.0,0.0,0.0,0.0,0.0,0.0,0.0,0.0,0.0,0.0,0.0,0.0,0.0,0.0,0.0,0.0,0.0,0.0,0.0,0.0,-1.676,-1.7407,-1.7935,-1.8428,-1.8476,-1.8307,-1.786,-1.7641,-1.7128,0.0,0.0,0.0,0.0,0.0,0.0,0.0,0.0,0.0,0.0,0.0,0.0,0.0,0.0,0.0,0.0,0.0,0.0,0.0,0.0,0.0,0.0,0.0,0.0,0.0,0.0,0.0,0.0,0.0,0.0,0.0,0.0,0.0,0.0,0.0,0.0,0.0,0.0,0.0,0.0,-1.8704,-2.0057,-2.1466,0.0,0.0,0.0,0.0,0.0,0.0,-2.5407,-2.5044,0.0,0.0,0.0,0.0,0.0,0.0,0.0,0.0,0.0,0.0,0.0,0.0,0.0,0.0,0.0,0.0,0.0,0.0,0.0,0.0,0.0,0.0,0.0,0.0,0.0,0.0,0.0,0.0,0.0,0.0,0.0,0.0,0.0,0.0,0.0,0.0,0.0,0.0,0.0,0.0,0.0,0.0,0.0,0.0,0.0,0.0,0.0,0.0,0.0,0.0,0.0,0.0,0.0,0.0,0.0,-1.7201,-1.7733,-1.8147,-1.8442,-1.845,-1.8397,-1.8322,-1.8094,-1.7733,0.0,0.0,0.0,0.0,0.0,0.0,0.0,0.0,0.0,0.0,0.0,0.0,0.0,0.0,0.0,0.0,0.0,0.0,0.0,0.0,0.0,0.0,0.0,0.0,0.0,0.0,0.0,0.0,0.0,0.0,0.0,0.0,0.0,0.0,0.0,0.0,0.0,0.0,0.0,0.0,0.0,-2.2222,-2.3973,-2.4922,0.0,0.0,0.0,0.0,-2.7603,-2.7832,0.0,0.0,0.0,0.0,0.0,0.0,0.0,0.0,0.0,0.0,0.0,0.0,0.0,0.0,0.0,0.0,0.0,0.0,0.0,0.0,0.0,0.0,0.0,0.0,0.0,0.0,0.0,0.0,0.0,0.0,0.0,0.0,0.0,0.0,0.0,0.0,0.0,0.0,0.0,0.0,0.0,0.0,0.0,0.0,0.0,0.0,0.0,0.0,0.0,0.0,0.0,0.0,0.0,0.0,0.0,0.0,-1.7888,-1.8475,-1.8841,-1.8993,-1.9157,-1.9199,-1.9062,-1.8874,-1.8568,0.0,0.0,0.0,0.0,0.0,0.0,0.0,0.0,0.0,0.0,0.0,0.0,0.0,0.0,0.0,0.0,0.0,0.0,0.0,0.0,0.0,0.0,0.0,0.0,0.0,0.0,0.0,0.0,0.0,0.0,0.0,0.0,0.0,0.0,0.0,0.0,0.0,0.0,0.0,0.0,0.0,-2.4641,-2.6348,-2.7492,-2.8375,0.0,0.0,-3.0277,-3.04,-3.0326,0.0,0.0,0.0,0.0,0.0,0.0,0.0,0.0,0.0,0.0,0.0,0.0,0.0,0.0,0.0,0.0,0.0,0.0,0.0,0.0,0.0,0.0,0.0,0.0,0.0,0.0,0.0,0.0,0.0,0.0,0.0,0.0,0.0,0.0,0.0,0.0,0.0,0.0,0.0,0.0,0.0,0.0,0.0,0.0,0.0,0.0,0.0,0.0,0.0,0.0,0.0,0.0,0.0,0.0,0.0,-1.7854,-1.8442,-1.8978,-1.9384,-1.9657,-1.9762,-1.9782,-1.9755,-1.9561,-1.9306,0.0,0.0,0.0,0.0,0.0,0.0,0.0,0.0,0.0,0.0,0.0,0.0,0.0,0.0,0.0,0.0,0.0,0.0,0.0,0.0,0.0,0.0,0.0,0.0,0.0,0.0,0.0,0.0,0.0,0.0,0.0,0.0,0.0,0.0,0.0,0.0,0.0,0.0,0.0,0.0,0.0,0.0,-2.8213,-2.934,0.0,0.0,0.0,-3.2132,-3.2349,0.0,0.0,0.0,0.0,0.0,0.0,0.0,0.0,0.0,0.0,0.0,0.0,0.0,0.0,0.0,0.0,0.0,0.0,0.0,0.0,0.0,0.0,0.0,0.0,0.0,0.0,0.0,0.0,0.0,0.0,0.0,0.0,0.0,0.0,0.0,0.0,0.0,0.0,0.0,0.0,0.0,0.0,0.0,0.0,0.0,0.0,0.0,0.0,0.0,0.0,0.0,0.0,0.0,0.0,0.0,0.0,0.0,-1.903,-1.9479,-1.9907,-2.0272,-2.0308,-2.0361,-2.0396,-2.0227,0.0,0.0,0.0,0.0,0.0,0.0,0.0,0.0,0.0,0.0,0.0,0.0,0.0,0.0,0.0,0.0,0.0,0.0,0.0,0.0,0.0,0.0,0.0,0.0,0.0,0.0,0.0,-1.222,0.0,0.0,0.0,0.0,0.0,0.0,0.0,0.0,0.0,0.0,0.0,0.0,0.0,0.0,-2.7915,-3.0061,-3.1137,-3.1997,0.0,0.0,-3.3734,-3.3871,-3.3822,-3.3363,0.0,0.0,0.0,0.0,0.0,0.0,0.0,0.0,0.0,0.0,0.0,0.0,0.0,0.0,0.0,0.0,0.0,0.0,0.0,0.0,0.0,0.0,0.0,0.0,0.0,0.0,0.0,0.0,0.0,0.0,0.0,0.0,0.0,0.0,0.0,0.0,0.0,0.0,0.0,0.0,0.0,0.0,0.0,0.0,0.0,0.0,0.0,0.0,0.0,0.0,0.0,0.0,0.0,0.0,0.0,-1.9621,-2.0085,-2.0478,-2.0729,-2.0861,-2.0943,-2.0943,-2.0828,-2.058,0.0,0.0,0.0,0.0,0.0,0.0,0.0,0.0,0.0,0.0,0.0,0.0,0.0,0.0,0.0,0.0,0.0,0.0,0.0,0.0,0.0,0.0,0.0,0.0,0.0,0.0,0.0,0.0,0.0,0.0,0.0,0.0,0.0,0.0,0.0,0.0,0.0,0.0,0.0,0.0,0.0,-2.9927,-3.2171,-3.3136,-3.3774,0.0,0.0,-3.4978,-3.5011,-3.5157,-3.4984,-3.4144,0.0,0.0,0.0,0.0,0.0,0.0,0.0,0.0,0.0,0.0,0.0,0.0,0.0,0.0,0.0,0.0,0.0,0.0,0.0,0.0,0.0,0.0,0.0,0.0,0.0,0.0,0.0,0.0,0.0,0.0,0.0,0.0,0.0,0.0,0.0,0.0,0.0,0.0,0.0,0.0,0.0,0.0,0.0,0.0,0.0,0.0,0.0,0.0,0.0,0.0,0.0,0.0,0.0,-1.9442,-2.0015,-2.0514,-2.091,-2.1166,-2.1386,-2.1478,-2.1433,-2.1417,-2.1245,0.0,0.0,0.0,0.0,0.0,0.0,0.0,0.0,0.0,0.0,0.0,0.0,0.0,0.0,0.0,0.0,0.0,0.0,0.0,0.0,0.0,0.0,0.0,0.0,0.0,0.0,0.0,0.0,-1.4765,-1.5155,-1.595,0.0,0.0,0.0,0.0,0.0,0.0,0.0,0.0,0.0,0.0,-3.1452,-3.315,-3.409,0.0,0.0,-3.5753,-3.6196,-3.6477,-3.6477,-3.623,-3.5671,-3.4835,0.0,0.0,0.0,0.0,0.0,0.0,0.0,0.0,0.0,0.0,0.0,0.0,0.0,0.0,0.0,0.0,0.0,0.0,0.0,0.0,0.0,0.0,0.0,0.0,0.0,0.0,0.0,0.0,0.0,0.0,0.0,0.0,0.0,0.0,0.0,0.0,0.0,0.0,0.0,0.0,0.0,0.0,0.0,0.0,0.0,0.0,0.0,0.0,0.0,0.0,0.0,0.0,-2.0178,-2.0481,-2.0975,-2.1338,-2.1598,-2.184,-2.1959,-2.193,-2.1928,-2.1779,0.0,0.0,0.0,0.0,0.0,0.0,0.0,0.0,0.0,0.0,0.0,0.0,0.0,0.0,0.0,0.0,0.0,0.0,0.0,0.0,0.0,0.0,0.0,0.0,0.0,0.0,0.0,0.0,-1.5868,-1.6351,-1.7151,0.0,0.0,0.0,0.0,0.0,0.0,0.0,0.0,0.0,0.0,-3.2396,-3.3989,-3.4894,-3.5642,-3.6259,-3.6799,-3.7268,-3.7648,-3.7648,-3.7488,-3.7141,0.0,0.0,0.0,0.0,0.0,0.0,0.0,0.0,0.0,0.0,0.0,0.0,0.0,0.0,0.0,0.0,0.0,0.0,0.0,0.0,0.0,0.0,0.0,0.0,0.0,0.0,0.0,0.0,0.0,0.0,-2.0012,0.0,0.0,0.0,0.0,0.0,0.0,0.0,0.0,0.0,0.0,0.0,0.0,0.0,0.0,0.0,0.0,0.0,0.0,0.0,0.0,0.0,0.0,-2.1169,-2.1183,-2.151,-2.1811,-2.2082,-2.2287,-2.2402,-2.2474,-2.2295,-2.2139,-2.1998,0.0,0.0,0.0,0.0,0.0,0.0,0.0,0.0,0.0,0.0,0.0,0.0,0.0,0.0,0.0,0.0,0.0,0.0,0.0,0.0,0.0,0.0,0.0,0.0,0.0,0.0,-1.6581,-1.7403,-1.7944,0.0,0.0,0.0,0.0,0.0,0.0,0.0,0.0,0.0,0.0,-3.1324,-3.2637,-3.4845,-3.5752,-3.6445,-3.7238,-3.7754,-3.8185,-3.8435,-3.8634,-3.8733,0.0,0.0,0.0,0.0,0.0,0.0,0.0,0.0,0.0,0.0,0.0,0.0,0.0,0.0,0.0,0.0,0.0,0.0,0.0,0.0,0.0,0.0,0.0,0.0,0.0,0.0,0.0,-2.5616,-2.4927,0.0,0.0,0.0,0.0,0.0,0.0,0.0,0.0,0.0,0.0,0.0,-2.283,-2.2978,0.0,0.0,0.0,0.0,0.0,0.0,0.0,0.0,0.0,0.0,0.0,0.0,-2.1833,-2.2101,-2.2087,-2.2169,-2.2422,-2.2615,-2.2751,-2.2764,-2.2708,-2.2527,-2.2271,0.0,0.0,0.0,0.0,0.0,0.0,0.0,0.0,0.0,0.0,0.0,0.0,0.0,0.0,0.0,0.0,0.0,0.0,0.0,0.0,0.0,0.0,0.0,0.0,0.0,-1.7567,0.0,0.0,0.0,0.0,0.0,0.0,0.0,0.0,0.0,0.0,0.0,-2.9959,-3.1259,-3.2966,-3.4484,-3.5593,-3.6274,-3.6906,0.0,0.0,0.0,0.0,0.0,0.0,0.0,0.0,0.0,0.0,0.0,0.0,0.0,0.0,-3.0651,-2.9545,-2.944,-2.9358,-2.8957,0.0,0.0,0.0,0.0,0.0,0.0,0.0,0.0,0.0,0.0,0.0,0.0,0.0,0.0,0.0,0.0,-2.6616,0.0,0.0,0.0,0.0,0.0,0.0,0.0,0.0,-2.4517,-2.4521,-2.4444,-2.457,-2.4723,0.0,-2.4231,-2.3521,0.0,0.0,0.0,0.0,0.0,0.0,0.0,0.0,-2.2605,-2.2794,-2.2526,-2.2487,-2.2738,-2.2919,-2.3003,-2.3045,-2.2995,-2.2842,-2.2548,-2.226,-2.1897,0.0,0.0,0.0,0.0,0.0,0.0,0.0,0.0,0.0,0.0,0.0,0.0,0.0,0.0,0.0,0.0,0.0,0.0,0.0,0.0,0.0,0.0,0.0,-1.8936,0.0,0.0,0.0,0.0,0.0,0.0,0.0,0.0,0.0,-2.6518,-2.8988,-3.096,-3.1529,-3.3293,-3.4709,-3.5306,0.0,0.0,0.0,0.0,0.0,0.0,0.0,-3.8966,-3.9,-3.8753,-3.8345,-3.7681,-3.6536,-3.5422,-3.4505,0.0,0.0,-3.1314,-3.092,-3.0679,-3.04,-3.048,-3.0634,-3.0634,-3.0886,-3.1209,0.0,0.0,0.0,0.0,0.0,0.0,0.0,0.0,-3.0244,-3.0075,0.0,-2.8429,0.0,0.0,0.0,0.0,0.0,0.0,0.0,0.0,-2.6101,-2.5854,-2.5272,-2.5414,-2.5286,-2.4883,-2.5028,-2.4964,-2.4635,-2.3421,0.0,0.0,0.0,0.0,0.0,0.0,-2.3489,-2.3259,-2.2887,-2.2803,-2.3008,-2.3144,-2.3241,-2.3301,-2.3193,-2.302,-2.2829,-2.2672,-2.2426,-2.2025,-2.163,0.0,0.0,0.0,0.0,0.0,0.0,0.0,0.0,0.0,0.0,0.0,0.0,0.0,0.0,0.0,0.0,0.0,0.0,0.0,0.0,-1.9652,0.0,0.0,0.0,0.0,0.0,0.0,0.0,0.0,0.0,0.0,-2.735,-2.9082,-3.057,-3.1245,0.0,0.0,0.0,0.0,-3.5637,-3.6486,-3.7009,-3.7436,-3.7826,-3.7915,-3.7891,-3.7771,0.0,0.0,-3.6387,-3.598,-3.5566,-3.5118,-3.4873,-3.4442,-3.3257,-3.2431,-3.2149,-3.265,-3.2802,-3.3043,-3.3043,-3.2943,-3.3231,-3.3966,0.0,0.0,0.0,0.0,-3.2336,-3.2174,-3.2041,-3.1435,-3.1039,-3.0742,-2.9788,0.0,0.0,0.0,0.0,0.0,0.0,-2.6703,-2.654,-2.6206,-2.595,-2.5762,-2.5918,-2.5968,-2.5925,-2.5565,-2.5398,-2.5385,-2.4725,-2.4297,-2.4156,0.0,0.0,0.0,0.0,-2.3964,-2.4068,-2.3265,-2.297,-2.3217,-2.3336,-2.3459,-2.3517,-2.3436,-2.3313,-2.3168,-2.2944,-2.2694,-2.2419,-2.2041,0.0,0.0,0.0,0.0,0.0,0.0,0.0,0.0,0.0,0.0,0.0,0.0,0.0,0.0,0.0,0.0,0.0,0.0,0.0,-2.1185,-2.1444,-2.1941,0.0,0.0,0.0,0.0,0.0,0.0,0.0,0.0,0.0,-2.9175,-3.0265,-3.12,0.0,0.0,-3.3955,-3.4398,-3.4979,-3.5625,-3.6348,0.0,0.0,0.0,-3.7786,-3.7882,-3.7858,-3.7526,-3.7219,-3.7009,-3.6555,-3.6142,-3.5867,-3.5206,-3.46,-3.4297,-3.3707,-3.3176,-3.2944,-3.288,-3.2865,-3.2908,-3.3076,-3.3298,-3.4785,-3.4062,-3.4126,-3.3928,-3.3529,-3.3188,-3.2984,-3.2842,-3.2076,-3.1782,-3.1783,-3.0729,-3.0119,-2.9895,-2.878,0.0,0.0,0.0,-2.7203,-2.7107,-2.6769,-2.647,-2.6205,-2.6285,-2.6088,-2.5658,-2.5309,-2.506,-2.4872,-2.47,-2.4505,-2.4296,0.0,0.0,-2.5389,-2.4647,-2.4277,-2.422,-2.3458,-2.3168,-2.3372,-2.351,-2.3607,-2.3641,-2.3607,-2.351,-2.3383,-2.3187,-2.3008,-2.2756,-2.2419,-2.2053,0.0,0.0,0.0,0.0,0.0,0.0,0.0,0.0,0.0,0.0,0.0,-2.3029,-2.3591,0.0,0.0,0.0,-2.2272,-2.2114,-2.28,-2.3174,0.0,0.0,0.0,0.0,0.0,0.0,0.0,-2.7624,-2.8068,-2.8587,-2.9417,-3.0029,-3.0747,-3.1544,-3.2585,-3.3278,-3.3385,0.0,-3.409,-3.4664,-3.5087,-3.5483,-3.5783,-3.5986,-3.6061,-3.6044,-3.6075,-3.6028,-3.5924,-3.5786,-3.5689,-3.5503,-3.5024,-3.4613,-3.463,-3.4302,-3.39,-3.3314,-3.3219,-3.3245,-3.323,-3.3439,-3.3624,-3.4566,-3.4475,-3.436,-3.3914,-3.3305,-3.3258,-3.3203,-3.3136,-3.2296,-3.2268,-3.2711,-3.1206,-3.0482,-3.0322,-2.8808,0.0,-2.7977,-2.7809,-2.766,-2.7531,-2.7466,-2.7025,-2.6332,-2.6315,-2.5724,-2.4578,-2.4578,-2.4288,-2.3719,-2.3902,-2.3951,-2.4017,-2.5153,-2.5519,-2.5063,-2.4794,-2.4393,-2.3925,-2.353,-2.3383,-2.351,-2.3656,-2.3721,-2.3732,-2.3721,-2.3638,-2.3522,-2.3459,-2.3301,-2.3057,-2.2782,-2.2487,-2.2167,0.0,0.0,0.0,0.0,0.0,0.0,0.0,0.0,0.0,0.0,0.0,0.0,0.0,0.0,0.0,-2.3635,0.0,-2.4028,-2.4722,0.0,0.0,0.0,-2.6413,-2.591,-2.6609,-2.7116,-2.7145,0.0,0.0,-2.8637,0.0,-2.9679,-3.118,-3.17,-3.1864,-3.1588,-3.1631,-3.1718,-3.2315,-3.2514,-3.284,-3.3465,-3.3501,-3.3556,-3.3518,-3.3711,-3.4057,-3.3902,-3.4192,-3.4469,-3.4382,-3.4341,-3.4325,-3.4341,-3.4243,-3.417,-3.3632,-3.3712,-3.3836,-3.3691,-3.3859,-3.386,-3.5092,-3.4451,-3.3758,-3.3759,-3.4139,-3.3619,-3.3357,-3.3235,-3.1914,-3.141,-3.1479,-3.0333,-2.9778,-2.9635,-2.9186,-2.8925,-2.8785,-2.8153,-2.7491,-2.6814,-2.6248,-2.5614,-2.4913,-2.4896,-2.4746,-2.4461,-2.4508,-2.4438,-2.4302,-2.4395,-2.4489,-2.4616,-2.4997,-2.4987,-2.4647,-2.4339,-2.417,-2.4126,-2.366,-2.3544,-2.3728,-2.3803,-2.3865,-2.3925,-2.3824,-2.3771,-2.3739,-2.3623,-2.3482,-2.3313,-2.3089,-2.2859,-2.2624,-2.2368,0.0,0.0,0.0,0.0,0.0,0.0,0.0,0.0,0.0,-2.5639,-2.666,0.0,-2.5747,0.0,-2.5568,-2.5365,-2.5437,-2.5604,0.0,0.0,-2.6497,-2.6961,-2.7054,-2.7569,-2.8068,-2.8407,-2.8508,-2.8693,-2.9112,-2.9222,-2.9518,-3.0271,-3.0529,-3.0733,-3.0954,-3.1268,-3.1622,-3.2024,-3.2282,-3.2652,-3.2834,-3.3064,-3.3062,-3.3129,-3.3155,-3.3162,-3.3117,-3.3122,-3.3164,-3.3142,-3.3034,-3.3011,-3.3152,-3.3073,-3.3021,-3.2968,-3.3245,-3.3378,-3.2943,-3.2984,-3.3079,-3.368,-3.3223,-3.2733,-3.2823,-3.3191,-3.2549,-3.2295,-3.2206,-3.1386,-3.0998,-3.0898,-2.9947,-2.9423,-2.9265,-2.8505,-2.8097,-2.7868,-2.7096,-2.6452,-2.5914,-2.5502,-2.509,-2.4701,-2.4701,-2.4545,-2.4237,-2.4261,-2.3933,-2.3316,-2.3677,-2.375,-2.3477,-2.3971,-2.411,-2.3988,-2.409,-2.4093,-2.3914,-2.3412,-2.3213,-2.3349,-2.3379,-2.3437,-2.3475,-2.3745,-2.3886,-2.3837,-2.3779,-2.366,-2.3544,-2.3407,-2.3199,-2.294,-2.276,-2.2504,0.0,0.0,0.0,0.0,0.0,0.0,0.0,0.0,0.0,0.0,0.0,-2.6891,0.0,-2.659,-2.6418,-2.6258,-2.6569,-2.6707,-2.6517,-2.7088,-2.7456,-2.737,-2.7607,-2.7864,-2.8111,-2.7832,-2.7736,-2.7988,-2.7798,-2.7799,-2.8152,-2.8326,-2.8762,-2.9657,-2.9935,-3.0032,-3.0144,-3.031,-3.0568,-3.0842,-3.1044,-3.113,-3.1193,-3.1575,-3.1929,-3.1945,-3.237,-3.2685,-3.2702,-3.2635,-3.2596,-3.268,-3.2635,-3.253,-3.2288,-3.2419,-3.2583,-3.2679,-3.2774,-3.2862,-3.1711,-3.1756,-3.1663,-3.1608,-3.1556,-3.0881,-3.0744,-3.0994,-3.0871,-3.065,-3.0346,-2.9445,-2.8949,-2.8745,-2.7344,-2.6614,-2.6388,-2.5696,-2.526,-2.5031,-2.4927,-2.4826,-2.4739,-2.4634,-2.4251,-2.3654,-2.3624,-2.2927,-2.165,-2.2373,-2.2398,-2.175,-2.2517,-2.2965,-2.3053,-2.3679,-2.3839,-2.3494,-2.2898,-2.2589,-2.2637,-2.2647,-2.2701,-2.2847,-2.3513,-2.3876,-2.3927,-2.3917,-2.3845,-2.3732,-2.3649,-2.3481,-2.318,-2.3065,-2.2807,0.0,-2.3558,0.0,0.0,0.0,0.0,0.0,0.0,0.0,0.0,-2.7994,-2.7646,-2.7094,-2.6886,-2.6693,-2.6526,-2.7156,-2.7351,-2.6842,-2.7342,-2.7524,-2.7004,-2.6956,-2.6956,-2.6941,-2.6554,-2.6263,-2.6317,-2.5902,-2.5708,-2.6091,-2.6283,-2.6826,-2.7915,-2.8187,-2.8076,-2.7616,-2.7762,-2.8387,-2.856,-2.8655,-2.877,-2.8837,-2.9606,-3.0331,-3.0364,-3.1264,-3.2045,-3.2012,-3.1891,-3.1957,-3.2095,-3.2028,-3.1808,-3.1163,-3.108,-3.1383,-3.2209,-3.2422,-3.2525,-3.2095,-3.2049,-3.1402,-3.112,-3.1026,-2.9579,-2.9917,-3.1403,-3.0722,-2.961,-2.8242,-2.741,-2.6986,-2.682,-2.6411,-2.6188,-2.6095,-2.5864,-2.5374,-2.4667,-2.4034,-2.3413,-2.2798,-2.2149,-2.1795,-2.1635,-2.1598,-2.1417,-2.1127,-2.1293,-2.1311,-2.117,-2.1391,-2.1547,-2.1603,0.0,0.0,0.0,-2.2199,-2.1853,-2.1917,-2.1899,-2.2246,-2.2932,-2.306,0.0,-2.4009,-2.4006,-2.3935,-2.3774,-2.3721,0.0,0.0,0.0,0.0,0.0,0.0,0.0,0.0,0.0,0.0,0.0,-2.6948,-2.6993,-2.7283,-2.6965,-2.6596,-2.6342,-2.6186,-2.5959,-2.5692,-2.5771,-2.5776,-2.56,-2.5663,-2.5688,-2.557,-2.5609,-2.5628,-2.572,-2.564,-2.5628,-2.5685,-2.5651,-2.5631,-2.5742,-2.5863,-2.5902,-2.5903,-2.6735,-2.7307,-2.7432,-2.7571,-2.7894,-2.8119,-2.8145,-2.8086,-2.828,-2.8362,-2.8606,-2.8672,-2.882,-2.9009,-2.9075,-2.898,-2.9042,-2.9042,-2.896,-2.9116,-2.8863,-2.8883,-2.931,-3.0767,-3.0686,-3.0375,-3.0255,0.0,-2.9501,-2.9312,0.0,-2.8383,-2.8587,-2.9532,-2.9004,-2.8233,-2.7345,-2.688,-2.663,-2.649,-2.5979,-2.5699,-2.5565,-2.471,-2.4055,-2.3576,-2.2776,-2.2192,-2.1785,-2.1391,-2.1195,-2.1195,-2.1182,-2.0929,-2.059,-2.0955,-2.0945,-2.057,-2.0978,-2.1235,-2.1287,-2.1005,-2.1288,-2.2134,-2.1434,-2.1076,-2.1102,-2.1111,-2.1311,-2.1758,0.0,0.0,0.0,0.0,0.0,0.0,0.0,0.0,0.0,0.0,0.0,-2.2919,-2.3429,-2.3805,-2.3983,-2.4825,-2.5597,-2.6156,-2.6338,-2.6652,-2.7273,-2.6918,-2.6585,-2.6327,-2.6176,-2.5971,-2.563,-2.5606,-2.5559,-2.5426,-2.5402,-2.5364,-2.5331,-2.5292,-2.5331,-2.5287,-2.5073,-2.4881,-2.4951,-2.4647,-2.4552,-2.462,-2.4417,-2.4262,-2.4313,-2.5402,-2.6293,-2.6277,-2.6455,-2.6633,-2.673,-2.6841,-2.6863,-2.6879,-2.7173,-2.7385,-2.7401,-2.7695,-2.7939,-2.796,-2.7939,-2.7956,-2.7939,-2.7939,-2.796,-2.8003,-2.8027,-2.8267,-2.916,-2.9194,-2.9195,-2.8177,-2.7648,-2.7648,-2.7648,-2.7622,-2.7402,-2.7196,-2.708,0.0,0.0,0.0,-2.6599,-2.6358,-2.6048,-2.5355,-2.4852,-2.4498,-2.3155,-2.2504,-2.2387,-2.1583,-2.1175,-2.1118,-2.0973,-2.0919,-2.0919,-2.0756,-2.0333,-1.9722,-2.0216,-2.0116,-1.956,-2.0116,-2.055,-2.0714,-2.0165,-2.0245,-2.0989,-2.0522,-2.0278,-2.026,-2.0258,-2.034,-2.0468,-2.1814,-2.2676,-2.2969,-2.3536,-2.39,-2.3986,-2.3935,-2.3792,-2.3629,-2.3539,-2.3324,-2.3012,-2.341,-2.3622,-2.3498,-2.4541,-2.5142,-2.5013,-2.5451,-2.6127,-2.709,-2.6898,-2.6566,-2.6259,-2.609,-2.5853,-2.5546,-2.5477,-2.5432,-2.5241,-2.5232,-2.5171,-2.5078,-2.5046,-2.4896,-2.4752,-2.4204,-2.3857,-2.3695,-2.3238,-2.2951,-2.3,-2.2759,-2.2503,-2.2833,-2.3943,-2.4776,-2.4662,-2.4722,-2.4818,-2.4932,-2.5011,-2.5102,-2.5137,-2.5592,-2.5995,-2.6128,-2.6516,-2.6872,-2.6678,-2.6985,-2.7017,-2.7082,-2.7078,-2.7292,-2.7328,-2.7372,-2.7412,-2.7456,-2.7594,-2.7886,-2.781,-2.777,-2.7757,-2.777,-2.7707,-2.6905,-2.6117,-2.5482,-2.6015,-2.6234,-2.6177,-2.5364,-2.4548,-2.3781,-2.3564,-2.3037,-2.22,-2.1926,-2.1808,0.0,-2.0853,-2.0454,-2.039,-1.9739,-1.9396,-1.9351,-1.8641,-1.8229,-1.805,-1.7464,-1.7021,-1.6975,-1.7089,-1.7578,-1.8237,-1.82,-1.8506,-1.9245,-1.9345,-1.9391,-1.9383,-1.9391,-1.9727,-2.0393,-2.0648,-2.1433,-2.2766,-2.293,-2.3285,-2.3881,-2.3837,-2.3771,-2.3689,-2.3528,-2.3336,-2.3168,-2.3032,-2.3156,-2.3613,-2.3699,-2.3878,-2.423,-2.4676,-2.5217,-2.5791,-2.566,-2.5461,-2.5226,-2.505,-2.4704,-2.4374,-2.4307,-2.4193,-2.3946,-2.3858,-2.3792,-2.3755,-2.3666,-2.3386,-2.2855,-2.2606,-2.2292,-2.1861,-2.1593,-2.1507,-2.1462,-2.1439,-2.1389,-2.1609,-2.2256,-2.2751,-2.2845,-2.2886,-2.2964,-2.3235,-2.3199,-2.3349,-2.3279,-2.3453,-2.3658,-2.3674,-2.3819,-2.393,-2.3676,-2.4261,-2.4531,-2.4563,-2.4992,-2.533,-2.5449,-2.5472,-2.5511,-2.5538,-2.5344,-2.5591,-2.6758,-2.6416,-2.6378,-2.6397,-2.632,-2.5407,-2.4826,-2.4435,-2.4252,-2.444,-2.4695,-2.3863,-2.3179,-2.2712,-2.2613,-2.2317,-2.179,-2.1323,-2.1054,-2.085,-1.964,-1.9034,-1.8921,-1.8147,-1.7752,-1.7707,-1.7343,-1.7124,-1.7054,-1.6673,-1.6463,-1.6465,-1.6481,-1.6719,-1.7066,-1.711,-1.7237,-1.7622,-1.8593,-1.9077,-1.9104,-1.9117,-1.9332,-1.9678,-2.0122,-2.0731,-2.1479,-2.2309,-2.288,-2.3192,-2.3586,-2.3747,-2.3652,-2.3487,-2.3336,-2.3205,-2.2977,-2.2933,-2.3086,-2.3183,-2.3486,-2.4031,-2.4149,-2.4254,-2.4436,-2.4995,-2.5201,-2.5005,-2.4751,-2.4446,-2.4078,-2.369,-2.3332,-2.3022,-2.2661,-2.2363,-2.2222,-2.2137,-2.1914,-2.1511,-2.1361,-2.1225,-2.0915,-2.0788,-2.0719,-2.069,-2.0503,-2.0267,-2.0039,-2.023,-2.0846,-2.1896,-2.2175,-2.2232,-2.2334,-2.2368,-2.2372,-2.239,-2.2409,-2.2394,-2.2409,-2.2394,-2.2394,-2.2409,-2.2688,-2.2843,-2.2874,-2.3107,-2.3344,-2.3414,-2.3472,-2.353,-2.3563,-2.3546,-2.3993,-2.5746,-2.5187,-2.4977,-2.4804,-2.4564,-2.3905,-2.3604,-2.3494,-2.2665,-2.2594,-2.3007,-2.2558,-2.2195,-2.1922,-2.1854,-2.1636,-2.1256,-2.0444,-1.9971,-1.9719,-1.8372,-1.7663,-1.7548,-1.689,-1.6571,-1.6545,-1.6381,-1.6243,-1.6184,-1.6018,-1.5923,-1.5892,-1.5867,-1.5956,-1.6116,-1.6134,-1.6223,-1.648,-1.7697,-1.8474,-1.8679,-1.8728,-1.886,-1.9104,-1.97,-2.0143,-2.0388,-2.1479,-2.2175,-2.2333,-2.305,-2.3408,-2.3316,-2.3341,-2.3301,-2.318,-2.2977,-2.2777,-2.2572,-2.2712,-2.3044,-2.3533,-2.3473,-2.3372,-2.3317,-2.4152,-2.47,-2.4546,-2.4194,-2.3891,-2.3508,-2.3051,-2.2571,-2.2212,-2.173,-2.1386,-2.1067,-2.1005,-2.0829,-2.0478,-2.0316,-2.0217,-2.0027,-1.988,-1.9719,-1.96,-1.937,-1.8975,-1.8632,-1.8533,-1.9266,-2.0372,-2.1084,-2.1126,-2.1287,-2.1242,-2.1246,-2.1355,-2.1295,-2.1205,-2.122,-2.1295,-2.1325,-2.1265,-2.1465,-2.1555,-2.1566,-2.1767,-2.1872,-2.1967,-2.2037,-2.1998,-2.195,-2.2093,-2.2598,-2.5156,-2.5,-2.4309,-2.3544,-2.2906,-2.2756,-2.2675,-2.2509,-2.1702,-2.1333,-2.1425,-2.2009,-2.1811,-2.1155,-2.0981,-2.0456,-1.9626,-1.8743,-1.832,-1.8175,-1.7256,-1.678,-1.6702,-1.654,-1.6502,-1.6345,-1.5689,-1.5305,-1.5254,-1.4551,-1.4139,-1.4049,-1.4001,-1.436,-1.497,-1.5058,-1.5389,-1.6107,-1.6299,-1.68,-1.7663,-1.7734,-1.8126,-1.8905,-1.8995,-1.939,-2.0047,-2.0263,-2.0695,-2.1396,-2.2077,-2.2443,-2.2482,-2.2899,-2.3175,-2.3102,-2.2919,-2.2659,-2.2349,-2.2142,-2.2051,-2.2044,-2.236,-2.2458,-2.2341,-2.2789,-2.314,-2.303,-2.2717,-2.252,-2.2215,-2.1978,-2.1695,-2.1336,-2.1111,-2.1032,-2.0688,-2.0669,-2.0323,-1.9509,-1.928,-1.899,-1.8494,-1.8215,-1.7997,-1.7987,-1.792,-1.7814,-1.7788,-1.7686,-1.7679,-1.8186,-1.8638,-1.9109,-1.9257,-1.9208,-1.9372,-1.9415,-1.9395,-1.9463,-1.9502,-1.9492,-1.9399,-1.9672,-1.989,-2.0201,-2.0347,-2.0713,-2.105,-2.0799,-2.0854,-2.0999,-2.069,-2.0589,-2.1122,-2.3461,-2.3472,-2.316,-2.2806,-2.2452,-2.1924,-2.1687,-2.1538,-2.069,-2.027,-2.0179,-2.0464,-2.0413,-2.0124,-2.0021,-1.9468,-1.8588,-1.8195,-1.7712,-1.7131,-1.6287,-1.5842,-1.5747,-1.5185,-1.4947,-1.4892,-1.4498,-1.4263,-1.4139,-1.3801,-1.3567,-1.3509,-1.3477,-1.364,-1.393,-1.3947,-1.4127,-1.4418,-1.4452,-1.4882,-1.5784,-1.6897,-1.7657,-1.8021,-1.8457,-1.8858,-1.9233,-1.969,-2.011,-2.0438,-2.111,-2.1512,-2.148,-2.2083,-2.2404,-2.2349,-2.2501,-2.2443,-2.2147,-2.1915,-2.1706,-2.1587,-2.16,-2.1552,-2.1321,-2.1319,-2.1266,-2.1268,-2.1809,-2.2099,-2.1703,-2.1227,-2.0774,-2.0387,-1.9933,-1.9524,-1.9268,-1.9065,-1.8762,-1.8378,-1.8139,-1.7879,-1.7583,-1.7289,-1.7081,-1.6934,-1.6913,-1.69,-1.6888,-1.6824,-1.6782,-1.6799,-1.7037,-1.7436,-1.79,-1.8066,-1.8086,-1.8125,-1.8159,-1.8159,-1.8159,-1.8173,-1.8173,-1.8125,-1.8414,-1.8587,-1.8539,-1.8698,-1.8954,-1.903,-1.9104,-1.9093,-1.8886,-1.8956,-1.9455,-2.2147,-2.2171,-2.1983,-2.1745,-2.15,-2.0865,-2.0537,-2.0401,-1.9794,-1.9404,-1.9257,-1.899,-1.8864,-1.8874,-1.8941,-1.8467,-1.7642,-1.7335,-1.6846,-1.6069,-1.5236,-1.4791,-1.4654,-1.4073,-1.3694,-1.3597,-1.3551,-1.3436,-1.3312,-1.3202,-1.3158,-1.3115,-1.3071,-1.3061,-1.3053,-1.3053,-1.3053,-1.3061,-1.3063,-1.3365,-1.4158,-1.5733,-1.6876,-1.7272,-1.8036,-1.8432,-1.8469,-1.9094,-1.9422,-1.9399,-2.0132,-2.0533,-2.0515,-2.1121,-2.1513,-2.1591,-2.1812,-2.1961,-2.188,-2.1678,-2.148,-2.1277,-2.1055,-2.0794,-2.051,-2.0222,-1.9977,-1.9867,-2.0689,-2.1051,-2.0877,-2.0274,-1.9754,-1.9336,-1.8714,-1.826,-1.7983,-1.772,-1.757,-1.7359,-1.7141,-1.6837,-1.671,-1.6475,-1.6259,-1.6076,-1.6054,-1.602,-1.5886,-1.5786,-1.5686,-1.5608,-1.5564,-1.5947,-1.6836,-1.7066,-1.7045,-1.7003,-1.7003,-1.6995,-1.6995,-1.7016,-1.7016,-1.697,-1.6983,-1.7029,-1.7094,-1.7081,-1.7034,-1.7037,-1.7133,-1.7318,-1.7413,-1.7483,-1.7666,-2.166,-2.1572,-2.0902,-2.0139,-1.9435,-1.9346,-1.9248,-1.9198,-1.9059,-1.8897,-1.8564,-1.786,-1.7436,-1.7267,-1.7545,-1.7369,-1.6527,-1.5755,-1.5278,-1.4892,-1.4115,-1.3616,-1.3471,-1.3379,-1.3261,-1.3099,-1.3021,-1.2914,-1.2811,-1.2689,-1.263,-1.262,-1.2482,-1.2417,-1.2408,-1.2417,-1.2427,-1.2417,-1.2466,-1.2572,-1.2864,-1.4163,-1.5576,-1.6693,-1.7638,-1.8037,-1.8111,-1.8215,-1.8288,-1.826,-1.9033,-1.9449,-1.9525,-2.0079,-2.0604,-2.0934,-2.0927,-2.1112,-2.1456,-2.1324,-2.1103,-2.0893,-2.058,-2.0308,-2.0025,-1.9797,-1.9493,-1.9176,-1.9118,-1.9152,-1.919,-1.8979,-1.8588,-1.8178,-1.7963,-1.7659,-1.7282,-1.7089,-1.6879,-1.6582,-1.6278,-1.5906,-1.5521,-1.5411,-1.5231,-1.5028,-1.4971,-1.4915,-1.4732,-1.4538,-1.4412,-1.4343,-1.4307,-1.4526,-1.5618,-1.5903,-1.586,-1.5794,-1.575,-1.5762,-1.5762,-1.5784,-1.5762,-1.5762,-1.5728,-1.5728,-1.5762,-1.5762,-1.5762,-1.575,-1.575,-1.586,-1.5978,-1.6111,-1.6314,-1.9198,-1.9246,-1.8961,-1.8658,-1.841,-1.8327,-1.8252,-1.8202,-1.8039,-1.7641,-1.7092,-1.6659,-1.5907,-1.4886,-1.4937,-1.5085,-1.5175,-1.4839,-1.4332,-1.3709,-1.3268,-1.302,-1.2886,-1.2741,-1.2594,-1.2454,-1.2362,-1.2188,-1.1979,-1.1875,-1.1817,-1.1753,-1.1683,-1.1614,-1.1571,-1.1581,-1.1592,-1.1625,-1.17,-1.1769,-1.1942,-1.3237,-1.4259,-1.4825,-1.6511,-1.7481,-1.7585,-1.7647,-1.7693,-1.7749,-1.8042,-1.8166,-1.8239,-1.8728,-1.9327,-1.9852,-2.015,-2.029,-2.0367,-2.0558,-2.0563,-2.0278,-1.9984,-1.9696,-1.942,-1.9091,-1.8722,-1.8422,-1.8141,-1.7948,-1.7814,-1.7894,-1.7848,-1.7428,-1.7193,-1.693,-1.657,-1.6269,-1.5986,-1.5678,-1.5264,-1.4755,-1.44,-1.4236,-1.412,-1.3873,-1.3755,-1.3627,-1.3508,-1.3321,-1.3144,-1.301,-1.2914,-1.2904,-1.296,-1.4032,-1.4504,-1.4458,-1.4412,-1.4366,-1.4343,-1.4321,-1.4298,-1.4287,-1.4298,-1.4275,-1.4264,-1.423,-1.4264,-1.4287,-1.4298,-1.4322,-1.4539,-1.4574,-1.4835,-1.7016,-1.7062,-1.7057,-1.7029,-1.6977,-1.6964,-1.6865,-1.675,-1.6446,-1.5943,-1.5347,-1.4805,-1.3892,-1.2904,-1.2416,-1.2471,-1.2991,-1.3336,-1.3186,-1.2575,-1.2386,-1.2228,-1.203,-1.1845,-1.1672,-1.1533,-1.1348,-1.1133,-1.0925,-1.081,-1.0731,-1.0662,-1.0578,-1.0532,-1.0472,-1.0448,-1.0482,-1.0554,-1.0625,-1.0743,-1.1119,-1.2173,-1.2951,-1.3412,-1.5003,-1.6293,-1.6824,-1.6944,-1.7035,-1.7105,-1.713,-1.7154,-1.7212,-1.7474,-1.7952,-1.8547,-1.8812,-1.9076,-1.9244,-1.9507,-1.9617,-1.9495,-1.9196,-1.8912,-1.8602,-1.8198,-1.7841,-1.7517,-1.7188,-1.6854,-1.66,-1.6629,-1.6693,-1.6557,-1.6377,-1.6049,-1.5642,-1.5253,-1.4869,-1.4412,-1.3914,-1.3467,-1.3154,-1.2976,-1.2793,-1.2575,-1.2414,-1.2242,-1.212,-1.1888,-1.1706,-1.1532,-1.1374,-1.1199,-1.1148,-1.1693,-1.2508,-1.2614,-1.2826,-1.2822,-1.2798,-1.2798,-1.2798,-1.2798,-1.2773,-1.2759,-1.2725,-1.2701,-1.2691,-1.2715,-1.2648,-1.2619,-1.2797,-1.296,-1.3145,-1.5218,-1.5189,-1.5247,-1.5088,-1.4946,-1.4917,-1.489,-1.4572,-1.4136,-1.3666,-1.3091,-1.209,-1.1388,-1.0995,-1.0183,-0.9791,-1.0023,-1.0943,-1.1507,-1.1464,-1.13,-1.1088,-1.0833,-1.0606,-1.0403,-1.0251,-1.0018,-0.978,-0.9616,-0.9412,-0.9283,-0.9269,-0.9153,-0.9062,-0.907,-0.9033,-0.9086,-0.9138,-0.9215,-0.9543,-1.0197,-1.0919,-1.159,-1.2191,-1.3126,-1.4278,-1.5717,-1.5944,-1.6097,-1.6233,-1.6327,-1.6412,-1.6401,-1.638,-1.6561,-1.7021,-1.6984,-1.7389,-1.8225,-1.82,-1.8273,-1.8399,-1.823,-1.7874,-1.747,-1.7113,-1.6778,-1.6437,-1.6068,-1.5706,-1.5343,-1.4994,-1.5028,-1.5599,-1.5365,-1.4971,-1.4515,-1.4099,-1.3592,-1.2914,-1.2419,-1.2159,-1.1938,-1.1632,-1.1324,-1.1124,-1.0897,-1.0704,-1.0551,-1.0281,-1.0026,-0.9923,-0.9736,-0.9489,-0.9382,-0.9377,-1.0077,-1.0687,-1.1006,-1.1165,-1.1107,-1.1098,-1.1065,-1.104,-1.0981,-1.0965,-1.0898,-1.0873,-1.0847,-1.0847,-1.0856,-1.0847,-1.0989,-1.113,-1.1272,-1.2255,-1.2267,-1.2255,-1.2234,-1.2151,-1.2084,-1.1874,-1.1479,-1.1224,-1.0668,-0.9881,-0.9328,-0.8769,-0.822,-0.7718,-0.7512,-0.7526,-0.7844,-0.8607,-0.9691,-0.9729,-0.9516,-0.9286,-0.9053,-0.8752,-0.8415,-0.8156,-0.799,-0.7879,-0.7697,-0.7542,-0.7462,-0.7419,-0.7358,-0.7234,-0.7282,-0.7339,-0.7429,-0.7699,-0.7967,-0.829,-0.917,-0.9839,-1.0213,-1.1016,-1.1878,-1.262,-1.406,-1.487,-1.505,-1.5213,-1.533,-1.536,-1.5257,-1.5285,-1.5457,-1.5641,-1.5935,-1.6532,-1.6793,-1.6932,-1.7121,-1.6902,-1.6557,-1.6198,-1.575,-1.534,-1.4993,-1.4642,-1.4241,-1.3786,-1.3362,-1.348,-1.4377,-1.4168,-1.3713,-1.3144,-1.2483,-1.187,-1.1366,-1.0948,-1.0586,-1.0263,-0.9982,-0.9769,-0.9504,-0.9252,-0.9051,-0.8947,-0.8626,-0.837,-0.8297,-0.8021,-0.7712,-0.7526,-0.734,-0.7635,-0.8365,-0.8873,-0.9327,-0.9341,-0.9316,-0.9283,-0.9231,-0.9179,-0.9094,-0.9061,-0.9009,-0.8951,-0.9009,-0.9028,-0.9054,-0.9139,-0.921,-0.9299,-0.8809,-0.8781,-0.8781,-0.8651,-0.8484,-0.8464,-0.8222,-0.7825,-0.7559,-0.7032,-0.6419,-0.6067,-0.568,-0.5214,-0.4968,-0.49,-0.4885,-0.4636,-0.5238,-0.6562,-0.7488,-0.7524,-0.7309,-0.6969,-0.6623,-0.6267,-0.6053,-0.5912,-0.58,-0.565,-0.5507,-0.5371,-0.5341,-0.528,-0.5173,-0.521,-0.5291,-0.5421,-0.5647,-0.5965,-0.6362,-0.702,-0.7621,-0.8049,-0.8725,-0.9245,-0.9744,-1.1118,-1.2421,-1.3365,-1.3824,-1.3969,-1.4001,-1.3885,-1.3834,-1.3888,-1.4072,-1.4392,-1.479,-1.5045,-1.5309,-1.5461,-1.5271,-1.4902,-1.454,-1.408,-1.3695,-1.3318,-1.2926,-1.2517,-1.2064,-1.1603,-1.1585,-1.1871,-1.225,-1.2073,-1.1465,-1.0687,-1.0095,-0.9692,-0.9311,-0.894,-0.86,-0.8317,-0.81,-0.7809,-0.7543,-0.7282,-0.717,-0.6876,-0.6639,-0.6396,-0.6112,-0.5837,-0.5602,-0.5439,-0.5268,-0.5936,-0.6657,-0.7169,-0.7473,-0.7441,-0.7414,-0.7302,-0.7222,-0.7084,-0.7025,-0.6983,-0.6929,-0.7047,-0.7063,-0.6988,-0.6956,-0.7084,-0.7153,-0.4883,-0.4842,-0.4817,-0.4556,-0.4235,-0.421,-0.3999,-0.3718,-0.3355,-0.3058,-0.2802,-0.2462,-0.2227,-0.2105,-0.1946,-0.1889,-0.1907,-0.1742,-0.1643,-0.2345,-0.3634,-0.4613,-0.4767,-0.4422,-0.409,-0.3868,-0.3691,-0.3544,-0.3342,-0.3283,-0.3178,-0.2975,-0.2911,-0.2923,-0.2785,-0.283,-0.2856,-0.2967,-0.3141,-0.3547,-0.4188,-0.4557,-0.4974,-0.5625,-0.6123,-0.6548,-0.695,-0.7566,-0.9086,-1.1424,-1.2083,-1.2207,-1.2277,-1.2266,-1.2171,-1.2159,-1.2287,-1.255,-1.2899,-1.3022,-1.3218,-1.3486,-1.3243,-1.2944,-1.246,-1.2082,-1.1733,-1.1329,-1.0964,-1.0571,-1.0115,-0.9588,-0.9092,-0.8736,-0.9684,-1.002,-0.9337,-0.8705,-0.8246,-0.7935,-0.7581,-0.7213,-0.6833,-0.6575,-0.6311,-0.604,-0.5765,-0.5462,-0.5218,-0.4945,-0.4625,-0.4375,-0.4149,-0.3899,-0.3624,-0.3484,-0.3317,-0.3394,-0.4126,-0.4701,-0.5396,-0.5481,-0.5368,-0.5291,-0.5206,-0.5101,-0.5023,-0.4965,-0.4883,-0.4876,-0.4856,-0.4765,-0.4789,-0.4907,-0.4981,-0.027,-0.0249,-0.0104,0.0083,0.0269,0.0432,0.0702,0.0984,0.092,0.1106,0.1291,0.1181,0.1206,0.1222,0.1275,0.1263,0.1345,0.1365,0.1414,0.1428,0.1065,-0.047,-0.1656,-0.1649,-0.1381,-0.1239,-0.0955,-0.0887,-0.0724,-0.0599,-0.0486,-0.0389,-0.0151,-0.0034,0.0069,0.0124,0.0128,0.0,-0.0461,-0.0785,-0.1152,-0.167,-0.2156,-0.2585,-0.3058,-0.351,-0.3964,-0.4684,-0.6556,-0.9456,-0.9906,-1.0068,-1.0153,-1.0116,-1.0087,-1.0099,-1.017,-1.0347,-1.0658,-1.0767,-1.0876,-1.1028,-1.0773,-1.0481,-1.007,-0.9771,-0.942,-0.8994,-0.8586,-0.8149,-0.765,-0.7115,-0.6455,-0.5896,-0.694,-0.7729,-0.7281,-0.6763,-0.6333,-0.604,-0.554,-0.5159,-0.4887,-0.4587,-0.4289,-0.4042,-0.3767,-0.3462,-0.3212,-0.2938,-0.2579,-0.2417,-0.2194,-0.1917,-0.1667,-0.1555,-0.1361,-0.1084,-0.1497,-0.2018,-0.2792,-0.3432,-0.3267,-0.3101,-0.3094,-0.3012,-0.2989,-0.2961,-0.2856,-0.2741,-0.2713,-0.2686,-0.2688,-0.2737,-0.2792,0.4098,0.4187,0.434,0.4537,0.4743,0.4908,0.5162,0.5368,0.5269,0.5299,0.5386,0.5238,0.5111,0.5109,0.5087,0.5068,0.5068,0.5039,0.51,0.5203,0.5308,0.3808,0.1937,0.1628,0.1921,0.2025,0.2248,0.244,0.2544,0.2561,0.2652,0.2791,0.2909,0.3004,0.3078,0.3075,0.3076,0.2959,0.2527,0.2213,0.1957,0.1467,0.1055,0.0648,0.0194,-0.0324,-0.0995,-0.1726,-0.3644,-0.638,-0.7309,-0.7477,-0.7701,-0.7669,-0.7688,-0.7724,-0.7831,-0.7988,-0.8165,-0.8225,-0.824,-0.8236,-0.8014,-0.7707,-0.7366,-0.7093,-0.6722,-0.6345,-0.5922,-0.5497,-0.5043,-0.4419,-0.3659,-0.3115,-0.3675,-0.4409,-0.4876,-0.4583,-0.4231,-0.3874,-0.3457,-0.3019,-0.283,-0.2498,-0.2192,-0.1915,-0.1664,-0.1415,-0.1138,-0.0835,-0.0556,-0.0361,-0.0167,0.0111,0.0361,0.0499,0.0636,0.0887,0.0971,0.0471,-0.0332,-0.1164,-0.1249,-0.1109,-0.1027,-0.0972,-0.0971,-0.0915,-0.0749,-0.0665,-0.0666,-0.061,-0.0582,-0.0582,-0.0637,0.8202,0.8415,0.8504,0.8722,0.8966,0.9161,0.921,0.9363,0.9271,0.9268,0.9245,0.9255,0.8988,0.9093,0.8736,0.8899,0.8883,0.8661,0.8783,0.8847,0.8835,0.7725,0.576,0.5248,0.5358,0.5442,0.5779,0.5845,0.5823,0.5912,0.6019,0.6024,0.6096,0.6155,0.6137,0.6098,0.6006,0.5907,0.5671,0.5354,0.5055,0.4689,0.4295,0.3843,0.3297,0.2695,0.2008,0.1274,-0.0278,-0.3486,-0.4176,-0.4592,-0.4843,-0.4926,-0.494,-0.5014,-0.5115,-0.522,-0.5317,-0.5288,-0.5344,-0.5218,-0.4927,-0.4646,-0.4426,-0.4098,-0.38,-0.3449,-0.3107,-0.2665,-0.2198,-0.1435,-0.0801,-0.0359,-0.0028,-0.0635,-0.177,-0.2161,-0.1943,-0.1664,-0.1248,-0.0888,-0.0583,-0.0278,0.0028,0.0249,0.0499,0.0748,0.0998,0.1247,0.1525,0.1746,0.1943,0.2142,0.2362,0.2554,0.2688,0.2853,0.3074,0.2766,0.2017,0.1298,0.0915,0.0805,0.0942,0.0998,0.0999,0.1139,0.1305,0.1416,0.1413,0.1526,0.1612,0.1525,0.1468,1.1727,1.1847,1.2073,1.2274,1.2428,1.2634,1.2736,1.2761,1.2528,1.2379,1.235,1.2058,1.1884,1.1829,1.1686,1.159,1.1584,1.1497,1.1446,1.154,1.1891,1.1807,1.0541,0.9328,0.8333,0.8344,0.8427,0.8569,0.8661,0.8717,0.8757,0.8921,0.9057,0.9145,0.913,0.911,0.9142,0.8969,0.8692,0.8373,0.8087,0.7749,0.7333,0.6814,0.6117,0.5528,0.5072,0.4562,0.3796,0.2413,0.0364,-0.108,-0.1636,-0.1681,-0.1672,-0.1806,-0.1922,-0.1949,-0.1902,-0.1978,-0.2021,-0.1828,-0.1692,-0.148,-0.1124,-0.1013,-0.0713,-0.0358,-0.0028,0.0412,0.0988,0.1517,0.1986,0.2367,0.2618,0.2758,0.2369,0.1214,0.0526,0.0665,0.1025,0.1359,0.1526,0.1858,0.2164,0.2413,0.2662,0.2941,0.3131,0.3322,0.3539,0.3756,0.3954,0.4094,0.431,0.4501,0.4634,0.4743,0.4941,0.5082,0.4297,0.3692,0.3254,0.3014,0.2941,0.2968,0.2936,0.3051,0.3189,0.3329,0.3442,0.3495,0.352,0.3522,0.3495,1.4362,1.4497,1.4732,1.4877,1.5005,1.5175,1.5316,1.5352,1.5228,1.5126,1.508,1.4811,1.4694,1.4659,1.4492,1.4418,1.435,1.4244,1.4191,1.4251,1.4449,1.4552,1.4467,1.3257,1.2217,1.1523,1.1455,1.1551,1.1595,1.1587,1.1692,1.1766,1.1846,1.1873,1.1859,1.1843,1.1745,1.1586,1.1378,1.1108,1.0838,1.0533,1.0028,0.9448,0.8792,0.8309,0.7924,0.7536,0.7291,0.6684,0.5264,0.3305,0.1878,0.1735,0.1761,0.1568,0.1556,0.1514,0.1513,0.151,0.1527,0.1666,0.1721,0.1913,0.2133,0.2271,0.2438,0.2716,0.3073,0.3512,0.4087,0.4334,0.4694,0.4965,0.5217,0.5468,0.5383,0.399,0.279,0.3012,0.3396,0.3589,0.3817,0.4063,0.4313,0.4552,0.4767,0.5019,0.5124,0.5314,0.5477,0.5698,0.5869,0.6063,0.6247,0.6409,0.6511,0.6624,0.6736,0.687,0.6635,0.6067,0.5554,0.5183,0.4723,0.4812,0.4805,0.4957,0.5015,0.5066,0.5175,0.5316,0.5343,0.5253,0.5226,1.6358,1.6602,1.6726,1.6889,1.7016,1.7105,1.7191,1.731,1.7366,1.7176,1.7315,1.7292,1.6957,1.7063,1.6884,1.6869,1.6751,1.6629,1.6402,1.6422,1.6454,1.649,1.6453,1.6305,1.5871,1.4726,1.4257,1.4241,1.424,1.4364,1.4145,1.434,1.4353,1.418,1.4201,1.4135,1.3952,1.3776,1.3603,1.3392,1.3127,1.286,1.2396,1.1933,1.1498,1.1223,1.0975,1.068,1.0449,1.0509,1.0284,0.861,0.6708,0.5363,0.5319,0.5031,0.5119,0.5109,0.5019,0.5056,0.5122,0.5142,0.5222,0.528,0.536,0.549,0.5601,0.577,0.6047,0.6425,0.6881,0.7004,0.7216,0.7491,0.7779,0.797,0.7799,0.6556,0.6034,0.5364,0.5626,0.5837,0.6035,0.626,0.6494,0.6693,0.6881,0.7036,0.7138,0.7245,0.7393,0.7505,0.7644,0.7776,0.7935,0.8008,0.8173,0.8252,0.8403,0.8482,0.8554,0.8219,0.7588,0.6785,0.644,0.6472,0.6499,0.6585,0.6649,0.674,0.6816,0.6891,0.6923,0.6934,0.6902,1.7783,1.7987,1.8056,1.8198,1.8348,1.8387,1.8407,1.8509,1.8473,1.8491,1.8407,1.8406,1.8339,1.827,1.8175,1.8063,1.7889,1.7905,1.7939,1.7939,1.8001,1.8053,1.8173,1.8572,1.8586,1.8094,1.709,1.628,1.6171,1.6078,1.6291,1.6193,1.6211,1.6144,1.6107,1.5916,1.5945,1.5852,1.5708,1.5477,1.5227,1.4972,1.4754,1.4453,1.4154,1.4082,1.4222,1.4057,1.3878,1.3724,1.3622,1.3166,1.2019,1.018,0.907,0.8588,0.8608,0.857,0.8473,0.8499,0.85,0.8442,0.8384,0.8442,0.8501,0.8533,0.8578,0.8701,0.8863,0.9141,0.9453,0.9482,0.9684,0.9929,1.0081,1.0267,1.031,1.0025,0.9256,0.8235,0.8155,0.8063,0.8194,0.8325,0.8489,0.8632,0.8789,0.8926,0.8997,0.9082,0.9167,0.9259,0.9358,0.9462,0.9592,0.9603,0.9681,0.9743,0.9835,0.9861,0.9938,1.0023,0.9544,0.8717,0.812,0.7915,0.8006,0.8125,0.8151,0.8145,0.829,0.8428,0.8336,0.8277,0.829,1.8618,1.8771,1.885,1.8943,1.9053,1.9099,1.9131,1.9144,1.9144,1.9136,1.9104,1.9117,1.9103,1.9036,1.8935,1.8824,1.8834,1.9201,1.9299,1.9379,1.9729,1.9953,1.9908,2.0357,2.0492,2.0277,1.9503,1.8825,1.8636,1.8646,1.8533,1.867,1.8641,1.8577,1.8504,1.8493,1.8269,1.8144,1.8045,1.7886,1.7615,1.7344,1.7163,1.6954,1.67,1.6617,1.6539,1.6379,1.6273,1.6268,1.6146,1.6199,1.579,1.4944,1.3289,1.2184,1.1874,1.1827,1.1677,1.1637,1.1516,1.1476,1.1421,1.1365,1.1374,1.1374,1.1382,1.1458,1.15,1.1648,1.1828,1.1853,1.1993,1.2158,1.2265,1.2353,1.2474,1.2604,1.1935,1.0939,1.0547,1.0329,1.0191,1.0326,1.0477,1.0594,1.0695,1.0771,1.0814,1.0814,1.0839,1.0923,1.0956,1.1032,1.1082,1.1082,1.1091,1.1141,1.1166,1.1191,1.12,1.1225,1.1074,1.0577,1.0092,0.9563,0.9396,0.9448,0.9488,0.9521,0.9547,0.9566,0.9592,0.9592,0.9573,1.9167,1.9309,1.939,1.9448,1.9509,1.9559,1.9592,1.9599,1.9592,1.9592,1.9592,1.9596,1.9669,1.9834,1.9926,1.9919,1.985,2.0525,2.0674,2.0803,2.1206,2.1609,2.1691,2.1912,2.195,2.1905,2.2072,2.1697,2.0664,2.0523,2.0703,2.0552,2.0714,2.0753,2.0497,2.0285,2.0481,2.0425,2.0333,2.0185,1.987,1.9547,1.9342,1.9202,1.8946,1.8713,1.8687,1.8512,1.8466,1.8519,1.8435,1.8382,1.8675,1.8584,1.747,1.5697,1.504,1.4698,1.4508,1.4361,1.4237,1.4158,1.4122,1.4052,1.3914,1.3847,1.3889,1.3932,1.3886,1.3875,1.3934,1.3989,1.4036,1.4139,1.4162,1.4242,1.4288,1.4368,1.4368,1.3596,1.3002,1.2513,1.2261,1.2143,1.2275,1.2275,1.2381,1.2333,1.2372,1.2357,1.2391,1.2458,1.2517,1.2575,1.2575,1.2492,1.2444,1.2404,1.2355,1.234,1.2325,1.231,1.2153,1.1996,1.174,1.1265,1.1032,1.0745,1.0695,1.0677,1.0703,1.0728,1.0695,1.072,1.0695,1.9525,1.965,1.9707,1.9782,1.9824,1.9841,1.9894,1.9919,1.9976,1.9906,1.9966,1.9985,2.0344,2.0879,2.1573,2.1756,2.1755,2.1801,2.1906,2.1943,2.2167,2.2298,2.226,2.2895,2.3103,2.3233,2.3774,2.309,2.2118,2.1707,2.158,2.1643,2.1707,2.1507,2.165,2.1666,2.1331,2.128,2.1195,2.1004,2.0742,2.0489,2.0587,2.0746,2.0723,2.0652,2.077,2.0625,2.062,2.056,2.0413,2.0344,2.0387,2.0235,1.9982,1.91,1.8175,1.708,1.6876,1.669,1.6586,1.6489,1.6431,1.6363,1.6113,1.5963,1.5957,1.6037,1.5908,1.583,1.5809,1.5789,1.5801,1.5823,1.5867,1.5922,1.6,1.5867,1.5879,1.5847,1.5091,1.4552,1.4174,1.4068,1.4007,1.4007,1.4007,1.3927,1.388,1.3833,1.3763,1.3807,1.3807,1.3841,1.3805,1.3747,1.3677,1.3616,1.3532,1.346,1.3399,1.3375,1.3386,1.3222,1.2996,1.273,1.2307,1.2012,1.1866,1.1792,1.1758,1.1767,1.1801,1.1801,1.1767,2.0652,1.983,1.9896,1.9917,1.9969,1.9963,1.9979,2.0098,2.0516,2.0701,2.0809,2.1246,2.1614,2.197,2.2306,2.2351,2.2425,2.2802,2.3003,2.316,2.3387,2.3625,2.3795,2.4051,2.424,2.4289,2.4508,2.4392,2.3539,2.331,2.3291,2.3216,2.3245,2.3339,2.3017,2.3158,2.3178,2.3116,2.2977,2.2803,2.2574,2.2375,2.2321,2.2464,2.2245,2.2203,2.2194,2.2135,2.1998,2.1886,2.1694,2.1592,2.1516,2.141,2.1241,2.099,2.0428,1.9587,1.8854,1.8636,1.8503,1.8427,1.8326,1.8138,1.7942,1.7764,1.7698,1.7712,1.7572,1.7491,1.7484,1.7437,1.741,1.741,1.7369,1.7369,1.7382,1.7334,1.7259,1.7265,1.7182,1.6545,1.5941,1.5648,1.544,1.5274,1.5251,1.5229,1.5196,1.5197,1.5107,1.5005,1.5005,1.5005,1.4949,1.488,1.4755,1.4687,1.4629,1.4514,1.4444,1.4398,1.4351,1.4305,1.4097,1.3805,1.3474,1.315,1.2861,1.2798,1.2793,1.2759,1.2725,1.2662,1.2628,2.1947,2.0598,2.0636,2.0652,2.0667,2.0674,2.0713,2.077,2.1362,2.1667,2.1877,2.2487,2.2876,2.2974,2.3121,2.3351,2.3245,2.379,2.3993,2.4297,2.46,2.4809,2.4746,2.4879,2.4879,2.4955,2.4891,2.4802,2.4902,2.4906,2.484,2.4703,2.4395,2.45,2.4551,2.4407,2.4318,2.4228,2.4179,2.4063,2.3931,2.3804,2.3671,2.3577,2.3419,2.3224,2.3093,2.2905,2.278,2.2678,2.2595,2.2489,2.2449,2.2324,2.2183,2.2023,2.1757,2.1449,2.0703,2.0276,2.01,1.9943,1.9803,1.9507,1.9411,1.928,1.917,1.9137,1.8993,1.8919,1.891,1.8835,1.8741,1.8684,1.8674,1.8674,1.8636,1.8468,1.8372,1.8327,1.8269,1.8238,1.7686,1.7239,1.6886,1.6595,1.651,1.6489,1.6416,1.6364,1.6247,1.6083,1.6005,1.5983,1.593,1.5876,1.5788,1.5678,1.5611,1.55,1.5366,1.5277,1.521,1.5153,1.5085,1.4915,1.4606,1.4213,1.3826,1.3755,1.3697,1.3637,1.3589,1.3529,1.3457,2.3274,2.2413,2.243,2.2359,2.2328,2.2492,2.246,2.2278,2.2513,2.2647,2.2829,2.3457,2.3853,2.3971,2.44,2.4719,2.4849,2.4983,2.4881,2.4901,2.5059,2.5066,2.5066,2.5066,2.513,2.5187,2.5276,2.5257,2.5359,2.606,2.5652,2.5053,2.5322,2.5045,2.5062,2.529,2.5073,2.4948,2.4837,2.4617,2.4435,2.4274,2.4183,2.405,2.3929,2.3785,2.3642,2.3482,2.3369,2.3311,2.3224,2.3182,2.3134,2.3049,2.2903,2.2805,2.2746,2.2517,2.2126,2.1587,2.1273,2.107,2.083,2.0619,2.0519,2.0485,2.0434,2.0316,2.0148,2.0095,2.0026,1.9971,1.9851,1.9781,1.9692,1.9636,1.9564,1.9467,1.9376,1.9354,1.9281,1.9173,1.908,1.855,1.7999,1.7659,1.7497,1.7457,1.736,1.7291,1.718,1.7055,1.6972,1.6909,1.6866,1.6761,1.6591,1.6484,1.6398,1.6312,1.6182,1.6107,1.601,1.5923,1.5822,1.579,1.5691,1.5209,1.4835,1.4675,1.456,1.4433,1.4351,1.4269,1.4199,2.4506,2.4203,2.4211,2.3599,2.2676,2.2705,2.271,2.2796,2.3266,2.3817,2.4215,2.4598,2.4727,2.4793,2.4946,2.519,2.5165,2.5165,2.5165,2.5165,2.5165,2.516,2.516,2.5319,2.5409,2.5836,2.597,2.6334,2.6864,2.71,2.7063,2.6753,2.6581,2.6592,2.6572,2.6369,2.6155,2.5771,2.5603,2.5386,2.4707,2.4626,2.4545,2.4428,2.4284,2.4154,2.4011,2.3931,2.384,2.3767,2.3732,2.3689,2.3675,2.3569,2.3484,2.338,2.3341,2.3265,2.3093,2.2548,2.2057,2.1903,2.1713,2.1549,2.1475,2.1413,2.1385,2.1275,2.1149,2.1055,2.0975,2.0894,2.0813,2.0732,2.0681,2.0628,2.0605,2.0547,2.0535,2.0591,2.0273,2.0002,1.9914,1.9791,1.9229,1.8736,1.8568,1.8433,1.8291,1.8153,1.8034,1.7894,1.778,1.7693,1.7632,1.7489,1.7359,1.7256,1.7152,1.7034,1.6951,1.6858,1.6744,1.6659,1.6531,1.6402,1.6238,1.6032,1.5734,1.5389,1.5231,1.5164,1.5085,1.4994,1.4857,2.5201,2.5241,2.5241,2.457,2.3539,2.3482,2.3487,2.3587,2.413,2.4667,2.5233,2.5233,2.5233,2.5238,2.5238,2.5238,2.5233,2.5233,2.5233,2.5353,2.5507,2.5578,2.5699,2.5992,2.6491,2.6836,2.6952,2.7278,2.7637,2.8021,2.8092,2.8145,2.8313,2.8205,2.7561,2.7644,2.7344,2.6866,2.6636,2.6417,2.5705,2.5665,2.5367,2.5185,2.4993,2.464,2.4422,2.4229,2.4164,2.4116,2.4096,2.4095,2.4056,2.3988,2.3919,2.385,2.3769,2.3746,2.3533,2.3135,2.2699,2.256,2.2412,2.2334,2.2265,2.2198,2.2084,2.1998,2.194,2.1851,2.1763,2.164,2.155,2.1459,2.1775,2.1794,2.1827,2.1809,2.1823,2.1835,2.1575,2.1522,2.1434,2.136,2.0467,1.9859,1.9332,1.9151,1.902,1.8903,1.8827,1.8679,1.8563,1.8447,1.8344,1.8288,1.8163,1.7935,1.7834,1.7733,1.7632,1.761,1.7432,1.7235,1.7089,1.6964,1.6829,1.6659,1.6337,1.5966,1.5834,1.5714,1.5603,1.5503,1.5379,2.5247,2.5306,2.5287,2.5229,2.5061,2.521,2.5129,2.4952,2.5111,2.5207,2.5279,2.5279,2.5279,2.5279,2.5274,2.5274,2.5293,2.5279,2.5356,2.5581,2.6042,2.6418,2.6783,2.7129,2.7451,2.7788,2.7879,2.7931,2.8148,2.8777,2.9033,2.9244,2.9453,2.9302,2.7992,2.7857,2.7789,2.7708,2.7676,2.749,2.7193,2.7053,2.6635,2.6193,2.5941,2.5589,2.5196,2.4971,2.4937,2.4892,2.4671,2.4625,2.457,2.4358,2.4238,2.4173,2.4107,2.4078,2.4036,2.3547,2.3295,2.3145,2.2963,2.2892,2.2871,2.2794,2.2694,2.2558,2.2517,2.2463,2.2361,2.2326,2.231,2.2396,2.2731,2.3009,2.3051,2.3042,2.3045,2.2949,2.3259,2.3453,2.3318,2.2951,2.1883,2.1044,2.0281,1.9917,1.9789,1.9603,1.9479,1.9472,1.9361,1.939,1.9305,1.9142,1.8984,1.8725,1.8703,1.8809,1.8683,1.8596,1.8358,1.7977,1.7773,1.7762,1.7518,1.7295,1.6968,1.6637,1.634,1.6188,1.61,1.6013,1.5891,2.5273,2.5293,2.5293,2.5293,2.5293,2.5293,2.5298,2.5303,2.5308,2.5308,2.5308,2.5308,2.5308,2.5308,2.5308,2.5327,2.5346,2.5327,2.5442,2.6197,2.6601,2.6967,2.7428,2.7871,2.8261,2.8588,2.8723,2.9044,2.9635,2.9769,2.989,3.0115,3.0315,3.0016,2.9615,2.941,2.9264,2.8676,2.8498,2.8288,2.7726,2.7641,2.7471,2.7065,2.6972,2.6695,2.6274,2.6089,2.6074,2.5955,2.5726,2.5456,2.5317,2.5096,2.4598,2.4527,2.4446,2.4338,2.4275,2.4027,2.3827,2.3624,2.344,2.3348,2.3301,2.3247,2.3168,2.3082,2.3003,2.2922,2.2859,2.3358,2.3486,2.3536,2.3816,2.4172,2.4305,2.4237,2.4197,2.4036,2.4159,2.4214,2.415,2.4163,2.335,2.2626,2.1921,2.1013,2.0684,2.0312,2.0098,2.0175,2.0189,2.0287,2.0314,2.0314,2.0364,2.0294,2.0278,2.037,2.0171,1.9717,1.9646,1.9474,1.899,1.8536,1.8289,1.8016,1.7651,1.7316,1.6989,1.6727,1.6599,1.6513,1.6405,2.5293,2.5303,2.5308,2.5308,2.5308,2.5308,2.5308,2.5308,2.5308,2.5308,2.5308,2.5308,2.5308,2.5308,2.5308,2.5596,2.5692,2.5769,2.6231,2.7005,2.739,2.7832,2.8242,2.8621,2.9179,2.9467,2.9583,2.989,3.0212,3.0346,3.0558,3.0827,3.1115,3.1328,3.1072,3.0676,2.9998,2.9525,2.941,2.9245,2.8836,2.8579,2.8386,2.8108,2.7918,2.7733,2.7468,2.7384,2.7374,2.7161,2.6863,2.647,2.6247,2.596,2.5525,2.5522,2.5481,2.5302,2.502,2.4901,2.4616,2.4019,2.3845,2.3725,2.3671,2.3576,2.3497,2.3429,2.3407,2.3561,2.3766,2.433,2.4492,2.4515,2.5059,2.5425,2.549,2.5426,2.5611,2.5432,2.5273,2.5199,2.5056,2.4979,2.4779,2.4197,2.3585,2.2666,2.1786,2.1393,2.113,2.1198,2.131,2.1497,2.1618,2.1647,2.1717,2.1821,2.1744,2.1634,2.1235,2.0766,2.0872,2.0851,2.0174,1.9586,1.9127,1.8776,1.8433,1.8024,1.7598,1.7344,1.7141,1.6973,1.6854,2.5308,2.5308,2.5308,2.5308,2.5308,2.5308,2.5308,2.5308,2.5308,2.5308,2.5308,2.5308,2.5308,2.5322,2.5346,2.5808,2.6428,2.6544,2.7178,2.7871,2.839,2.8838,2.9294,2.9775,2.9962,3.0192,3.0327,3.0269,3.0462,3.0885,3.125,3.1692,3.2218,3.2385,3.2071,3.1507,3.0822,3.0675,3.0388,3.0267,3.0011,2.9913,2.9452,2.9105,2.8865,2.8524,2.821,2.7964,2.7858,2.7703,2.7506,2.7418,2.733,2.7296,2.7291,2.7202,2.7075,2.6512,2.6049,2.5893,2.5544,2.4986,2.4532,2.424,2.3966,2.3894,2.3883,2.3927,2.3999,2.4386,2.4753,2.501,2.5282,2.5745,2.6388,2.6602,2.664,2.6801,2.7078,2.7057,2.6882,2.6739,2.6495,2.6351,2.5798,2.5514,2.4979,2.4562,2.3683,2.2875,2.2657,2.2568,2.2687,2.2803,2.2883,2.2908,2.3009,2.3118,2.2703,2.249,2.2109,2.1949,2.2019,2.1856,2.1199,2.0589,1.999,1.9564,1.9216,1.8802,1.8474,1.7869,1.7643,1.7391,1.7253,2.5308,2.5308,2.5308,2.5308,2.5308,2.5308,2.5308,2.5308,2.5308,2.5308,2.5308,2.5308,2.5327,2.5346,2.5942,2.6327,2.6774,2.728,2.8011,2.8626,2.9102,2.9525,2.9904,3.025,3.0385,3.0423,3.05,3.0769,3.1365,3.1737,3.216,3.2622,3.2987,3.3045,3.2872,3.2429,3.2269,3.1968,3.1591,3.1277,3.1021,3.0739,3.0297,3.0027,2.9839,2.9525,2.9363,2.9181,2.9171,2.9201,2.8662,2.84,2.8362,2.7861,2.7485,2.743,2.7339,2.7164,2.6989,2.6895,2.6641,2.6311,2.6106,2.5282,2.4718,2.4335,2.4458,2.4663,2.4819,2.519,2.5722,2.6068,2.6327,2.6815,2.7329,2.7509,2.7518,2.7543,2.7824,2.7721,2.7585,2.7417,2.7294,2.7051,2.6533,2.6469,2.6286,2.5883,2.5395,2.4509,2.4025,2.392,2.3876,2.3979,2.4092,2.4153,2.4277,2.4331,2.385,2.3544,2.3517,2.3402,2.3283,2.2862,2.2241,2.1478,2.0674,2.0376,2.0234,1.9934,1.9571,1.8802,1.8173,1.8004,1.788,2.5308,2.5308,2.5308,2.5308,2.5308,2.5308,2.5308,2.5308,2.5308,2.5308,2.5308,2.5308,2.5481,2.5885,2.6365,2.6948,2.7717,2.8145,2.8819,2.9448,2.9563,2.9923,3.0288,3.0423,3.0404,3.0481,3.0788,3.1212,3.1948,3.2872,3.343,3.3455,3.3641,3.3872,3.3968,3.3987,3.3962,3.3481,3.2917,3.2302,3.186,3.1552,3.1373,3.109,3.0948,3.0736,3.0631,3.0496,3.0233,3.0161,2.9494,2.9358,2.9306,2.8846,2.8629,2.8631,2.862,2.8374,2.8059,2.788,2.7646,2.7401,2.7269,2.6585,2.5995,2.5588,2.5668,2.5792,2.5868,2.6069,2.6669,2.722,2.7489,2.7784,2.8052,2.8303,2.8264,2.8174,2.8112,2.8014,2.7885,2.7707,2.7539,2.7371,2.7181,2.6967,2.6804,2.6605,2.6219,2.5629,2.5241,2.5103,2.506,2.5047,2.5149,2.5102,2.5069,2.5016,2.481,2.4619,2.4751,2.4446,2.3958,2.3648,2.3335,2.2503,2.1679,2.1514,2.1335,2.1,2.0618,2.0046,1.9362,1.8899,1.8797,2.5308,2.5308,2.5308,2.5308,2.5308,2.5308,2.5308,2.5308,2.5308,2.5308,2.5308,2.5404,2.589,2.6404,2.6948,2.7794,2.8506,2.905,2.9506,3.0365,3.0212,3.0327,3.0365,3.05,3.0731,3.0885,3.1308,3.1981,3.2429,3.341,3.4314,3.434,3.4911,3.5135,3.5038,3.5058,3.4981,3.475,3.3981,3.3244,3.3013,3.2897,3.2852,3.2575,3.212,3.1679,3.15,3.1072,3.0484,3.0438,3.0315,3.0294,3.0011,2.9944,2.993,2.9896,2.9736,2.9429,2.9038,2.8852,2.8453,2.8039,2.756,2.7619,2.7414,2.6599,2.6507,2.6773,2.6878,2.7185,2.7746,2.7929,2.8135,2.83,2.8481,2.8569,2.8523,2.8406,2.8304,2.8196,2.8056,2.7896,2.7792,2.7612,2.743,2.7276,2.7117,2.7023,2.6807,2.6404,2.6167,2.6013,2.5872,2.573,2.574,2.5697,2.5617,2.5567,2.5413,2.5259,2.5103,2.4826,2.4508,2.4168,2.3827,2.3435,2.2829,2.2625,2.2285,2.1873,2.1507,2.1207,2.0702,2.0174,1.974,2.5308,2.5308,2.5308,2.5308,2.5308,2.5308,2.5308,2.5308,2.5308,2.5346,2.5423,2.5962,2.6428,2.6851,2.7909,2.8742,2.9107,2.9717,3.0154,3.0365,3.0442,3.0596,3.0635,3.1115,3.1308,3.1654,3.2179,3.2949,3.3622,3.4526,3.5161,3.5161,3.55,3.55,3.55,3.55,3.5462,3.5423,3.5019,3.4269,3.3916,3.3256,3.2865,3.2878,3.2615,3.255,3.2428,3.23,3.214,3.2145,3.1532,3.0982,3.0317,3.0297,3.0259,3.0233,3.028,3.0068,2.9849,2.9653,2.9391,2.9364,2.9196,2.9261,2.8848,2.7723,2.7298,2.7652,2.7983,2.8349,2.8561,2.8625,2.8677,2.8765,2.8895,2.8864,2.8833,2.8726,2.8598,2.8412,2.8259,2.8144,2.806,2.7879,2.7686,2.7491,2.7293,2.7151,2.7103,2.6839,2.6623,2.6472,2.6368,2.6279,2.6241,2.6134,2.6007,2.586,2.5677,2.5562,2.5464,2.5123,2.4771,2.4549,2.4246,2.3865,2.3631,2.3565,2.3212,2.2714,2.2404,2.2121,2.2139,2.1779,2.1119,2.5308,2.5308,2.5308,2.5308,2.5308,2.5308,2.5308,2.5365,2.5692,2.5865,2.5923,2.6423,2.6967,2.7544,2.8742,2.9434,2.964,3.0135,3.0308,3.0423,3.0827,3.1,3.1327,3.1833,3.2083,3.2449,3.3122,3.3891,3.468,3.5084,3.5442,3.55,3.55,3.55,3.55,3.55,3.55,3.5481,3.55,3.5199,3.4718,3.425,3.4038,3.4038,3.3724,3.3544,3.3256,3.3134,3.2846,3.2794,3.2365,3.2102,3.1667,3.1577,3.1289,3.1008,3.0834,3.0635,3.0404,3.0293,3.0235,3.0209,3.0068,2.9831,2.9707,2.8724,2.8602,2.8895,2.881,2.9114,2.9002,2.9044,2.8983,2.8996,2.9435,2.9686,2.9873,3.0044,2.9649,2.9178,2.8968,2.8667,2.8481,2.8099,2.7911,2.7701,2.7509,2.7488,2.7409,2.7319,2.7091,2.6859,2.6708,2.6572,2.6451,2.6346,2.6257,2.6114,2.5934,2.5749,2.5581,2.5317,2.5045,2.4831,2.4609,2.439,2.4204,2.4094,2.3946,2.3489,2.3236,2.3033,2.3102,2.306,2.2446,2.5308,2.5308,2.5308,2.5308,2.5308,2.5308,2.5399,2.5615,2.625,2.6755,2.6986,2.7024,2.7871,2.8665,2.928,2.9813,3.0269,3.0635,3.0654,3.0904,3.1525,3.1737,3.2122,3.2622,3.3064,3.3526,3.4103,3.468,3.5327,3.55,3.55,3.55,3.55,3.55,3.55,3.55,3.55,3.55,3.55,3.55,3.5462,3.5481,3.5327,3.5096,3.4834,3.441,3.4103,3.3795,3.3314,3.3205,3.3205,3.2833,3.2634,3.2448,3.2231,3.1891,3.1744,3.1411,3.1053,3.091,3.0786,3.0636,3.0433,3.0361,3.0334,3.0254,3.0115,2.999,2.9908,2.9662,2.9563,2.9532,2.9454,2.9625,3.0152,3.0522,3.0825,3.1094,3.0579,3.0023,2.9723,2.9404,2.9057,2.8639,2.8397,2.8169,2.8003,2.7897,2.7844,2.7731,2.7576,2.7208,2.6908,2.6792,2.6657,2.6537,2.6415,2.631,2.615,2.5934,2.5731,2.5489,2.5278,2.5158,2.4926,2.4706,2.4564,2.4426,2.424,2.4051,2.3855,2.3607,2.3503,2.3462,2.3355,2.5308,2.5308,2.5308,2.5308,2.5308,2.5308,2.5692,2.6313,2.6544,2.7294,2.8261,2.8588,2.8915,2.9165,2.989,3.0385,3.0596,3.1038,3.1371,3.1621,3.2314,3.2583,3.2929,3.3545,3.4314,3.4737,3.4988,3.5269,3.55,3.55,3.5519,3.5577,3.5558,3.5558,3.5577,3.5635,3.5769,3.5808,3.5788,3.5788,3.5692,3.5635,3.55,3.5385,3.5346,3.525,3.5173,3.5096,3.5019,3.4808,3.4308,3.3705,3.3391,3.3192,3.2981,3.2795,3.2654,3.2429,3.2109,3.1941,3.1844,3.1905,3.1824,3.1836,3.1802,3.173,3.1571,3.134,3.1091,3.0481,3.0308,3.0371,3.0375,3.0883,3.1382,3.136,3.1474,3.1495,3.1261,3.0982,3.078,3.0555,3.036,3.0056,2.9901,2.9686,2.9517,2.9357,2.875,2.8423,2.8146,2.7745,2.7359,2.699,2.6876,2.6691,2.6554,2.6468,2.6345,2.6114,2.5879,2.5675,2.5505,2.5391,2.522,2.5025,2.4851,2.469,2.4508,2.4343,2.4261,2.4105,2.3967,2.3797,2.3631]},{"header":{"parameterUnit":"m.s-1","parameterCategory":1,"la1":31.0,"la2":29.5877,"lo1":-88.7671,"lo2":-86.6584,"dy":0.0162,"dx":0.0185,"nx":115,"ny":88,"refTime":"2023-08-21T18:00:00:Z","depth":0,"parameterNumber":3,"parameterNumberName":"V-component_of_WINDS"},"data":[0.0,0.0,0.0,0.0,0.0,0.0,0.0,0.0,0.0,0.0,0.0,0.0,0.0,0.0,0.0,0.0,0.0,0.0,0.0,0.0,0.0,0.0,0.0,0.0,0.0,0.0,0.0,0.0,0.0,0.0,0.0,0.0,0.0,0.0,0.0,0.0,0.0,0.0,0.0,0.0,0.0,0.0,0.0,0.0,0.0,0.0,0.0,0.0,0.0,0.0,0.0,0.0,0.0,0.0,0.0,0.0,0.0,0.0,0.0,0.0,0.0,0.0,0.0,0.0,0.0,0.0,0.0,0.0,0.0,0.0,0.0,0.0,0.0,0.0,0.0,0.0,0.0,0.0,0.0,0.0,0.0,0.0,0.0,0.0,0.0,0.0,0.0,0.0,0.0,0.0,0.0,0.0,0.0,0.0,0.0,0.0,0.0,0.0,0.0,0.0,0.0,0.0,0.0,0.0,0.0,0.0,0.0,0.0,0.0,0.0,0.0,0.0,0.0,0.0,0.0,0.0,0.0,0.0,0.0,0.0,0.0,0.0,0.0,0.0,0.0,0.0,0.0,0.0,0.0,0.0,0.0,0.0,0.0,0.0,0.0,0.0,0.0,0.0,0.0,0.0,0.0,0.0,0.0,0.0,0.0,0.0,0.0,0.0,0.0,0.0,0.0,0.0,0.0,0.0,0.0,0.0,0.0,0.0,0.0,0.0,0.0,0.0,0.0,0.0,0.0,0.0,0.0,0.0,0.0,0.0,0.0,0.0,0.0,0.0,0.0,0.0,0.0,0.0,0.0,0.0,0.0,0.0,0.0,0.0,0.0,0.0,0.0,0.0,0.0,0.0,0.0,0.0,0.0,0.0,0.0,0.0,0.0,0.0,0.0,0.0,0.0,0.0,0.0,0.0,0.0,0.0,0.0,0.0,0.0,0.0,0.0,0.0,0.0,0.0,0.0,0.0,0.0,0.0,0.0,0.0,0.0,0.0,0.0,0.0,0.0,0.0,0.0,0.0,0.0,0.0,0.0,0.0,0.0,0.0,0.0,0.0,0.0,0.0,0.0,0.0,0.0,0.0,0.0,0.0,0.0,0.0,0.0,0.0,0.0,0.0,0.0,0.0,0.0,0.0,0.0,0.0,0.0,0.0,0.0,0.0,0.0,0.0,0.0,0.0,0.0,0.0,0.0,0.0,0.0,0.0,0.0,0.0,0.0,0.0,0.0,0.0,0.0,0.0,0.0,0.0,0.0,0.0,0.0,0.0,0.0,0.0,0.0,0.0,0.0,0.0,0.0,0.0,0.0,0.0,0.0,0.0,0.0,0.0,0.0,0.0,0.0,0.0,0.0,0.0,0.0,0.0,0.0,0.0,0.0,0.0,0.0,0.0,0.0,0.0,0.0,0.0,0.0,0.0,0.0,0.0,0.0,0.0,0.0,0.0,0.0,0.0,0.0,0.0,0.0,0.0,0.0,0.0,0.0,0.0,0.0,0.0,0.0,0.0,0.0,0.0,0.0,0.0,0.0,0.0,0.0,0.0,0.0,0.0,0.0,0.0,0.0,0.0,0.0,0.0,0.0,0.0,0.0,0.0,0.0,0.0,0.0,0.0,0.0,0.0,0.0,0.0,0.0,0.0,0.0,0.0,0.0,0.0,0.0,0.0,0.0,0.0,0.0,0.0,0.0,0.0,0.0,0.0,0.0,0.0,0.0,0.0,0.0,0.0,0.0,0.0,0.0,0.0,0.0,0.0,0.0,0.0,0.0,0.0,0.0,0.0,0.0,0.0,0.0,0.0,0.0,0.0,0.0,0.0,0.0,0.0,0.0,0.0,0.0,0.0,0.0,0.0,0.0,0.0,0.0,0.0,0.0,0.0,0.0,0.0,0.0,0.0,0.0,0.0,0.0,0.0,0.0,0.0,0.0,0.0,0.0,0.0,0.0,0.0,0.0,0.0,0.0,0.0,0.0,0.0,0.0,0.0,0.0,0.0,0.0,0.0,0.0,0.0,0.0,0.0,0.0,0.0,0.0,0.0,0.0,0.0,0.0,0.0,0.0,0.0,0.0,0.0,0.0,0.0,0.0,0.0,0.0,0.0,0.0,0.0,0.0,0.0,0.0,0.0,0.0,0.0,0.0,0.0,0.0,0.0,0.0,0.0,0.0,0.0,0.0,0.0,0.0,0.0,0.0,0.0,0.0,0.0,0.0,0.0,0.0,0.0,0.0,0.0,0.0,0.0,0.0,0.0,0.0,0.0,0.0,0.0,0.0,0.0,0.0,0.0,0.0,0.0,0.0,0.0,0.0,0.0,0.0,0.0,0.0,0.0,0.0,0.0,0.0,0.0,0.0,0.0,0.0,0.0,0.0,0.0,0.0,0.0,0.0,0.0,0.0,0.0,0.0,0.0,0.0,0.0,0.0,0.0,0.0,0.0,0.0,0.0,0.0,0.0,0.0,0.0,0.0,0.0,0.0,0.0,0.0,0.0,0.0,0.0,0.0,0.0,0.0,0.0,0.0,0.0,0.0,0.0,0.0,0.0,0.0,0.0,0.0,0.0,0.0,0.0,0.0,0.0,0.0,0.0,0.0,0.0,0.0,0.0,0.0,0.0,0.0,0.0,0.0,0.0,0.0,0.0,0.0,0.0,0.0,0.0,0.0,0.0,0.0,0.0,0.0,0.0,0.0,0.0,0.0,0.0,0.0,0.0,0.0,0.0,0.0,0.0,0.0,0.0,0.0,0.0,0.0,0.0,0.0,0.0,0.0,0.0,0.0,0.0,0.0,0.0,0.0,0.0,0.0,0.0,0.0,0.0,0.0,0.0,0.0,0.0,0.0,0.0,0.0,0.0,0.0,0.0,0.0,0.0,0.0,0.0,0.0,0.0,0.0,0.0,0.0,0.0,0.0,0.0,0.0,0.0,0.0,0.0,0.0,0.0,0.0,0.0,0.0,0.0,0.0,0.0,0.0,0.0,0.0,0.0,0.0,0.0,0.0,0.0,0.0,0.0,0.0,0.0,0.0,0.0,0.0,0.0,0.0,0.0,0.0,0.0,0.0,0.0,0.0,0.0,0.0,0.0,0.0,0.0,0.0,0.0,0.0,0.0,0.0,0.0,0.0,0.0,0.0,0.0,0.0,0.0,0.0,0.0,0.0,0.0,0.0,0.0,0.0,0.0,0.0,0.0,0.0,0.0,0.0,0.0,0.0,0.0,0.0,0.0,0.0,0.0,0.0,0.0,0.0,0.0,0.0,0.0,0.0,0.0,0.0,0.0,0.0,0.0,0.0,0.0,0.0,0.0,0.0,0.0,0.0,0.0,0.0,0.0,0.0,0.0,0.0,0.0,0.0,0.0,0.0,0.0,0.0,0.0,0.0,0.0,0.0,0.0,0.0,0.0,0.0,0.0,0.0,0.0,0.0,0.0,0.0,0.0,0.0,0.0,0.0,0.0,0.0,0.0,0.0,0.0,0.0,0.0,0.0,0.0,0.0,0.0,0.0,0.0,0.0,0.0,0.0,0.0,0.0,0.0,0.0,0.0,0.0,0.0,0.0,0.0,0.0,0.0,0.0,0.0,0.0,0.0,0.0,0.0,0.0,0.0,0.0,0.0,0.0,0.0,0.0,0.0,0.0,0.0,0.0,0.0,0.0,0.0,0.0,0.0,0.0,0.0,0.0,0.0,0.0,0.0,0.0,0.0,0.0,0.0,0.0,0.0,0.0,0.0,0.0,0.0,0.0,0.0,0.0,0.0,0.0,0.0,0.0,0.0,0.0,0.0,0.0,0.0,0.0,0.0,0.0,0.0,0.0,0.0,0.0,0.0,0.0,0.0,0.0,0.0,0.0,0.0,0.0,0.0,0.0,0.0,0.0,0.0,0.0,0.0,0.0,0.0,0.0,0.0,0.0,0.0,0.0,0.0,0.0,0.0,0.0,0.0,0.0,0.0,0.0,0.0,0.0,0.0,0.0,0.0,0.0,0.0,0.0,0.0,0.0,0.0,0.0,0.0,0.0,0.0,0.0,0.0,0.0,0.0,0.0,0.0,0.0,0.0,0.0,0.0,0.0,0.0,0.0,0.0,0.0,0.0,0.0,0.0,0.0,0.0,0.0,0.0,0.0,0.0,0.0,0.0,0.0,0.0,0.0,0.0,0.0,0.0,0.0,0.0,0.0,0.0,0.0,0.0,0.0,0.0,0.0,0.0,0.0,0.0,0.0,0.0,0.0,0.0,0.0,0.0,0.0,0.0,0.0,0.0,0.0,0.0,0.0,0.0,0.0,0.0,3.0369,0.0,0.0,0.0,0.0,0.0,0.0,0.0,0.0,0.0,0.0,0.0,0.0,0.0,0.0,0.0,0.0,0.0,0.0,0.0,0.0,0.0,0.0,0.0,0.0,0.0,0.0,0.0,0.0,0.0,0.0,0.0,0.0,0.0,0.0,0.0,0.0,0.0,0.0,0.0,0.0,0.0,0.0,0.0,0.0,0.0,0.0,0.0,0.0,0.0,0.0,0.0,0.0,0.0,0.0,0.0,0.0,0.0,0.0,0.0,0.0,0.0,0.0,0.0,0.0,0.0,0.0,0.0,0.0,0.0,0.0,0.0,0.0,0.0,0.0,0.0,0.0,0.0,0.0,0.0,0.0,0.0,0.0,0.0,0.0,0.0,0.0,0.0,0.0,0.0,0.0,0.0,0.0,0.0,0.0,0.0,0.0,0.0,0.0,0.0,0.0,0.0,0.0,0.0,0.0,0.0,0.0,0.0,0.0,0.0,0.0,3.0425,3.046,3.0465,3.0451,3.0467,0.0,0.0,0.0,0.0,0.0,0.0,0.0,0.0,0.0,0.0,0.0,0.0,0.0,0.0,0.0,0.0,0.0,0.0,0.0,0.0,0.0,0.0,0.0,0.0,0.0,0.0,0.0,0.0,0.0,0.0,0.0,0.0,0.0,0.0,0.0,0.0,0.0,0.0,0.0,0.0,0.0,0.0,0.0,0.0,0.0,0.0,0.0,0.0,0.0,0.0,0.0,0.0,0.0,0.0,0.0,0.0,0.0,0.0,0.0,0.0,0.0,0.0,0.0,0.0,0.0,0.0,0.0,0.0,0.0,0.0,0.0,0.0,0.0,0.0,0.0,0.0,0.0,0.0,0.0,0.0,0.0,0.0,0.0,0.0,0.0,0.0,0.0,0.0,0.0,0.0,0.0,0.0,0.0,0.0,0.0,0.0,0.0,0.0,0.0,0.0,0.0,0.0,0.0,0.0,0.0,0.0,0.0,0.0,0.0,0.0,0.0,0.0,3.0542,3.0537,3.0542,0.0,0.0,0.0,0.0,0.0,0.0,0.0,0.0,0.0,0.0,0.0,0.0,0.0,0.0,0.0,0.0,0.0,0.0,0.0,0.0,0.0,0.0,0.0,0.0,0.0,0.0,0.0,0.0,0.0,0.0,0.0,0.0,0.0,0.0,0.0,0.0,0.0,0.0,0.0,0.0,0.0,0.0,0.0,0.0,0.0,0.0,0.0,0.0,0.0,0.0,0.0,0.0,0.0,0.0,0.0,0.0,0.0,0.0,0.0,0.0,0.0,0.0,0.0,0.0,0.0,0.0,0.0,0.0,0.0,0.0,0.0,0.0,0.0,0.0,0.0,0.0,0.0,0.0,0.0,0.0,0.0,0.0,0.0,0.0,0.0,0.0,0.0,0.0,0.0,0.0,0.0,0.0,0.0,0.0,0.0,0.0,0.0,0.0,0.0,0.0,0.0,0.0,0.0,0.0,0.0,0.0,0.0,0.0,0.0,0.0,3.0626,3.0681,3.0681,0.0,3.0681,0.0,0.0,0.0,0.0,0.0,0.0,0.0,0.0,0.0,0.0,0.0,0.0,0.0,0.0,0.0,0.0,0.0,0.0,0.0,0.0,0.0,0.0,0.0,0.0,0.0,0.0,0.0,0.0,0.0,0.0,0.0,0.0,0.0,0.0,0.0,0.0,0.0,0.0,0.0,0.0,0.0,0.0,0.0,0.0,0.0,0.0,0.0,0.0,0.0,0.0,0.0,0.0,0.0,0.0,0.0,0.0,0.0,0.0,0.0,0.0,0.0,0.0,0.0,0.0,0.0,0.0,0.0,0.0,0.0,0.0,0.0,0.0,0.0,0.0,0.0,0.0,0.0,0.0,0.0,0.0,0.0,0.0,0.0,0.0,0.0,0.0,0.0,0.0,0.0,0.0,0.0,0.0,0.0,0.0,0.0,0.0,0.0,0.0,0.0,0.0,0.0,0.0,0.0,0.0,0.0,0.0,0.0,0.0,0.0,0.0,3.0698,3.0762,3.0762,3.0762,0.0,0.0,0.0,0.0,0.0,0.0,0.0,0.0,0.0,0.0,0.0,0.0,0.0,0.0,0.0,0.0,0.0,0.0,0.0,0.0,0.0,0.0,0.0,0.0,0.0,0.0,0.0,0.0,0.0,0.0,0.0,0.0,0.0,0.0,0.0,0.0,0.0,0.0,0.0,0.0,0.0,0.0,0.0,0.0,0.0,0.0,0.0,0.0,0.0,0.0,0.0,0.0,0.0,0.0,0.0,0.0,0.0,0.0,0.0,0.0,0.0,0.0,0.0,0.0,0.0,0.0,0.0,0.0,0.0,0.0,0.0,0.0,0.0,0.0,0.0,0.0,0.0,0.0,0.0,0.0,0.0,0.0,0.0,0.0,0.0,0.0,0.0,0.0,0.0,0.0,0.0,0.0,0.0,0.0,0.0,0.0,0.0,0.0,0.0,0.0,0.0,0.0,0.0,0.0,0.0,0.0,0.0,0.0,0.0,0.0,3.0734,3.0747,3.0801,3.0799,3.0798,3.0798,0.0,0.0,0.0,0.0,0.0,0.0,0.0,0.0,0.0,0.0,0.0,0.0,0.0,0.0,0.0,0.0,0.0,0.0,0.0,0.0,0.0,0.0,0.0,0.0,0.0,0.0,0.0,0.0,0.0,0.0,0.0,0.0,0.0,0.0,0.0,0.0,0.0,0.0,0.0,0.0,0.0,0.0,0.0,0.0,0.0,0.0,0.0,0.0,0.0,0.0,0.0,0.0,0.0,0.0,0.0,0.0,0.0,0.0,0.0,0.0,0.0,0.0,0.0,0.0,0.0,0.0,0.0,0.0,0.0,0.0,0.0,0.0,0.0,0.0,0.0,0.0,0.0,0.0,0.0,0.0,0.0,0.0,0.0,0.0,0.0,0.0,0.0,0.0,0.0,0.0,0.0,0.0,0.0,0.0,0.0,0.0,0.0,0.0,0.0,0.0,0.0,0.0,0.0,0.0,0.0,0.0,0.0,0.0,3.08,3.0794,3.08,3.08,3.0801,3.0801,0.0,0.0,0.0,0.0,0.0,0.0,0.0,0.0,0.0,0.0,0.0,0.0,0.0,0.0,0.0,0.0,0.0,0.0,0.0,0.0,0.0,0.0,0.0,0.0,0.0,0.0,0.0,0.0,0.0,0.0,0.0,0.0,0.0,0.0,0.0,0.0,0.0,0.0,0.0,0.0,0.0,0.0,0.0,0.0,0.0,0.0,0.0,0.0,0.0,0.0,0.0,0.0,0.0,0.0,0.0,0.0,0.0,0.0,0.0,0.0,0.0,0.0,0.0,0.0,0.0,0.0,0.0,0.0,0.0,0.0,0.0,0.0,0.0,0.0,0.0,0.0,0.0,0.0,0.0,0.0,0.0,0.0,0.0,0.0,0.0,0.0,0.0,0.0,0.0,0.0,0.0,0.0,0.0,0.0,0.0,0.0,0.0,0.0,0.0,0.0,0.0,0.0,0.0,0.0,0.0,0.0,0.0,0.0,0.0,3.0799,3.077,3.0738,3.0728,3.0734,3.0738,0.0,0.0,0.0,0.0,0.0,0.0,0.0,0.0,0.0,0.0,0.0,0.0,0.0,0.0,0.0,0.0,0.0,0.0,0.0,0.0,0.0,0.0,0.0,0.0,0.0,0.0,0.0,0.0,0.0,0.0,0.0,0.0,0.0,0.0,0.0,0.0,0.0,0.0,0.0,0.0,0.0,0.0,0.0,0.0,0.0,0.0,0.0,0.0,0.0,0.0,0.0,0.0,0.0,0.0,0.0,0.0,0.0,0.0,0.0,0.0,0.0,0.0,0.0,0.0,0.0,0.0,0.0,0.0,0.0,0.0,0.0,0.0,0.0,0.0,0.0,0.0,0.0,0.0,0.0,0.0,0.0,0.0,0.0,0.0,0.0,0.0,0.0,0.0,0.0,0.0,0.0,0.0,0.0,0.0,0.0,0.0,0.0,0.0,0.0,0.0,0.0,0.0,0.0,0.0,0.0,0.0,0.0,0.0,0.0,3.0739,0.0,3.065,3.0652,3.065,3.0661,0.0,0.0,0.0,0.0,0.0,0.0,0.0,0.0,0.0,0.0,0.0,0.0,0.0,0.0,0.0,0.0,0.0,0.0,0.0,0.0,0.0,0.0,0.0,0.0,0.0,0.0,0.0,0.0,0.0,0.0,0.0,0.0,0.0,0.0,0.0,0.0,0.0,0.0,0.0,0.0,0.0,0.0,0.0,0.0,0.0,0.0,0.0,0.0,0.0,0.0,0.0,0.0,0.0,0.0,0.0,0.0,0.0,0.0,0.0,0.0,0.0,0.0,0.0,0.0,0.0,0.0,0.0,0.0,0.0,0.0,0.0,0.0,0.0,0.0,0.0,0.0,0.0,0.0,0.0,0.0,0.0,0.0,0.0,0.0,0.0,0.0,0.0,0.0,0.0,0.0,0.0,0.0,0.0,0.0,0.0,0.0,0.0,0.0,0.0,0.0,0.0,0.0,0.0,0.0,0.0,0.0,0.0,0.0,3.0662,3.061,3.064,3.0634,3.0535,3.0615,3.0633,0.0,0.0,0.0,0.0,0.0,0.0,0.0,0.0,0.0,0.0,0.0,0.0,0.0,0.0,0.0,0.0,0.0,0.0,0.0,0.0,0.0,0.0,0.0,0.0,0.0,0.0,0.0,0.0,0.0,0.0,0.0,0.0,0.0,0.0,0.0,0.0,0.0,0.0,0.0,0.0,0.0,0.0,0.0,0.0,0.0,0.0,0.0,0.0,0.0,0.0,0.0,0.0,0.0,0.0,0.0,0.0,0.0,0.0,0.0,0.0,0.0,0.0,0.0,0.0,0.0,0.0,0.0,0.0,0.0,0.0,0.0,0.0,0.0,0.0,0.0,0.0,0.0,0.0,0.0,0.0,0.0,0.0,0.0,0.0,0.0,0.0,0.0,0.0,0.0,0.0,0.0,0.0,0.0,0.0,0.0,0.0,0.0,0.0,0.0,0.0,0.0,0.0,0.0,0.0,0.0,0.0,0.0,0.0,0.0,3.1129,3.1104,3.1321,3.1762,3.1386,3.1161,0.0,0.0,0.0,0.0,0.0,0.0,0.0,0.0,0.0,0.0,0.0,0.0,0.0,0.0,0.0,0.0,0.0,0.0,0.0,0.0,0.0,0.0,0.0,0.0,0.0,0.0,0.0,0.0,0.0,0.0,0.0,0.0,0.0,0.0,0.0,0.0,0.0,0.0,0.0,0.0,0.0,0.0,0.0,0.0,0.0,0.0,0.0,0.0,0.0,0.0,0.0,0.0,0.0,0.0,0.0,0.0,0.0,0.0,0.0,0.0,0.0,0.0,0.0,0.0,0.0,0.0,0.0,0.0,0.0,0.0,0.0,0.0,0.0,0.0,0.0,0.0,0.0,0.0,0.0,0.0,0.0,0.0,0.0,0.0,0.0,0.0,0.0,0.0,0.0,0.0,0.0,0.0,0.0,0.0,0.0,0.0,0.0,0.0,0.0,0.0,0.0,0.0,0.0,0.0,0.0,0.0,0.0,0.0,0.0,3.0836,3.0713,3.0968,3.1693,3.1067,3.0898,3.1219,0.0,0.0,0.0,0.0,0.0,0.0,0.0,0.0,0.0,0.0,0.0,0.0,0.0,0.0,0.0,0.0,0.0,0.0,0.0,0.0,0.0,0.0,0.0,0.0,0.0,0.0,0.0,0.0,0.0,0.0,0.0,0.0,0.0,0.0,0.0,0.0,0.0,0.0,0.0,0.0,0.0,0.0,0.0,0.0,0.0,0.0,0.0,0.0,0.0,0.0,0.0,0.0,0.0,0.0,0.0,0.0,0.0,0.0,0.0,0.0,0.0,0.0,0.0,0.0,0.0,0.0,0.0,0.0,0.0,0.0,0.0,0.0,0.0,0.0,0.0,0.0,0.0,0.0,0.0,0.0,0.0,0.0,0.0,0.0,0.0,0.0,0.0,0.0,0.0,0.0,0.0,0.0,0.0,0.0,0.0,0.0,0.0,0.0,0.0,0.0,0.0,0.0,0.0,0.0,0.0,0.0,0.0,0.0,2.9862,2.9556,2.979,3.0634,2.999,3.0039,0.0,0.0,0.0,0.0,0.0,0.0,0.0,0.0,0.0,0.0,0.0,0.0,0.0,0.0,0.0,0.0,0.0,0.0,0.0,0.0,0.0,0.0,0.0,0.0,0.0,0.0,0.0,0.0,0.0,0.0,0.0,0.0,0.0,0.0,0.0,0.0,0.0,0.0,0.0,0.0,0.0,0.0,0.0,0.0,0.0,0.0,0.0,0.0,0.0,0.0,0.0,0.0,0.0,0.0,0.0,0.0,0.0,0.0,0.0,0.0,0.0,0.0,0.0,0.0,0.0,0.0,0.0,0.0,0.0,0.0,0.0,0.0,0.0,0.0,0.0,0.0,0.0,0.0,0.0,0.0,0.0,0.0,0.0,0.0,0.0,0.0,0.0,0.0,0.0,0.0,0.0,0.0,0.0,0.0,0.0,0.0,0.0,0.0,0.0,0.0,0.0,0.0,0.0,0.0,0.0,0.0,0.0,0.0,0.0,2.837,2.8242,2.9078,3.0864,3.0287,3.0098,0.0,0.0,0.0,0.0,0.0,0.0,0.0,0.0,0.0,0.0,0.0,0.0,0.0,0.0,0.0,0.0,0.0,0.0,0.0,0.0,0.0,0.0,0.0,0.0,0.0,0.0,0.0,0.0,0.0,0.0,0.0,0.0,0.0,0.0,0.0,0.0,0.0,0.0,0.0,0.0,0.0,0.0,0.0,0.0,0.0,0.0,0.0,0.0,0.0,0.0,0.0,0.0,0.0,0.0,0.0,0.0,0.0,0.0,0.0,0.0,0.0,0.0,0.0,0.0,0.0,0.0,0.0,0.0,0.0,0.0,0.0,0.0,0.0,0.0,0.0,0.0,0.0,0.0,0.0,0.0,0.0,0.0,0.0,0.0,0.0,0.0,0.0,0.0,0.0,0.0,0.0,0.0,0.0,0.0,0.0,0.0,0.0,0.0,0.0,0.0,0.0,0.0,0.0,0.0,0.0,0.0,0.0,0.0,2.7722,2.7378,2.7334,2.7949,2.9286,2.9211,2.9444,0.0,0.0,0.0,0.0,0.0,0.0,0.0,0.0,0.0,0.0,0.0,0.0,0.0,0.0,0.0,0.0,0.0,0.0,0.0,0.0,0.0,0.0,0.0,0.0,0.0,0.0,0.0,0.0,0.0,0.0,0.0,0.0,0.0,0.0,0.0,0.0,0.0,0.0,0.0,0.0,0.0,0.0,0.0,0.0,0.0,0.0,0.0,0.0,0.0,0.0,0.0,0.0,0.0,0.0,0.0,0.0,0.0,0.0,0.0,0.0,0.0,0.0,0.0,0.0,0.0,0.0,0.0,0.0,0.0,0.0,0.0,0.0,0.0,0.0,0.0,0.0,0.0,0.0,0.0,0.0,0.0,0.0,0.0,0.0,0.0,0.0,0.0,0.0,0.0,0.0,0.0,0.0,0.0,0.0,0.0,0.0,0.0,0.0,0.0,0.0,0.0,0.0,0.0,0.0,0.0,0.0,0.0,0.0,2.698,2.6674,2.6674,2.6657,2.6721,2.7477,2.8336,0.0,0.0,0.0,0.0,0.0,0.0,0.0,0.0,0.0,0.0,0.0,0.0,0.0,0.0,0.0,0.0,0.0,0.0,0.0,0.0,0.0,0.0,0.0,0.0,0.0,0.0,0.0,0.0,0.0,0.0,0.0,0.0,0.0,0.0,0.0,0.0,0.0,0.0,0.0,0.0,0.0,0.0,0.0,0.0,0.0,0.0,0.0,0.0,0.0,0.0,0.0,0.0,0.0,0.0,0.0,0.0,0.0,0.0,0.0,0.0,0.0,0.0,0.0,0.0,0.0,0.0,0.0,0.0,0.0,0.0,0.0,0.0,0.0,0.0,0.0,0.0,0.0,0.0,0.0,0.0,0.0,0.0,0.0,0.0,0.0,0.0,0.0,0.0,0.0,0.0,0.0,0.0,0.0,0.0,0.0,0.0,0.0,0.0,0.0,0.0,0.0,0.0,0.0,0.0,0.0,0.0,0.0,0.0,2.556,2.5783,2.5764,2.5592,2.5259,2.6565,2.7278,0.0,0.0,0.0,0.0,0.0,0.0,0.0,0.0,0.0,0.0,0.0,0.0,0.0,0.0,0.0,0.0,0.0,0.0,0.0,0.0,0.0,0.0,0.0,0.0,0.0,0.0,0.0,0.0,0.0,0.0,0.0,0.0,0.0,0.0,0.0,0.0,0.0,0.0,0.0,0.0,0.0,0.0,0.0,0.0,0.0,0.0,0.0,0.0,3.5555,0.0,0.0,0.0,0.0,0.0,0.0,0.0,0.0,0.0,0.0,0.0,0.0,0.0,0.0,0.0,0.0,0.0,0.0,0.0,0.0,0.0,0.0,0.0,0.0,0.0,0.0,0.0,0.0,0.0,0.0,0.0,0.0,0.0,0.0,0.0,0.0,0.0,0.0,0.0,0.0,0.0,0.0,0.0,0.0,0.0,0.0,0.0,0.0,0.0,0.0,0.0,0.0,0.0,0.0,0.0,0.0,0.0,0.0,0.0,2.3947,2.4023,2.402,2.3957,2.3804,2.4624,2.5292,0.0,0.0,0.0,0.0,0.0,0.0,0.0,0.0,0.0,0.0,0.0,0.0,0.0,0.0,0.0,0.0,0.0,0.0,0.0,0.0,0.0,0.0,0.0,0.0,0.0,0.0,0.0,0.0,0.0,0.0,0.0,0.0,0.0,0.0,0.0,0.0,0.0,0.0,0.0,0.0,0.0,0.0,0.0,0.0,0.0,0.0,0.0,0.0,0.0,0.0,0.0,0.0,0.0,0.0,0.0,0.0,0.0,0.0,0.0,0.0,0.0,0.0,0.0,0.0,0.0,0.0,0.0,0.0,0.0,0.0,0.0,0.0,0.0,0.0,0.0,0.0,0.0,0.0,0.0,0.0,0.0,0.0,0.0,0.0,0.0,0.0,0.0,0.0,0.0,0.0,0.0,0.0,0.0,0.0,0.0,0.0,0.0,0.0,0.0,0.0,0.0,0.0,0.0,0.0,0.0,0.0,0.0,2.2343,2.2359,2.224,2.2217,2.2216,2.2279,2.2465,2.2986,2.39,0.0,0.0,0.0,0.0,0.0,0.0,0.0,0.0,0.0,0.0,0.0,0.0,0.0,0.0,0.0,0.0,0.0,0.0,0.0,0.0,0.0,0.0,0.0,0.0,0.0,0.0,0.0,0.0,0.0,0.0,0.0,0.0,0.0,0.0,0.0,0.0,0.0,0.0,3.3698,3.3977,0.0,0.0,0.0,0.0,0.0,0.0,0.0,0.0,3.6903,0.0,0.0,0.0,0.0,0.0,0.0,0.0,0.0,0.0,0.0,0.0,0.0,0.0,0.0,0.0,0.0,0.0,0.0,0.0,0.0,0.0,0.0,0.0,0.0,0.0,0.0,0.0,0.0,0.0,0.0,0.0,0.0,0.0,0.0,0.0,0.0,0.0,0.0,0.0,0.0,0.0,0.0,0.0,0.0,0.0,0.0,0.0,0.0,0.0,0.0,0.0,0.0,0.0,0.0,0.0,0.0,2.1372,2.0985,2.1028,2.1475,2.1355,2.1129,2.0774,2.0948,2.1044,2.1078,0.0,0.0,0.0,0.0,0.0,0.0,0.0,0.0,0.0,0.0,0.0,0.0,0.0,0.0,0.0,0.0,0.0,0.0,0.0,0.0,0.0,0.0,0.0,0.0,0.0,0.0,0.0,0.0,0.0,0.0,0.0,0.0,0.0,0.0,0.0,0.0,0.0,0.0,0.0,3.4461,3.5007,0.0,0.0,0.0,0.0,0.0,0.0,0.0,0.0,3.6701,0.0,0.0,0.0,0.0,0.0,0.0,0.0,0.0,0.0,0.0,0.0,0.0,0.0,0.0,0.0,0.0,0.0,0.0,0.0,0.0,0.0,0.0,0.0,0.0,0.0,0.0,0.0,0.0,0.0,0.0,0.0,0.0,0.0,0.0,0.0,0.0,0.0,0.0,0.0,0.0,0.0,0.0,0.0,0.0,0.0,0.0,0.0,0.0,0.0,0.0,0.0,0.0,0.0,0.0,0.0,2.0152,1.9675,1.9487,1.9589,1.9597,1.9461,1.9237,1.9464,1.966,0.0,0.0,0.0,0.0,0.0,0.0,0.0,0.0,0.0,0.0,0.0,0.0,0.0,0.0,0.0,0.0,0.0,0.0,0.0,0.0,0.0,0.0,0.0,0.0,0.0,0.0,0.0,0.0,0.0,0.0,0.0,0.0,0.0,0.0,0.0,0.0,0.0,0.0,0.0,0.0,3.4093,3.4653,3.4858,0.0,0.0,0.0,0.0,0.0,0.0,3.5784,3.5849,0.0,0.0,0.0,0.0,0.0,0.0,0.0,0.0,0.0,0.0,0.0,0.0,0.0,0.0,0.0,0.0,0.0,0.0,0.0,0.0,0.0,0.0,0.0,0.0,0.0,0.0,0.0,0.0,0.0,0.0,0.0,0.0,0.0,0.0,0.0,0.0,0.0,0.0,0.0,0.0,0.0,0.0,0.0,0.0,0.0,0.0,0.0,0.0,0.0,0.0,0.0,0.0,0.0,0.0,0.0,1.902,1.8525,1.8147,1.7848,1.7895,1.7922,1.7887,1.8173,1.8525,0.0,0.0,0.0,0.0,0.0,0.0,0.0,0.0,0.0,0.0,0.0,0.0,0.0,0.0,0.0,0.0,0.0,0.0,0.0,0.0,0.0,0.0,0.0,0.0,0.0,0.0,0.0,0.0,0.0,0.0,0.0,0.0,0.0,0.0,0.0,0.0,0.0,0.0,0.0,0.0,0.0,3.4218,3.488,3.4619,0.0,0.0,0.0,0.0,3.447,3.4912,0.0,0.0,0.0,0.0,0.0,0.0,0.0,0.0,0.0,0.0,0.0,0.0,0.0,0.0,0.0,0.0,0.0,0.0,0.0,0.0,0.0,0.0,0.0,0.0,0.0,0.0,0.0,0.0,0.0,0.0,0.0,0.0,0.0,0.0,0.0,0.0,0.0,0.0,0.0,0.0,0.0,0.0,0.0,0.0,0.0,0.0,0.0,0.0,0.0,0.0,0.0,0.0,0.0,0.0,0.0,0.0,1.8403,1.7841,1.7455,1.7289,1.7136,1.706,1.7126,1.7333,1.7659,0.0,0.0,0.0,0.0,0.0,0.0,0.0,0.0,0.0,0.0,0.0,0.0,0.0,0.0,0.0,0.0,0.0,0.0,0.0,0.0,0.0,0.0,0.0,0.0,0.0,0.0,0.0,0.0,0.0,0.0,0.0,0.0,0.0,0.0,0.0,0.0,0.0,0.0,0.0,0.0,0.0,3.4387,3.4337,3.4408,3.4345,0.0,0.0,3.46,3.4361,3.4505,0.0,0.0,0.0,0.0,0.0,0.0,0.0,0.0,0.0,0.0,0.0,0.0,0.0,0.0,0.0,0.0,0.0,0.0,0.0,0.0,0.0,0.0,0.0,0.0,0.0,0.0,0.0,0.0,0.0,0.0,0.0,0.0,0.0,0.0,0.0,0.0,0.0,0.0,0.0,0.0,0.0,0.0,0.0,0.0,0.0,0.0,0.0,0.0,0.0,0.0,0.0,0.0,0.0,0.0,0.0,1.8408,1.7848,1.7276,1.685,1.6531,1.6436,1.638,1.6321,1.6523,1.682,0.0,0.0,0.0,0.0,0.0,0.0,0.0,0.0,0.0,0.0,0.0,0.0,0.0,0.0,0.0,0.0,0.0,0.0,0.0,0.0,0.0,0.0,0.0,0.0,0.0,0.0,0.0,0.0,0.0,0.0,0.0,0.0,0.0,0.0,0.0,0.0,0.0,0.0,0.0,0.0,0.0,0.0,3.3922,3.3603,0.0,0.0,0.0,3.3129,3.2918,0.0,0.0,0.0,0.0,0.0,0.0,0.0,0.0,0.0,0.0,0.0,0.0,0.0,0.0,0.0,0.0,0.0,0.0,0.0,0.0,0.0,0.0,0.0,0.0,0.0,0.0,0.0,0.0,0.0,0.0,0.0,0.0,0.0,0.0,0.0,0.0,0.0,0.0,0.0,0.0,0.0,0.0,0.0,0.0,0.0,0.0,0.0,0.0,0.0,0.0,0.0,0.0,0.0,0.0,0.0,0.0,0.0,1.7248,1.671,1.6228,1.5802,1.5724,1.5623,1.5545,1.5732,0.0,0.0,0.0,0.0,0.0,0.0,0.0,0.0,0.0,0.0,0.0,0.0,0.0,0.0,0.0,0.0,0.0,0.0,0.0,0.0,0.0,0.0,0.0,0.0,0.0,0.0,0.0,2.8273,0.0,0.0,0.0,0.0,0.0,0.0,0.0,0.0,0.0,0.0,0.0,0.0,0.0,0.0,3.2974,3.346,3.2812,3.2277,0.0,0.0,3.1526,3.1378,3.1402,3.1179,0.0,0.0,0.0,0.0,0.0,0.0,0.0,0.0,0.0,0.0,0.0,0.0,0.0,0.0,0.0,0.0,0.0,0.0,0.0,0.0,0.0,0.0,0.0,0.0,0.0,0.0,0.0,0.0,0.0,0.0,0.0,0.0,0.0,0.0,0.0,0.0,0.0,0.0,0.0,0.0,0.0,0.0,0.0,0.0,0.0,0.0,0.0,0.0,0.0,0.0,0.0,0.0,0.0,0.0,0.0,1.6573,1.5976,1.5501,1.5164,1.4915,1.4766,1.4766,1.5028,1.5333,0.0,0.0,0.0,0.0,0.0,0.0,0.0,0.0,0.0,0.0,0.0,0.0,0.0,0.0,0.0,0.0,0.0,0.0,0.0,0.0,0.0,0.0,0.0,0.0,0.0,0.0,0.0,0.0,0.0,0.0,0.0,0.0,0.0,0.0,0.0,0.0,0.0,0.0,0.0,0.0,0.0,3.2446,3.2737,3.2069,3.1426,0.0,0.0,3.0139,3.0101,2.9961,2.9682,2.9162,0.0,0.0,0.0,0.0,0.0,0.0,0.0,0.0,0.0,0.0,0.0,0.0,0.0,0.0,0.0,0.0,0.0,0.0,0.0,0.0,0.0,0.0,0.0,0.0,0.0,0.0,0.0,0.0,0.0,0.0,0.0,0.0,0.0,0.0,0.0,0.0,0.0,0.0,0.0,0.0,0.0,0.0,0.0,0.0,0.0,0.0,0.0,0.0,0.0,0.0,0.0,0.0,0.0,1.6752,1.6064,1.5389,1.488,1.4547,1.4222,1.4048,1.4152,1.4176,1.4398,0.0,0.0,0.0,0.0,0.0,0.0,0.0,0.0,0.0,0.0,0.0,0.0,0.0,0.0,0.0,0.0,0.0,0.0,0.0,0.0,0.0,0.0,0.0,0.0,0.0,0.0,0.0,0.0,2.7053,2.7061,2.7213,0.0,0.0,0.0,0.0,0.0,0.0,0.0,0.0,0.0,0.0,3.1937,3.1942,3.1169,0.0,0.0,2.9277,2.8727,2.8307,2.8307,2.8115,2.7433,2.7771,0.0,0.0,0.0,0.0,0.0,0.0,0.0,0.0,0.0,0.0,0.0,0.0,0.0,0.0,0.0,0.0,0.0,0.0,0.0,0.0,0.0,0.0,0.0,0.0,0.0,0.0,0.0,0.0,0.0,0.0,0.0,0.0,0.0,0.0,0.0,0.0,0.0,0.0,0.0,0.0,0.0,0.0,0.0,0.0,0.0,0.0,0.0,0.0,0.0,0.0,0.0,0.0,1.6267,1.5433,1.4755,1.4224,1.3826,1.3515,1.3358,1.3406,1.3372,1.3576,0.0,0.0,0.0,0.0,0.0,0.0,0.0,0.0,0.0,0.0,0.0,0.0,0.0,0.0,0.0,0.0,0.0,0.0,0.0,0.0,0.0,0.0,0.0,0.0,0.0,0.0,0.0,0.0,2.6672,2.6814,2.7052,0.0,0.0,0.0,0.0,0.0,0.0,0.0,0.0,0.0,0.0,3.1148,3.1077,3.0266,2.9381,2.8648,2.7983,2.7389,2.673,2.673,2.6617,2.6127,0.0,0.0,0.0,0.0,0.0,0.0,0.0,0.0,0.0,0.0,0.0,0.0,0.0,0.0,0.0,0.0,0.0,0.0,0.0,0.0,0.0,0.0,0.0,0.0,0.0,0.0,0.0,0.0,0.0,0.0,2.6739,0.0,0.0,0.0,0.0,0.0,0.0,0.0,0.0,0.0,0.0,0.0,0.0,0.0,0.0,0.0,0.0,0.0,0.0,0.0,0.0,0.0,0.0,1.5916,1.4558,1.4069,1.3563,1.304,1.2803,1.2642,1.2554,1.2711,1.2943,1.3218,0.0,0.0,0.0,0.0,0.0,0.0,0.0,0.0,0.0,0.0,0.0,0.0,0.0,0.0,0.0,0.0,0.0,0.0,0.0,0.0,0.0,0.0,0.0,0.0,0.0,0.0,2.6026,2.6355,2.6604,0.0,0.0,0.0,0.0,0.0,0.0,0.0,0.0,0.0,0.0,3.0515,3.0037,3.0024,2.9341,2.8474,2.7429,2.6682,2.606,2.5621,2.539,2.5274,0.0,0.0,0.0,0.0,0.0,0.0,0.0,0.0,0.0,0.0,0.0,0.0,0.0,0.0,0.0,0.0,0.0,0.0,0.0,0.0,0.0,0.0,0.0,0.0,0.0,0.0,0.0,2.8078,2.799,0.0,0.0,0.0,0.0,0.0,0.0,0.0,0.0,0.0,0.0,0.0,2.6554,2.6375,0.0,0.0,0.0,0.0,0.0,0.0,0.0,0.0,0.0,0.0,0.0,0.0,1.5537,1.4628,1.3635,1.2929,1.2525,1.2215,1.2002,1.1977,1.2042,1.2295,1.2793,0.0,0.0,0.0,0.0,0.0,0.0,0.0,0.0,0.0,0.0,0.0,0.0,0.0,0.0,0.0,0.0,0.0,0.0,0.0,0.0,0.0,0.0,0.0,0.0,0.0,2.5561,0.0,0.0,0.0,0.0,0.0,0.0,0.0,0.0,0.0,0.0,0.0,3.042,3.0385,3.0141,2.9845,2.9471,2.8661,2.781,0.0,0.0,0.0,0.0,0.0,0.0,0.0,0.0,0.0,0.0,0.0,0.0,0.0,0.0,2.8645,3.0197,3.0353,3.0269,3.0249,0.0,0.0,0.0,0.0,0.0,0.0,0.0,0.0,0.0,0.0,0.0,0.0,0.0,0.0,0.0,0.0,2.65,0.0,0.0,0.0,0.0,0.0,0.0,0.0,0.0,2.6062,2.5897,2.5646,2.5499,2.5104,0.0,2.3605,2.2963,0.0,0.0,0.0,0.0,0.0,0.0,0.0,0.0,1.5211,1.4347,1.317,1.2369,1.2026,1.1678,1.1469,1.1427,1.1528,1.1828,1.2338,1.2852,1.3386,0.0,0.0,0.0,0.0,0.0,0.0,0.0,0.0,0.0,0.0,0.0,0.0,0.0,0.0,0.0,0.0,0.0,0.0,0.0,0.0,0.0,0.0,0.0,2.53,0.0,0.0,0.0,0.0,0.0,0.0,0.0,0.0,0.0,2.958,3.0084,3.016,2.9594,2.9455,2.9189,2.8527,0.0,0.0,0.0,0.0,0.0,0.0,0.0,2.3355,2.326,2.3632,2.4252,2.5237,2.6001,2.6632,2.6898,0.0,0.0,2.9137,2.9215,2.8986,2.8912,2.8799,2.8692,2.8692,2.8364,2.7978,0.0,0.0,0.0,0.0,0.0,0.0,0.0,0.0,2.5547,2.5686,0.0,2.4931,0.0,0.0,0.0,0.0,0.0,0.0,0.0,0.0,2.4446,2.411,2.3618,2.3493,2.2968,2.216,2.1997,2.1415,2.0534,2.063,0.0,0.0,0.0,0.0,0.0,0.0,1.4892,1.3735,1.2654,1.1902,1.1502,1.1226,1.1023,1.0896,1.1124,1.1477,1.1852,1.215,1.2559,1.3136,1.3813,0.0,0.0,0.0,0.0,0.0,0.0,0.0,0.0,0.0,0.0,0.0,0.0,0.0,0.0,0.0,0.0,0.0,0.0,0.0,0.0,2.4872,0.0,0.0,0.0,0.0,0.0,0.0,0.0,0.0,0.0,0.0,2.8947,2.9337,2.9328,2.8694,0.0,0.0,0.0,0.0,2.5244,2.4035,2.3295,2.2717,2.206,2.1946,2.1987,2.2193,0.0,0.0,2.4256,2.4786,2.531,2.5927,2.6159,2.6788,2.8154,2.8068,2.7947,2.8382,2.8326,2.8346,2.8346,2.795,2.7699,2.2535,0.0,0.0,0.0,0.0,2.3279,2.3269,2.3386,2.3155,2.3231,2.343,2.2909,0.0,0.0,0.0,0.0,0.0,0.0,2.2506,2.2667,2.2185,2.1823,2.1713,2.1556,2.1312,2.09,2.0381,1.9932,1.9567,1.9015,1.8898,1.9172,0.0,0.0,0.0,0.0,1.4685,1.386,1.2533,1.1578,1.1074,1.082,1.0598,1.047,1.065,1.0871,1.1175,1.1628,1.2067,1.2491,1.3146,0.0,0.0,0.0,0.0,0.0,0.0,0.0,0.0,0.0,0.0,0.0,0.0,0.0,0.0,0.0,0.0,0.0,0.0,0.0,2.4749,2.4887,2.5129,0.0,0.0,0.0,0.0,0.0,0.0,0.0,0.0,0.0,2.8298,2.8657,2.8715,0.0,0.0,2.7496,2.6875,2.618,2.5294,2.4173,0.0,0.0,0.0,2.2091,2.1926,2.1967,2.2492,2.3032,2.3295,2.3966,2.455,2.4882,2.4939,2.5081,2.5494,2.5982,2.6154,2.5913,2.5804,2.5792,2.5769,2.5553,2.5263,1.963,2.0822,2.1532,2.1771,2.167,2.1296,2.1216,2.1328,2.093,2.0986,2.1337,2.0874,2.0797,2.0982,2.0529,0.0,0.0,0.0,2.0499,2.0659,2.0264,1.9947,1.9747,1.9673,1.9349,1.8813,1.843,1.8041,1.77,1.7095,1.7,1.733,0.0,0.0,1.6488,1.5141,1.4122,1.3391,1.2082,1.1175,1.0744,1.0437,1.0265,1.0187,1.0265,1.0437,1.0718,1.1091,1.1502,1.1909,1.2491,1.3088,0.0,0.0,0.0,0.0,0.0,0.0,0.0,0.0,0.0,0.0,0.0,2.3537,2.4217,0.0,0.0,0.0,2.452,2.4452,2.4937,2.5124,0.0,0.0,0.0,0.0,0.0,0.0,0.0,2.7146,2.7223,2.7247,2.7133,2.7216,2.7323,2.7421,2.7041,2.653,2.5791,0.0,2.3981,2.3107,2.2461,2.1904,2.1448,2.1144,2.0977,2.0968,2.1569,2.2024,2.223,2.2853,2.3399,2.361,2.3624,2.3567,2.3578,2.4018,2.4349,2.4259,2.419,2.4154,2.4143,2.3852,2.3489,1.6766,1.6908,1.8704,1.9383,1.9228,1.9153,1.917,1.9131,1.8787,1.8913,1.9316,1.8751,1.8588,1.8627,1.8176,0.0,1.8169,1.8319,1.8438,1.8526,1.8482,1.8228,1.7719,1.7708,1.7188,1.6229,1.6229,1.5924,1.5403,1.5117,1.5003,1.5007,1.6025,1.614,1.5359,1.4243,1.3279,1.2455,1.1413,1.0718,1.0437,1.0102,0.9947,0.9921,0.9947,1.0095,1.0411,1.0598,1.0896,1.1402,1.1859,1.2369,1.2895,0.0,0.0,0.0,0.0,0.0,0.0,0.0,0.0,0.0,0.0,0.0,0.0,0.0,0.0,0.0,2.4528,0.0,2.5045,2.5433,0.0,0.0,0.0,2.5843,2.524,2.5529,2.5733,2.5703,0.0,0.0,2.5785,0.0,2.5517,2.6163,2.5842,2.5232,2.4348,2.3087,2.1953,2.149,2.0864,2.0273,1.9959,1.9783,1.9766,1.9793,2.0156,2.0717,2.1081,2.1574,2.2012,2.2221,2.2248,2.2237,2.2248,2.2291,2.251,2.3169,2.3224,2.3147,2.3047,2.2731,2.2305,1.4851,1.4712,1.503,1.6057,1.7535,1.7222,1.7134,1.7071,1.6437,1.6221,1.6343,1.6213,1.6295,1.6554,1.6555,1.6658,1.6745,1.6625,1.6477,1.6351,1.5928,1.5543,1.5192,1.5182,1.5053,1.4807,1.4653,1.4503,1.4351,1.4191,1.4068,1.3963,1.3963,1.4101,1.4302,1.3215,1.2448,1.2061,1.1096,1.036,0.9829,0.9647,0.9491,0.9394,0.9595,0.9725,0.9803,1.018,1.0547,1.0871,1.1293,1.171,1.2157,1.2623,0.0,0.0,0.0,0.0,0.0,0.0,0.0,0.0,0.0,2.2336,2.3483,0.0,2.3593,0.0,2.4583,2.4764,2.4997,2.5106,0.0,0.0,2.5476,2.5641,2.5229,2.5765,2.6003,2.569,2.5782,2.5722,2.5307,2.518,2.5044,2.4843,2.4557,2.4174,2.3538,2.2822,2.2091,2.1398,2.0864,2.0502,2.0022,1.9867,1.9719,1.9759,2.002,2.0272,2.0344,2.0597,2.0824,2.086,2.0994,2.103,2.0917,2.0969,2.1087,2.1206,2.1641,2.1936,2.1496,2.1216,2.0922,1.2592,1.2421,1.2279,1.2971,1.4132,1.4577,1.476,1.4719,1.4304,1.4167,1.4244,1.4204,1.439,1.4711,1.4524,1.4549,1.4818,1.4521,1.44,1.4364,1.41,1.3836,1.3692,1.3692,1.3571,1.34,1.3276,1.3062,1.2725,1.2756,1.2661,1.2384,1.228,1.2351,1.2587,1.2175,1.1686,1.1151,1.0271,0.9645,0.9256,0.918,0.9085,0.9041,0.9264,0.9439,0.951,0.9758,1.0043,1.036,1.0667,1.1065,1.1594,1.1943,1.2378,0.0,0.0,0.0,0.0,0.0,0.0,0.0,0.0,0.0,0.0,0.0,2.3068,0.0,2.4205,2.4421,2.4593,2.4776,2.4742,2.4458,2.4876,2.4994,2.4536,2.4857,2.4979,2.4761,2.4516,2.427,2.4009,2.369,2.3326,2.2899,2.2683,2.2573,2.2501,2.1899,2.1127,2.038,1.9919,1.9521,1.9085,1.8792,1.8612,1.8696,1.916,1.9518,1.9528,2.0031,2.0374,2.0385,2.0492,2.0517,2.042,2.0492,2.0475,2.0274,2.0504,2.0757,2.0569,2.038,2.0088,1.0418,1.028,1.025,1.0232,1.0329,1.1546,1.2227,1.2444,1.2434,1.2461,1.2531,1.2461,1.2625,1.2987,1.2389,1.234,1.2728,1.2498,1.2457,1.2651,1.2598,1.2581,1.2537,1.2484,1.229,1.1955,1.1972,1.1619,1.0942,1.1155,1.1106,1.0785,1.0861,1.0831,1.0689,1.101,1.0801,1.0033,0.928,0.8841,0.8718,0.8693,0.8714,0.877,0.8997,0.9195,0.9335,0.9361,0.9543,0.9921,1.0069,1.0454,1.115,1.1343,1.181,0.0,1.3533,0.0,0.0,0.0,0.0,0.0,0.0,0.0,0.0,2.197,2.2437,2.3191,2.3372,2.3564,2.378,2.4131,2.4145,2.3748,2.3978,2.3979,2.3475,2.3381,2.3381,2.3368,2.283,2.248,2.2477,2.1879,2.1381,2.1223,2.1141,2.1148,2.1275,2.0715,1.9934,1.9025,1.8637,1.8435,1.802,1.7646,1.7458,1.7498,1.8187,1.8724,1.8744,1.9442,2.0072,2.0052,2.0024,2.0066,2.0104,2.0062,1.9972,1.9567,1.9515,1.9658,1.9883,1.9722,1.9399,0.9241,0.9114,0.8893,0.8813,0.8787,0.8797,0.9684,1.1082,1.0955,1.0814,1.0629,1.0453,1.063,1.1041,1.1007,1.1184,1.1448,1.1583,1.153,1.1339,1.108,1.0794,1.054,1.027,1.0105,1.0031,1.0157,1.0129,0.9964,1.0071,1.0079,1.0012,0.9861,0.9706,0.9534,0.0,0.0,0.0,0.866,0.8361,0.8249,0.8242,0.8317,0.8489,0.865,0.0,0.9066,0.9185,0.9368,0.9666,0.9795,0.0,0.0,0.0,0.0,0.0,0.0,0.0,0.0,0.0,0.0,0.0,1.771,1.8552,1.9867,2.0458,2.0967,2.1379,2.1538,2.1782,2.2186,2.2304,2.2357,2.2352,2.2457,2.2429,2.2326,2.2311,2.2229,2.2064,2.1947,2.184,2.1744,2.1571,2.1412,2.1126,2.1131,2.0835,2.0237,1.9919,1.9568,1.9119,1.8641,1.8332,1.813,1.8017,1.7892,1.806,1.8112,1.8312,1.8354,1.8449,1.8659,1.8702,1.8596,1.868,1.868,1.8628,1.8638,1.8344,1.8312,1.8404,1.8946,1.8667,1.8161,0.7824,0.0,0.7458,0.741,0.0,0.734,0.7861,0.8748,0.9075,0.9242,0.9249,0.9223,0.9463,0.9904,0.9875,1.0059,1.0394,1.0267,1.0211,1.019,0.9874,0.9649,0.9557,0.9385,0.9298,0.9298,0.9375,0.9318,0.9167,0.9357,0.938,0.9212,0.9258,0.9206,0.9036,0.8647,0.852,0.8663,0.8201,0.7932,0.7863,0.784,0.7862,0.7946,0.0,0.0,0.0,0.0,0.0,0.0,0.0,0.0,0.0,0.0,0.0,1.1678,1.2392,1.3093,1.3812,1.4732,1.5533,1.6265,1.6819,1.7767,1.9141,1.9737,2.0216,2.0615,2.0775,2.1031,2.1506,2.1534,2.1589,2.1716,2.1744,2.1759,2.1827,2.1841,2.1827,2.1788,2.1557,2.1392,2.131,2.1004,2.0784,2.0613,2.0307,1.9911,1.9383,1.9448,1.9367,1.8657,1.8267,1.8006,1.7861,1.7765,1.7696,1.7707,1.79,1.804,1.8051,1.8244,1.8405,1.8375,1.8405,1.8416,1.8405,1.8405,1.8375,1.8272,1.8201,1.8225,1.8532,1.811,1.7585,0.6538,0.6224,0.6224,0.6224,0.625,0.6421,0.6529,0.6595,0.0,0.0,0.0,0.8259,0.8564,0.8937,0.8792,0.8984,0.9373,0.9004,0.895,0.9187,0.8885,0.8798,0.8883,0.8875,0.8853,0.8853,0.8837,0.8683,0.8422,0.8659,0.8643,0.8404,0.8643,0.8723,0.8633,0.8173,0.8077,0.8374,0.7852,0.7557,0.755,0.7499,0.7504,0.7551,0.8021,0.8337,0.8445,0.8771,0.9025,0.9237,0.9368,0.9673,1.0213,1.0419,1.0845,1.1536,1.2089,1.2693,1.3362,1.4133,1.481,1.5328,1.6175,1.7252,1.8618,1.9098,1.9524,1.9968,2.0156,2.0427,2.0872,2.0955,2.1011,2.1179,2.1219,2.1262,2.1371,2.1439,2.1404,2.1422,2.104,2.0784,2.0643,2.0245,1.9951,1.9774,1.9395,1.8882,1.8697,1.8875,1.8755,1.7959,1.7675,1.754,1.7377,1.723,1.7131,1.7115,1.7384,1.7658,1.7707,1.7969,1.8211,1.8079,1.8287,1.8309,1.8353,1.8393,1.8495,1.8477,1.8376,1.8316,1.8216,1.7791,1.7256,0.5848,0.5555,0.5521,0.5555,0.5574,0.5688,0.582,0.5971,0.6667,0.706,0.7198,0.7273,0.7417,0.7584,0.7685,0.7904,0.8217,0.817,0.8262,0.0,0.824,0.8134,0.8135,0.7975,0.7886,0.7892,0.7769,0.7691,0.7662,0.7593,0.7534,0.7491,0.7475,0.7575,0.7671,0.7609,0.7737,0.8046,0.7645,0.7419,0.744,0.7419,0.7523,0.7752,0.7849,0.8147,0.8654,0.8716,0.8938,0.9347,0.951,0.9725,1.0025,1.0445,1.082,1.1175,1.1672,1.228,1.2955,1.3442,1.403,1.4848,1.572,1.6573,1.7437,1.7801,1.8119,1.8412,1.8748,1.9042,1.9432,1.964,1.9811,2.0048,2.0153,2.0231,2.0244,2.0347,2.0284,1.9912,1.9781,1.9636,1.9298,1.9188,1.9196,1.9071,1.9009,1.8799,1.8456,1.7983,1.7576,1.7293,1.7207,1.707,1.6998,1.6816,1.6809,1.6604,1.6729,1.6914,1.6925,1.699,1.7069,1.6888,1.7345,1.7539,1.7561,1.7868,1.8068,1.8069,1.8002,1.7946,1.784,1.7296,1.6858,0.5535,0.5254,0.5247,0.5251,0.5235,0.5314,0.5419,0.5557,0.5822,0.6122,0.6387,0.6478,0.6674,0.6944,0.713,0.7413,0.7743,0.7656,0.7767,0.7978,0.7588,0.7474,0.7549,0.7378,0.7262,0.7267,0.7228,0.7246,0.7261,0.7207,0.7201,0.7245,0.7209,0.7248,0.7332,0.7329,0.7428,0.7571,0.763,0.7683,0.767,0.753,0.7518,0.7652,0.7749,0.7906,0.8191,0.8592,0.8955,0.9282,0.9559,0.9836,1.0162,1.0488,1.082,1.1099,1.1519,1.2034,1.2535,1.3284,1.4042,1.4762,1.5384,1.594,1.6443,1.7219,1.781,1.8084,1.8398,1.8801,1.9239,1.9098,1.9105,1.9447,1.9269,1.9227,1.936,1.9457,1.9473,1.9368,1.9446,1.9364,1.9123,1.9175,1.9278,1.9252,1.8994,1.853,1.8083,1.7663,1.7453,1.7495,1.7521,1.7448,1.7254,1.7242,1.7205,1.7181,1.7156,1.7145,1.7156,1.7145,1.7145,1.7156,1.737,1.7489,1.7513,1.7691,1.7831,1.7804,1.7727,1.765,1.7475,1.7068,1.6606,0.5414,0.5124,0.5082,0.5046,0.5053,0.5054,0.5152,0.5289,0.5233,0.545,0.5816,0.5992,0.6207,0.652,0.6812,0.7108,0.7319,0.7215,0.7318,0.7545,0.7075,0.6958,0.709,0.6996,0.6949,0.6959,0.6996,0.7021,0.7058,0.7048,0.7069,0.7138,0.7147,0.7188,0.726,0.7268,0.7308,0.7402,0.7741,0.7913,0.7881,0.7662,0.7596,0.767,0.781,0.7909,0.798,0.8515,0.8931,0.9165,0.9577,0.9936,1.0199,1.0576,1.0896,1.115,1.1519,1.1952,1.2416,1.3278,1.4018,1.4491,1.5026,1.5433,1.5727,1.6755,1.7537,1.7752,1.8067,1.8498,1.8825,1.8708,1.8647,1.9013,1.8765,1.8714,1.8927,1.8996,1.9044,1.9222,1.9279,1.927,1.9214,1.9282,1.9336,1.9261,1.8911,1.8364,1.7875,1.7781,1.7887,1.7945,1.7928,1.7727,1.7626,1.7588,1.7553,1.7604,1.7554,1.748,1.7492,1.7554,1.7579,1.7529,1.7655,1.7729,1.7778,1.7903,1.799,1.8028,1.8005,1.7774,1.746,1.7183,1.6645,0.5462,0.5257,0.5029,0.487,0.4869,0.4915,0.5105,0.53,0.5235,0.5344,0.5691,0.6,0.6203,0.6291,0.659,0.682,0.695,0.6752,0.6827,0.7045,0.6819,0.6801,0.6939,0.7021,0.7111,0.7128,0.7067,0.7015,0.7032,0.6921,0.6877,0.6928,0.6981,0.7179,0.7444,0.7487,0.761,0.7921,0.7972,0.7923,0.7818,0.7803,0.7882,0.8147,0.8136,0.8255,0.8406,0.8497,0.8678,0.9027,0.9571,0.9904,1.001,1.0648,1.1116,1.1267,1.1678,1.2175,1.2774,1.3206,1.3546,1.3741,1.4625,1.5184,1.5355,1.618,1.6697,1.6848,1.7236,1.7714,1.7909,1.8077,1.8325,1.8711,1.876,1.8937,1.9082,1.9274,1.9244,1.8963,1.903,1.8907,1.8656,1.8739,1.8841,1.9038,1.8967,1.8772,1.8581,1.8597,1.863,1.8466,1.8038,1.7625,1.7492,1.7371,1.7481,1.7405,1.731,1.741,1.7483,1.7436,1.7276,1.7674,1.7752,1.7991,1.812,1.8326,1.8623,1.8523,1.8491,1.8415,1.7788,1.7546,1.718,0.5687,0.5473,0.5347,0.5318,0.5287,0.5314,0.5457,0.5645,0.5568,0.5765,0.6145,0.6477,0.651,0.6321,0.6578,0.6751,0.6834,0.6826,0.6888,0.6921,0.6767,0.6766,0.6888,0.69,0.695,0.7023,0.7032,0.7111,0.7185,0.7242,0.7309,0.7373,0.7432,0.7541,0.7662,0.7672,0.775,0.7869,0.7847,0.7913,0.8086,0.8127,0.8163,0.8213,0.8387,0.8544,0.8614,0.8741,0.8901,0.9126,0.9537,0.9832,0.9902,1.0592,1.1049,1.1204,1.1932,1.2569,1.3045,1.343,1.3729,1.3952,1.4501,1.4986,1.5279,1.5812,1.6208,1.643,1.7039,1.7617,1.801,1.797,1.8019,1.8397,1.8345,1.8326,1.8566,1.8776,1.8803,1.8743,1.8948,1.9006,1.8855,1.8993,1.918,1.931,1.9328,1.9314,1.9299,1.9354,1.9391,1.9325,1.9089,1.8698,1.8255,1.8145,1.8125,1.8086,1.808,1.808,1.808,1.8094,1.8094,1.8086,1.8294,1.8425,1.8418,1.8535,1.8748,1.8783,1.8651,1.8438,1.8119,1.7989,1.771,0.6377,0.6149,0.6096,0.6005,0.5937,0.5958,0.6108,0.6286,0.6265,0.6516,0.6938,0.71,0.71,0.6963,0.6894,0.6881,0.6905,0.6938,0.6999,0.7029,0.6883,0.6917,0.7068,0.7055,0.711,0.7211,0.7338,0.7467,0.7647,0.7835,0.7945,0.8017,0.8088,0.8142,0.8117,0.8117,0.8117,0.8142,0.8064,0.817,0.8444,0.8721,0.8738,0.8517,0.8821,0.899,0.8958,0.9056,0.9186,0.9279,0.9602,0.9849,0.9978,1.0559,1.108,1.148,1.2216,1.2936,1.3375,1.381,1.4116,1.4385,1.4743,1.5108,1.5491,1.5834,1.6141,1.6523,1.7092,1.7664,1.787,1.7819,1.7904,1.8269,1.8072,1.8062,1.842,1.8592,1.876,1.8903,1.9205,1.9369,1.9479,1.9678,1.9856,2.003,2.0048,2.005,2.0106,2.016,2.0213,2.0249,2.0283,1.9958,1.924,1.9037,1.9055,1.9093,1.9093,1.9126,1.9126,1.9107,1.9107,1.9096,1.9111,1.9122,1.9195,1.918,1.9169,1.9089,1.9029,1.894,1.8879,1.8708,1.8535,0.7643,0.748,0.7325,0.7082,0.6787,0.6922,0.7077,0.7321,0.7412,0.7659,0.8,0.7952,0.8038,0.8213,0.7651,0.7217,0.7101,0.7015,0.7165,0.7425,0.7231,0.7259,0.7563,0.7647,0.7772,0.7968,0.8058,0.8227,0.8459,0.864,0.8761,0.8775,0.8903,0.896,0.8973,0.896,0.8946,0.896,0.8892,0.8844,0.8903,0.9598,0.9756,0.9325,0.9552,0.9717,0.9579,0.9507,0.9495,0.9506,0.9882,1.0098,1.0164,1.062,1.1333,1.2178,1.2574,1.3096,1.3867,1.435,1.4674,1.4903,1.5333,1.5724,1.6144,1.6392,1.6723,1.7115,1.7442,1.7549,1.7508,1.7737,1.795,1.8337,1.8439,1.8649,1.9026,1.9147,1.9332,1.9588,1.9791,2.0041,2.0365,2.0497,2.0631,2.078,2.0845,2.0861,2.0943,2.1054,2.1117,2.1164,2.1212,2.1086,2.0217,1.9993,2.0028,2.008,2.0114,2.0129,2.0129,2.0112,2.0129,2.0129,2.0131,2.0131,2.0129,2.0129,2.0129,2.0114,2.0114,2.0028,1.9908,1.9851,1.9659,0.8927,0.8822,0.8741,0.8651,0.8536,0.8668,0.8779,0.8927,0.9167,0.9257,0.9208,0.9306,0.9207,0.89,0.8776,0.8319,0.7732,0.7745,0.7822,0.7895,0.7953,0.8096,0.8308,0.8493,0.8676,0.8842,0.9002,0.9205,0.9444,0.9574,0.9676,0.9754,0.9868,0.9919,0.997,0.9957,0.9945,0.9907,0.9818,0.9766,0.9801,1.0624,1.0966,1.0697,1.0723,1.0686,1.0514,1.0447,1.037,1.0273,1.039,1.0488,1.0557,1.1114,1.1785,1.2495,1.3117,1.3718,1.4294,1.4902,1.5355,1.5666,1.6039,1.6454,1.6808,1.7152,1.7497,1.7868,1.8181,1.8344,1.8447,1.8369,1.8442,1.8812,1.9053,1.9262,1.9573,1.9823,2.0052,2.0294,2.0534,2.0879,2.1149,2.1306,2.1384,2.1568,2.1643,2.1702,2.1776,2.1845,2.1929,2.2031,2.2088,2.2071,2.1947,2.1301,2.1054,2.1086,2.1117,2.1149,2.1164,2.1132,2.1147,2.1131,2.1147,2.1163,2.1147,2.1146,2.1147,2.1131,2.1147,2.1084,2.1006,2.0911,2.075,1.0658,1.0584,1.0555,1.0563,1.0609,1.0704,1.0822,1.0929,1.0963,1.0906,1.0771,1.0658,1.035,1.0036,1.0054,0.9766,0.9097,0.8869,0.8707,0.8703,0.8937,0.9152,0.9315,0.9549,0.9729,0.9894,1.0106,1.0313,1.0505,1.0623,1.0731,1.0826,1.0882,1.0954,1.1011,1.1034,1.0974,1.0905,1.0836,1.0884,1.1144,1.1884,1.2371,1.2452,1.2505,1.2195,1.159,1.1483,1.1383,1.1242,1.1204,1.1167,1.1258,1.1676,1.2223,1.2807,1.3449,1.418,1.4833,1.5447,1.6028,1.654,1.6946,1.7291,1.7652,1.804,1.8394,1.8703,1.9006,1.9303,1.9522,1.9471,1.9416,1.9558,1.9734,1.9952,2.0248,2.0566,2.0846,2.1117,2.1425,2.1709,2.1946,2.2029,2.2158,2.2283,2.2395,2.2489,2.2556,2.2656,2.2729,2.2818,2.2875,2.2961,2.2921,2.2582,2.2163,2.2126,2.2049,2.2096,2.211,2.211,2.211,2.211,2.2124,2.2155,2.2152,2.2166,2.2149,2.2135,2.2129,2.2078,2.1998,2.1947,2.1769,1.2826,1.283,1.2822,1.2858,1.2935,1.2938,1.3087,1.3092,1.2701,1.255,1.2423,1.1829,1.1538,1.1511,1.1384,1.1313,1.1107,1.0316,0.9894,0.9944,1.013,1.0362,1.06,1.0745,1.0915,1.1138,1.1373,1.1527,1.1614,1.178,1.1882,1.1917,1.1982,1.2026,1.2118,1.2097,1.2057,1.2018,1.2009,1.2298,1.2877,1.3424,1.3935,1.44,1.4804,1.431,1.2898,1.2711,1.2548,1.2372,1.2248,1.2199,1.2247,1.2372,1.265,1.3269,1.3662,1.4462,1.5531,1.6067,1.6745,1.7498,1.7953,1.8308,1.8693,1.9047,1.9343,1.9633,1.9886,2.0148,2.05,2.0732,2.0732,2.033,2.0483,2.0749,2.107,2.1351,2.17,2.2088,2.2347,2.2512,2.263,2.2767,2.29,2.2998,2.3106,2.3218,2.3287,2.3365,2.3476,2.352,2.3577,2.3635,2.3741,2.3806,2.3454,2.3182,2.3011,2.2956,2.2963,2.2945,2.294,2.2952,2.2958,2.2988,2.2976,2.2988,2.3,2.3,2.3018,2.3,2.2911,2.2821,2.2795,1.5133,1.5148,1.5133,1.5175,1.5241,1.5294,1.5062,1.4627,1.4529,1.4093,1.3414,1.3138,1.2909,1.2687,1.2657,1.2689,1.2681,1.2371,1.1901,1.1347,1.1417,1.1595,1.178,1.196,1.2158,1.2417,1.2589,1.2695,1.2764,1.2874,1.2966,1.299,1.3014,1.3071,1.3118,1.3136,1.3104,1.3098,1.3574,1.3939,1.418,1.5111,1.5708,1.584,1.6293,1.6163,1.5515,1.4497,1.3866,1.3671,1.3519,1.3415,1.3411,1.3528,1.3702,1.3948,1.4586,1.5355,1.6281,1.7015,1.7804,1.8644,1.9104,1.9429,1.9781,2.0114,2.0404,2.0684,2.0911,2.1162,2.1484,2.1751,2.1678,2.1165,2.1305,2.1577,2.1929,2.2289,2.2622,2.2923,2.3082,2.3229,2.3395,2.3516,2.3584,2.3671,2.3792,2.389,2.3929,2.4026,2.4137,2.4183,2.4235,2.4273,2.4331,2.4388,2.4215,2.3953,2.3811,2.3678,2.3715,2.3725,2.3717,2.3737,2.3757,2.3769,2.376,2.378,2.3781,2.378,2.3752,2.3742,2.3731,2.3682,2.3606,1.7103,1.7095,1.7095,1.7118,1.7157,1.7211,1.6764,1.6088,1.5892,1.5211,1.4374,1.4038,1.3841,1.3626,1.3697,1.3742,1.3748,1.3854,1.3513,1.2878,1.2681,1.2773,1.2919,1.3106,1.3284,1.3478,1.3596,1.3679,1.3748,1.3768,1.3847,1.3901,1.3913,1.3936,1.3976,1.3983,1.4057,1.4404,1.4904,1.5388,1.5946,1.6689,1.7217,1.7409,1.7692,1.7713,1.7443,1.6484,1.565,1.514,1.4856,1.472,1.4689,1.4825,1.49,1.509,1.5766,1.6629,1.7394,1.8251,1.9118,1.9968,2.0358,2.0606,2.091,2.1223,2.1497,2.1732,2.1945,2.218,2.2452,2.265,2.2615,2.2444,2.2329,2.247,2.2808,2.3182,2.3425,2.3616,2.379,2.3911,2.4035,2.4155,2.4208,2.4304,2.4387,2.4487,2.45,2.4584,2.4669,2.4733,2.4745,2.4791,2.4885,2.4921,2.4918,2.4727,2.4523,2.4398,2.4348,2.4337,2.4345,2.4359,2.4382,2.4403,2.4399,2.4452,2.4467,2.4474,2.4429,2.4471,2.446,2.4403,2.4342,1.8628,1.8639,1.8625,1.853,1.8526,1.8512,1.8039,1.74,1.6678,1.592,1.5213,1.4519,1.4261,1.4299,1.4302,1.4349,1.4484,1.4446,1.4418,1.4202,1.3928,1.3738,1.3892,1.4026,1.4147,1.425,1.4337,1.4414,1.4403,1.4436,1.456,1.4542,1.4635,1.4693,1.4759,1.4731,1.5223,1.5818,1.6063,1.6778,1.7875,1.8107,1.8402,1.8989,1.8916,1.8815,1.865,1.8323,1.7641,1.6583,1.6182,1.6089,1.6109,1.6167,1.6189,1.6247,1.7146,1.7965,1.8768,1.9628,2.055,2.1374,2.1663,2.1866,2.2078,2.231,2.2539,2.2723,2.2923,2.3128,2.3332,2.351,2.3686,2.384,2.345,2.3393,2.3779,2.3997,2.4118,2.4242,2.4416,2.4548,2.4535,2.4646,2.4735,2.4802,2.4848,2.4896,2.4948,2.5004,2.5105,2.513,2.5129,2.5149,2.519,2.519,2.5193,2.5143,2.4994,2.4912,2.4851,2.4852,2.4856,2.4893,2.4891,2.4933,2.4968,2.496,2.4976,2.4938,2.4982,2.5098,2.5074,2.4952,2.4897,1.9041,1.9041,1.9004,1.8965,1.8943,1.8862,1.8385,1.7668,1.685,1.6075,1.5336,1.4601,1.4324,1.4323,1.4397,1.4437,1.4469,1.4506,1.4521,1.45,1.4335,1.4367,1.4535,1.4614,1.4681,1.4714,1.4813,1.4759,1.4728,1.4832,1.4836,1.4839,1.539,1.5684,1.5762,1.6249,1.6738,1.707,1.7611,1.7991,1.8499,1.9087,1.949,1.9635,1.9587,1.9531,1.9484,1.9323,1.8709,1.769,1.7464,1.7394,1.7322,1.7389,1.7428,1.7624,1.8346,1.9207,1.9993,2.0906,2.1814,2.261,2.2841,2.2998,2.3159,2.3372,2.3536,2.3661,2.3832,2.4006,2.417,2.4312,2.4516,2.4676,2.4302,2.4145,2.4385,2.4595,2.4709,2.4802,2.4859,2.4941,2.4995,2.5052,2.5125,2.5166,2.5208,2.5232,2.5246,2.5299,2.5338,2.5393,2.5394,2.5416,2.5434,2.5421,2.5432,2.5465,2.5386,2.5291,2.5237,2.5217,2.5239,2.5259,2.5201,2.5211,2.5253,2.5257,2.5308,2.5281,2.5284,2.5287,2.5307,2.5243,2.5237,1.8677,1.8597,1.8522,1.8454,1.8423,1.8319,1.7782,1.7025,1.6524,1.5836,1.5104,1.4638,1.4434,1.4477,1.4567,1.4615,1.4615,1.4687,1.4707,1.4692,1.4633,1.4791,1.5091,1.5324,1.5506,1.5513,1.5502,1.5512,1.5515,1.5513,1.5537,1.5632,1.5987,1.6208,1.6214,1.6692,1.7227,1.7565,1.8125,1.8521,1.9021,1.9456,1.9718,1.9794,1.9804,1.9822,1.9819,1.9729,1.9308,1.8728,1.8554,1.8507,1.8479,1.8514,1.8675,1.8998,1.988,2.0742,2.1552,2.2447,2.3189,2.3666,2.3866,2.3987,2.4094,2.4237,2.4343,2.4424,2.455,2.4668,2.4785,2.4904,2.5047,2.514,2.4965,2.4846,2.4938,2.5033,2.5115,2.5172,2.5194,2.5269,2.5331,2.5365,2.5374,2.5397,2.5395,2.541,2.5424,2.5494,2.5502,2.5466,2.5468,2.5449,2.5427,2.5405,2.5363,2.5414,2.5411,2.5386,2.5388,2.5383,2.5419,2.5405,2.5428,2.545,2.5411,2.5413,2.5419,2.5401,2.544,2.5422,2.5423,2.5384,2.5402,1.7639,1.7495,1.7387,1.7257,1.7132,1.7094,1.6489,1.5815,1.5506,1.5051,1.4443,1.432,1.4074,1.4447,1.4186,1.4521,1.4531,1.4414,1.4546,1.4508,1.456,1.4761,1.5007,1.5627,1.5899,1.5973,1.6207,1.6059,1.5838,1.5972,1.6099,1.5951,1.6091,1.6298,1.6305,1.6528,1.7018,1.7589,1.7851,1.8295,1.8866,1.9161,1.9273,1.9428,1.9568,1.964,1.9722,1.9764,1.9607,1.9396,1.9439,1.9406,1.9425,1.9485,1.9904,2.059,2.1409,2.2388,2.3147,2.3854,2.4482,2.4549,2.4629,2.4763,2.4784,2.482,2.4868,2.4938,2.5082,2.5093,2.5119,2.5272,2.53,2.529,2.5293,2.5324,2.5309,2.5338,2.5394,2.5395,2.5399,2.5434,2.5462,2.5487,2.5469,2.537,2.5405,2.5399,2.5391,2.5379,2.5384,2.537,2.5394,2.5437,2.5398,2.536,2.5307,2.5289,2.5263,2.5259,2.5271,2.5299,2.5413,2.5436,2.5393,2.541,2.543,2.5443,2.5435,2.5429,2.5371,2.5403,2.5437,2.5384,2.5368,1.5741,1.565,1.5452,1.5293,1.5143,1.5023,1.4781,1.4423,1.3792,1.3479,1.3186,1.279,1.2633,1.263,1.2921,1.2929,1.3065,1.3168,1.3109,1.313,1.3679,1.3855,1.4116,1.4784,1.5189,1.5249,1.5203,1.5146,1.5116,1.5174,1.5016,1.5033,1.5609,1.592,1.5973,1.6477,1.7149,1.746,1.7578,1.7753,1.8057,1.8311,1.8439,1.8658,1.8898,1.9119,1.9265,1.9372,1.9417,1.948,1.9645,1.9775,1.9953,2.0498,2.0949,2.1448,2.2535,2.3454,2.383,2.4451,2.4977,2.4972,2.4982,2.5093,2.5112,2.5097,2.5146,2.5232,2.5254,2.5172,2.5156,2.5247,2.5234,2.5162,2.5177,2.5181,2.5182,2.5283,2.5366,2.5382,2.537,2.5393,2.5403,2.5381,2.5377,2.5354,2.5329,2.5318,2.5275,2.5231,2.5182,2.5131,2.514,2.5138,2.5082,2.5048,2.5004,2.4983,2.4985,2.4977,2.5005,2.5081,2.5142,2.5231,2.5318,2.5315,2.5279,2.5305,2.5288,2.529,2.5294,2.5267,2.5244,2.5263,2.5267,1.3778,1.3578,1.3382,1.3191,1.2986,1.2847,1.271,1.2543,1.2167,1.1951,1.1915,1.1624,1.1584,1.166,1.1867,1.2018,1.2068,1.2193,1.2255,1.2334,1.2672,1.2762,1.2799,1.3315,1.3809,1.4518,1.4695,1.462,1.461,1.4567,1.4633,1.4498,1.496,1.5162,1.5247,1.5752,1.6019,1.6206,1.6401,1.6585,1.6809,1.6979,1.7282,1.7583,1.7877,1.8128,1.8278,1.842,1.8749,1.914,1.9477,1.9883,2.0441,2.1159,2.1765,2.2426,2.2975,2.3897,2.4308,2.468,2.4973,2.5003,2.4999,2.5005,2.5007,2.5014,2.5038,2.5048,2.5027,2.4989,2.4921,2.4899,2.4873,2.4821,2.4809,2.4795,2.4793,2.5016,2.5217,2.5211,2.5162,2.5136,2.5161,2.5123,2.5101,2.5019,2.4959,2.4949,2.4908,2.4868,2.4833,2.4803,2.4803,2.4777,2.4711,2.4669,2.4622,2.4613,2.4602,2.4565,2.4549,2.4675,2.4796,2.4916,2.5027,2.505,2.5011,2.5061,2.507,2.5039,2.5017,2.5008,2.5002,2.4981,2.4987,1.1776,1.1464,1.1282,1.1073,1.084,1.0663,1.0561,1.0478,1.0461,1.0397,1.0507,1.0545,1.0493,1.0766,1.0938,1.1139,1.1246,1.1322,1.1273,1.1313,1.1335,1.1386,1.144,1.1684,1.2234,1.3763,1.3858,1.3903,1.3932,1.4085,1.375,1.3969,1.4012,1.3965,1.4139,1.4259,1.4384,1.458,1.4715,1.4907,1.5167,1.5394,1.5795,1.6462,1.6769,1.7118,1.7394,1.7644,1.7963,1.8716,1.9041,1.9684,2.0493,2.1509,2.2264,2.3051,2.3212,2.3654,2.4132,2.4443,2.449,2.4585,2.4568,2.4576,2.4558,2.451,2.4505,2.4506,2.4479,2.4403,2.44,2.4324,2.4262,2.4219,2.4211,2.4169,2.4184,2.4469,2.4543,2.4837,2.4739,2.467,2.4663,2.4647,2.4667,2.4655,2.4603,2.4538,2.4489,2.4457,2.4372,2.4358,2.4336,2.4293,2.4242,2.4197,2.4163,2.4136,2.4146,2.4118,2.4072,2.4127,2.4251,2.4569,2.4681,2.4693,2.4686,2.4684,2.4707,2.4723,2.4682,2.464,2.4652,2.4689,2.4678,0.9857,0.9564,0.9474,0.9198,0.885,0.877,0.8681,0.8508,0.8541,0.8549,0.8681,0.873,0.887,0.901,0.9286,0.9503,0.9663,0.9798,0.9816,0.9816,0.9825,0.9853,0.9918,1.0084,1.0382,1.0765,1.1582,1.2212,1.2324,1.2253,1.236,1.223,1.2271,1.236,1.2472,1.2463,1.274,1.298,1.3093,1.3306,1.3561,1.39,1.4468,1.5364,1.5719,1.62,1.68,1.7166,1.7486,1.7805,1.8663,1.9201,1.971,2.0872,2.1696,2.2227,2.2721,2.3152,2.3437,2.3511,2.3594,2.3676,2.3676,2.3676,2.3676,2.3685,2.3648,2.3666,2.3627,2.3583,2.3544,2.3469,2.345,2.339,2.3325,2.3265,2.3225,2.3264,2.3497,2.3915,2.4025,2.4097,2.4053,2.4008,2.3971,2.3961,2.3904,2.3874,2.3826,2.3815,2.3804,2.381,2.3834,2.3793,2.3741,2.3694,2.3663,2.3595,2.3599,2.3588,2.3556,2.3541,2.3697,2.3951,2.4181,2.4269,2.428,2.4282,2.4273,2.4255,2.4247,2.422,2.421,2.421,2.4247,0.8411,0.8113,0.7928,0.7702,0.7481,0.7307,0.7224,0.7134,0.7134,0.7155,0.7238,0.7314,0.7405,0.7523,0.7722,0.799,0.8214,0.8398,0.8467,0.8477,0.8604,0.8676,0.8682,0.8825,0.8857,0.9055,0.9644,1.0435,1.0923,1.0983,1.0944,1.0943,1.0953,1.1024,1.1146,1.1277,1.1416,1.1615,1.1803,1.2008,1.2334,1.2746,1.35,1.4038,1.4549,1.4995,1.5456,1.5851,1.6237,1.6736,1.7391,1.7951,1.8569,1.9257,2.0317,2.1156,2.1756,2.207,2.2194,2.2237,2.23,2.2342,2.2414,2.2486,2.2504,2.2504,2.2521,2.2549,2.2571,2.2495,2.2423,2.241,2.2379,2.2335,2.2299,2.2228,2.216,2.2109,2.2388,2.2805,2.301,2.3131,2.3298,2.326,2.3257,2.3247,2.32,2.3165,2.3124,2.3124,2.3112,2.3094,2.31,2.3064,2.304,2.304,2.3057,2.3033,2.3021,2.3009,2.3026,2.3014,2.3087,2.3276,2.349,2.3668,2.3777,2.3757,2.3783,2.379,2.378,2.3751,2.3741,2.3741,2.3769,0.7238,0.6909,0.6677,0.6507,0.6386,0.6167,0.606,0.6039,0.606,0.606,0.606,0.6179,0.6272,0.6397,0.6619,0.6883,0.7078,0.7395,0.7499,0.7546,0.7692,0.7785,0.7788,0.7867,0.7935,0.8,0.817,0.8601,0.9526,0.9734,0.9764,0.972,0.9742,0.9843,0.9969,1.0003,1.0267,1.0463,1.0726,1.096,1.1443,1.1949,1.2531,1.2921,1.3328,1.3752,1.4307,1.4659,1.5121,1.5608,1.6096,1.6479,1.7,1.733,1.8209,1.9558,2.0141,2.0464,2.0623,2.0749,2.0764,2.0794,2.0936,2.103,2.1122,2.1119,2.1185,2.125,2.128,2.1264,2.1202,2.1236,2.1205,2.116,2.1145,2.1115,2.1083,2.1053,2.1053,2.1444,2.1854,2.2116,2.2234,2.2365,2.2316,2.2316,2.2279,2.2306,2.2262,2.2293,2.2296,2.2303,2.2293,2.2283,2.2283,2.2307,2.2334,2.2378,2.2405,2.2436,2.2466,2.2497,2.256,2.2621,2.2733,2.2907,2.3064,2.3242,2.3265,2.3294,2.3283,2.3271,2.3265,2.3253,2.3265,0.6273,0.5937,0.5884,0.5696,0.5474,0.534,0.5215,0.5198,0.5213,0.5171,0.5326,0.5331,0.5499,0.5766,0.611,0.6393,0.6599,0.6717,0.6776,0.6787,0.6856,0.6897,0.6885,0.7082,0.7201,0.7242,0.7411,0.781,0.8325,0.8414,0.8419,0.8471,0.8523,0.8445,0.872,0.8836,0.8727,0.8951,0.9298,0.9767,1.0313,1.0723,1.1324,1.1918,1.2421,1.2874,1.3488,1.3814,1.4238,1.4564,1.4967,1.5192,1.5363,1.5562,1.5823,1.664,1.759,1.8681,1.8866,1.9031,1.9122,1.9179,1.9281,1.9415,1.9547,1.9669,1.975,1.976,1.9865,1.9901,1.9919,1.9984,1.9999,1.9982,1.9947,1.9928,1.9891,1.9947,1.9963,2.0012,2.0395,2.0831,2.1113,2.1254,2.1364,2.1364,2.1364,2.1394,2.1424,2.1454,2.15,2.1517,2.1517,2.1519,2.1565,2.1579,2.1624,2.1685,2.1761,2.1805,2.1866,2.188,2.1897,2.195,2.2062,2.2217,2.2432,2.2591,2.2734,2.2773,2.2768,2.2786,2.279,2.279,2.2786,0.563,0.5453,0.5285,0.5128,0.5002,0.4862,0.4797,0.4802,0.4902,0.497,0.502,0.5125,0.5264,0.5452,0.5639,0.578,0.5956,0.6136,0.6217,0.6233,0.6294,0.6386,0.6431,0.6529,0.658,0.6622,0.671,0.6764,0.7112,0.7518,0.7765,0.774,0.7778,0.7866,0.7841,0.7974,0.8094,0.8328,0.8648,0.9097,0.9553,0.9962,1.0409,1.0926,1.1365,1.1868,1.2334,1.2715,1.299,1.3215,1.349,1.369,1.3773,1.3937,1.4159,1.446,1.5047,1.6003,1.6977,1.7302,1.7444,1.7525,1.7658,1.7824,1.8021,1.8196,1.8287,1.8301,1.8436,1.8513,1.8546,1.8617,1.8669,1.8669,1.8707,1.8707,1.8722,1.8793,1.8835,1.8883,1.8958,1.9414,1.9863,2.0119,2.0304,2.0454,2.047,2.0487,2.0536,2.0584,2.065,2.0748,2.0748,2.0748,2.0813,2.0862,2.0927,2.0975,2.1039,2.1118,2.1214,2.1245,2.1276,2.1308,2.1399,2.1565,2.1774,2.1994,2.2164,2.2223,2.2271,2.2268,2.2265,2.2323,2.232,0.5218,0.5064,0.4907,0.4839,0.4771,0.4654,0.4568,0.4581,0.4711,0.4779,0.4825,0.4959,0.5098,0.5198,0.5258,0.5391,0.55,0.5657,0.5732,0.5805,0.5878,0.5928,0.5941,0.5973,0.5973,0.5991,0.6005,0.604,0.6209,0.6586,0.6976,0.7171,0.711,0.717,0.7272,0.7346,0.7435,0.7726,0.8002,0.8403,0.8829,0.9167,0.9504,0.9887,1.0305,1.0737,1.1015,1.1358,1.1607,1.1805,1.2046,1.2242,1.2316,1.2502,1.2711,1.2908,1.3202,1.3697,1.4733,1.5348,1.5704,1.5935,1.6108,1.6405,1.6579,1.676,1.6886,1.6894,1.7027,1.7109,1.7177,1.7259,1.7362,1.7423,1.749,1.749,1.7531,1.7679,1.778,1.7854,1.7913,1.8001,1.8435,1.8854,1.917,1.9474,1.9546,1.9564,1.9651,1.9719,1.9841,1.9949,1.9987,2.0004,2.0072,2.0139,2.0208,2.0294,2.0345,2.043,2.0531,2.0646,2.0696,2.0713,2.0763,2.0861,2.1055,2.1322,2.1598,2.1643,2.1657,2.1718,2.1748,2.1809,2.1853,0.5107,0.4841,0.4947,0.4906,0.4771,0.4653,0.4519,0.4431,0.4453,0.4479,0.4567,0.4613,0.4826,0.4931,0.5075,0.517,0.531,0.5339,0.5345,0.535,0.5355,0.5414,0.5414,0.5414,0.5399,0.5411,0.5459,0.5455,0.5448,0.5807,0.6099,0.6246,0.646,0.6361,0.6452,0.6658,0.6865,0.7095,0.7269,0.7526,0.791,0.821,0.8475,0.8902,0.9276,0.964,0.9884,1.021,1.0466,1.0593,1.083,1.0964,1.1065,1.1242,1.145,1.1557,1.1715,1.2067,1.2614,1.3588,1.4181,1.4481,1.479,1.5084,1.5218,1.5297,1.5398,1.5554,1.5706,1.5806,1.5894,1.5993,1.6111,1.6198,1.6305,1.6403,1.6489,1.6663,1.6769,1.6824,1.6909,1.7001,1.7105,1.7565,1.8157,1.8487,1.8641,1.8679,1.8822,1.8912,1.9039,1.9151,1.9225,1.9281,1.9317,1.9409,1.9555,1.9645,1.9717,1.9788,1.9894,1.998,2.0083,2.0152,2.0206,2.0256,2.0357,2.0648,2.0894,2.1007,2.1086,2.1197,2.1276,2.1355,2.1402,0.5042,0.4869,0.4926,0.4801,0.4536,0.449,0.4466,0.4431,0.447,0.4603,0.4707,0.4781,0.4834,0.4904,0.4934,0.5011,0.5034,0.5034,0.5034,0.5034,0.5034,0.5062,0.5062,0.5065,0.5112,0.5168,0.5195,0.5268,0.5405,0.5421,0.5506,0.5748,0.5984,0.6109,0.6196,0.6209,0.643,0.6515,0.6621,0.6832,0.7085,0.7295,0.7563,0.7996,0.8302,0.8672,0.9007,0.9216,0.9451,0.9633,0.9769,0.9873,0.9958,1.0156,1.0303,1.044,1.0576,1.0695,1.1015,1.2052,1.2928,1.3226,1.3535,1.3794,1.3946,1.4039,1.4154,1.4283,1.4434,1.4572,1.4687,1.4801,1.4915,1.5028,1.5164,1.5334,1.5527,1.5766,1.5972,1.6123,1.6054,1.6017,1.6126,1.6278,1.6938,1.751,1.7659,1.7801,1.7974,1.8114,1.8232,1.8369,1.8452,1.8563,1.8621,1.8755,1.8903,1.8997,1.9091,1.9169,1.9244,1.935,1.9475,1.9548,1.9657,1.9764,1.9874,2.0065,2.0275,2.0514,2.0631,2.0729,2.0811,2.0924,2.0974,0.4956,0.4849,0.4849,0.472,0.4496,0.4485,0.4459,0.4452,0.4527,0.4628,0.4791,0.4791,0.4791,0.4763,0.4763,0.4763,0.4791,0.4791,0.4791,0.4785,0.4814,0.4856,0.485,0.4876,0.497,0.5034,0.5056,0.5117,0.5216,0.5288,0.5333,0.5471,0.5728,0.5867,0.589,0.597,0.6062,0.6141,0.618,0.6342,0.6618,0.6847,0.6975,0.74,0.7701,0.7976,0.826,0.8461,0.8646,0.8778,0.889,0.8949,0.9054,0.9178,0.9302,0.9425,0.9573,0.9684,1.0141,1.0973,1.1848,1.2153,1.2423,1.2604,1.2725,1.288,1.3074,1.3218,1.3314,1.3423,1.3566,1.3687,1.3828,1.3969,1.4378,1.4597,1.4862,1.5094,1.528,1.5467,1.5461,1.5601,1.5788,1.5986,1.628,1.6775,1.6879,1.7055,1.7201,1.7359,1.7441,1.7571,1.7693,1.7814,1.7948,1.8089,1.8242,1.833,1.8428,1.8525,1.8621,1.8803,1.8941,1.9016,1.9147,1.9258,1.9402,1.9548,1.9818,2.0118,2.0222,2.034,2.0426,2.0526,2.0595,0.4822,0.4719,0.4715,0.4704,0.4645,0.4701,0.4601,0.4484,0.4484,0.4501,0.4543,0.4543,0.4543,0.4543,0.457,0.457,0.4574,0.4543,0.4556,0.4626,0.4709,0.4718,0.4783,0.4845,0.4933,0.4931,0.4979,0.5019,0.5027,0.5171,0.5185,0.5222,0.5492,0.5662,0.5441,0.5415,0.5559,0.5763,0.582,0.6126,0.6372,0.662,0.6764,0.6988,0.7316,0.755,0.7703,0.7903,0.8072,0.8148,0.8195,0.8269,0.8311,0.8387,0.8494,0.862,0.8745,0.8883,0.9106,1.0208,1.077,1.1133,1.1417,1.1601,1.1685,1.1834,1.2067,1.228,1.2353,1.2452,1.2555,1.2696,1.2881,1.316,1.3591,1.3962,1.423,1.4503,1.4717,1.4867,1.5213,1.5523,1.5691,1.5847,1.5935,1.6112,1.6169,1.6309,1.6495,1.6595,1.671,1.6927,1.7054,1.7344,1.7497,1.7502,1.7587,1.7692,1.7943,1.8283,1.844,1.8637,1.8681,1.8616,1.8811,1.9089,1.9075,1.904,1.9306,1.9566,1.9866,1.999,2.0061,2.0131,2.0202,0.4684,0.4574,0.4574,0.4574,0.4574,0.4574,0.4546,0.4519,0.4491,0.4491,0.4491,0.4491,0.4491,0.4491,0.4491,0.4494,0.4498,0.4494,0.4515,0.4619,0.4691,0.4755,0.4836,0.4914,0.4951,0.5009,0.5032,0.5121,0.5259,0.5283,0.527,0.5344,0.5448,0.5563,0.5689,0.5717,0.5755,0.5704,0.5798,0.5948,0.6052,0.6255,0.6469,0.6654,0.6944,0.7153,0.7286,0.7512,0.7631,0.7688,0.7773,0.7722,0.771,0.7763,0.7785,0.7881,0.8002,0.8203,0.8448,0.9073,0.9536,1.0028,1.0498,1.0702,1.0804,1.0964,1.1175,1.1352,1.1469,1.1585,1.171,1.2063,1.2324,1.2646,1.3032,1.3399,1.3681,1.3958,1.4182,1.43,1.4552,1.4875,1.5127,1.5542,1.5713,1.5733,1.5817,1.5798,1.5907,1.5941,1.6022,1.6301,1.6532,1.6873,1.7084,1.7235,1.7508,1.7797,1.8139,1.8503,1.8605,1.8548,1.8766,1.8888,1.8907,1.8944,1.8939,1.8903,1.8845,1.9021,1.9288,1.9541,1.965,1.9723,1.9812,0.4574,0.4519,0.4491,0.4491,0.4491,0.4491,0.4491,0.4491,0.4491,0.4491,0.4491,0.4491,0.4491,0.4491,0.4491,0.4542,0.4559,0.4573,0.4655,0.4762,0.483,0.4908,0.4948,0.5047,0.5145,0.5196,0.5216,0.527,0.5361,0.5385,0.5423,0.547,0.5521,0.5665,0.5759,0.5755,0.5661,0.5639,0.5717,0.585,0.5998,0.6173,0.6325,0.6489,0.6702,0.6882,0.6976,0.7146,0.7335,0.7373,0.7355,0.731,0.731,0.7321,0.7349,0.75,0.7639,0.7826,0.8069,0.8181,0.8657,0.904,0.9543,0.9888,1.0017,1.019,1.037,1.0523,1.0667,1.0893,1.1146,1.1507,1.1847,1.2156,1.2596,1.2955,1.334,1.3626,1.3942,1.4025,1.419,1.4439,1.4686,1.512,1.5484,1.549,1.55,1.5469,1.5468,1.5579,1.5707,1.5974,1.6278,1.6645,1.6966,1.7181,1.7469,1.7868,1.8205,1.8518,1.85,1.8413,1.8793,1.9106,1.9061,1.8997,1.8879,1.8817,1.8799,1.8706,1.8707,1.8969,1.9205,1.9354,1.9431,0.4491,0.4491,0.4491,0.4491,0.4491,0.4491,0.4491,0.4491,0.4491,0.4491,0.4491,0.4491,0.4491,0.4522,0.4498,0.458,0.466,0.468,0.4792,0.4914,0.5006,0.5052,0.5165,0.525,0.5317,0.5358,0.5382,0.5371,0.5405,0.5481,0.5545,0.5624,0.5681,0.5747,0.5727,0.5662,0.5608,0.5651,0.5701,0.5815,0.6004,0.6188,0.6294,0.6419,0.6598,0.6684,0.674,0.6843,0.6946,0.7003,0.6986,0.7091,0.7195,0.725,0.7344,0.7448,0.754,0.7665,0.7716,0.7762,0.7901,0.83,0.8778,0.9063,0.929,0.9472,0.971,0.9911,1.0094,1.0382,1.0667,1.1005,1.1355,1.18,1.227,1.2688,1.3101,1.3436,1.3797,1.401,1.4218,1.4443,1.4686,1.5022,1.5196,1.533,1.5382,1.5572,1.5601,1.5648,1.5791,1.5986,1.6257,1.653,1.6817,1.7145,1.7497,1.79,1.8018,1.8253,1.8225,1.8417,1.8848,1.9125,1.913,1.9074,1.897,1.8851,1.876,1.868,1.8676,1.8584,1.8879,1.8979,1.9078,0.4491,0.4491,0.4491,0.4491,0.4491,0.4491,0.4491,0.4491,0.4491,0.4491,0.4491,0.4491,0.4494,0.4498,0.4604,0.4672,0.4721,0.4779,0.4908,0.5015,0.5131,0.5206,0.5306,0.5368,0.5392,0.5399,0.5412,0.546,0.5566,0.5596,0.5671,0.5752,0.5817,0.5827,0.5796,0.5718,0.5726,0.5745,0.5748,0.5832,0.5925,0.6045,0.6164,0.6314,0.6445,0.6512,0.661,0.6704,0.6835,0.6876,0.6782,0.6785,0.6776,0.6689,0.6662,0.6807,0.7007,0.7215,0.7263,0.7459,0.7639,0.7794,0.8263,0.8459,0.8662,0.8918,0.9205,0.9436,0.9683,1.0018,1.0425,1.0764,1.1107,1.1555,1.199,1.2356,1.2759,1.3027,1.3346,1.3558,1.3791,1.4121,1.4398,1.4688,1.4859,1.5052,1.5253,1.5475,1.5676,1.5727,1.5827,1.602,1.6295,1.6558,1.6909,1.7228,1.7558,1.7881,1.7972,1.8148,1.8374,1.8615,1.898,1.9183,1.9249,1.917,1.9069,1.8959,1.891,1.8916,1.89,1.868,1.8534,1.8725,1.8924,0.4491,0.4491,0.4491,0.4491,0.4491,0.4491,0.4491,0.4491,0.4491,0.4491,0.4491,0.4491,0.4522,0.4593,0.4679,0.4752,0.4887,0.4931,0.5049,0.5192,0.5213,0.531,0.5375,0.5399,0.5395,0.5409,0.5463,0.5539,0.5633,0.5796,0.5895,0.5861,0.5932,0.5973,0.5989,0.5993,0.6027,0.5941,0.5878,0.5877,0.5905,0.5955,0.6063,0.6184,0.6296,0.6358,0.6476,0.6552,0.6564,0.6618,0.6471,0.6542,0.6598,0.6593,0.6577,0.6742,0.6871,0.6976,0.7028,0.7178,0.7375,0.7535,0.7787,0.797,0.829,0.8593,0.8901,0.9197,0.9447,0.9747,1.0204,1.062,1.1002,1.1367,1.1691,1.205,1.229,1.2544,1.2775,1.2989,1.3263,1.3588,1.3881,1.421,1.4529,1.4718,1.4934,1.5168,1.5483,1.5744,1.5849,1.6031,1.6313,1.6618,1.6923,1.7131,1.7351,1.7598,1.782,1.8051,1.8398,1.8673,1.8887,1.915,1.9408,1.9304,1.918,1.916,1.9126,1.9117,1.91,1.894,1.8779,1.8776,1.8961,0.4491,0.4491,0.4491,0.4491,0.4491,0.4491,0.4491,0.4491,0.4491,0.4491,0.4491,0.4508,0.4565,0.4685,0.4752,0.4901,0.5026,0.509,0.5203,0.5388,0.5361,0.5382,0.5388,0.5412,0.5453,0.5481,0.5556,0.5675,0.5718,0.5891,0.6051,0.6016,0.6156,0.6235,0.6218,0.6221,0.6207,0.6166,0.603,0.5937,0.6007,0.6097,0.6126,0.6221,0.6207,0.6122,0.6123,0.6075,0.6029,0.6158,0.6271,0.637,0.6482,0.6604,0.667,0.6731,0.6729,0.676,0.6804,0.6993,0.7061,0.7186,0.732,0.7627,0.799,0.8323,0.8613,0.8991,0.9288,0.9593,0.9996,1.0407,1.08,1.1076,1.1363,1.1615,1.1778,1.2058,1.2344,1.259,1.2897,1.3194,1.3368,1.3692,1.4052,1.435,1.4647,1.4902,1.5128,1.5515,1.5761,1.5902,1.6167,1.6392,1.6557,1.6768,1.6996,1.7245,1.7507,1.7728,1.7947,1.8329,1.8721,1.8967,1.9209,1.9318,1.9283,1.9281,1.9287,1.9225,1.9196,1.9179,1.9095,1.9061,1.9062,0.4491,0.4491,0.4491,0.4491,0.4491,0.4491,0.4491,0.4491,0.4491,0.4498,0.4511,0.4607,0.466,0.4735,0.4921,0.5036,0.51,0.524,0.5351,0.5388,0.5402,0.5429,0.5436,0.5521,0.5556,0.5617,0.5674,0.581,0.5928,0.6088,0.62,0.62,0.63,0.63,0.63,0.63,0.6293,0.6286,0.6214,0.6081,0.6057,0.5976,0.5943,0.6093,0.6118,0.6143,0.6157,0.6205,0.6211,0.6285,0.6165,0.6128,0.6065,0.6164,0.6156,0.6185,0.6436,0.6494,0.6583,0.6744,0.6921,0.7118,0.7313,0.7533,0.7797,0.8048,0.8378,0.8752,0.9126,0.9451,0.9799,1.0207,1.058,1.0791,1.1055,1.1189,1.1321,1.1643,1.1955,1.2243,1.2545,1.2752,1.2936,1.3186,1.3541,1.3932,1.4359,1.4627,1.4715,1.4992,1.5371,1.5554,1.5843,1.6065,1.6239,1.641,1.6648,1.6874,1.7117,1.7323,1.7501,1.792,1.8371,1.8667,1.89,1.9068,1.9264,1.9468,1.9434,1.9357,1.9389,1.9357,1.9544,1.9567,1.9479,0.4491,0.4491,0.4491,0.4491,0.4491,0.4491,0.4491,0.4501,0.4559,0.459,0.46,0.4689,0.4755,0.4857,0.5036,0.5157,0.5226,0.5347,0.5378,0.5399,0.547,0.5501,0.5559,0.5613,0.5657,0.5722,0.584,0.5976,0.6115,0.6186,0.6289,0.63,0.63,0.63,0.63,0.63,0.63,0.6296,0.63,0.6207,0.6122,0.6078,0.604,0.6155,0.6136,0.6141,0.6089,0.6104,0.6051,0.6115,0.6072,0.6095,0.6084,0.6138,0.6082,0.6098,0.6168,0.6268,0.6324,0.6473,0.6738,0.694,0.7115,0.7265,0.7441,0.773,0.81,0.8491,0.8843,0.918,0.9528,0.9895,1.0192,1.0446,1.0896,1.1173,1.1505,1.1872,1.2017,1.2086,1.2334,1.2539,1.2718,1.2805,1.3164,1.3511,1.3941,1.4195,1.4306,1.4602,1.494,1.5196,1.5459,1.573,1.5933,1.6105,1.6288,1.6516,1.6761,1.7043,1.7295,1.7645,1.803,1.829,1.8587,1.8842,1.9081,1.9251,1.9434,1.9406,1.9497,1.9585,1.9775,1.9914,1.9815,0.4491,0.4491,0.4491,0.4491,0.4491,0.4491,0.4536,0.4545,0.4658,0.4718,0.4758,0.4765,0.4914,0.5022,0.513,0.5257,0.5371,0.5436,0.544,0.5484,0.5559,0.5596,0.5664,0.5752,0.583,0.5911,0.6013,0.6115,0.6269,0.63,0.63,0.63,0.63,0.63,0.63,0.63,0.63,0.63,0.63,0.63,0.6293,0.6296,0.6269,0.6228,0.6142,0.6067,0.6013,0.5959,0.5874,0.593,0.6042,0.6011,0.6012,0.6051,0.6046,0.6055,0.6098,0.607,0.6071,0.6289,0.6404,0.6547,0.6747,0.6975,0.7178,0.7508,0.7894,0.8211,0.8576,0.8927,0.925,0.9667,0.9963,1.0309,1.0752,1.1222,1.164,1.1975,1.2007,1.1978,1.2198,1.2406,1.2522,1.2602,1.2904,1.321,1.3469,1.3644,1.3883,1.4321,1.4701,1.4888,1.5069,1.5313,1.5585,1.5827,1.6029,1.6202,1.6459,1.6761,1.7071,1.7396,1.77,1.7904,1.8193,1.8491,1.8679,1.8827,1.9066,1.9303,1.936,1.9417,1.9634,1.9774,1.9991,0.4491,0.4491,0.4491,0.4491,0.4491,0.4491,0.4559,0.464,0.468,0.4813,0.4951,0.5009,0.5066,0.511,0.527,0.5392,0.5429,0.5508,0.5532,0.5576,0.5698,0.5745,0.5806,0.5915,0.6051,0.6125,0.6169,0.6259,0.63,0.63,0.6303,0.6313,0.631,0.631,0.6313,0.6323,0.6347,0.6354,0.6351,0.6351,0.6334,0.6323,0.63,0.6279,0.6272,0.6255,0.6242,0.6228,0.6214,0.6177,0.6088,0.6019,0.6,0.6002,0.5964,0.6004,0.6015,0.6047,0.606,0.6209,0.6298,0.6491,0.6692,0.6912,0.716,0.7471,0.7798,0.7996,0.8331,0.8704,0.9086,0.9612,0.998,1.0371,1.0844,1.1259,1.1689,1.1854,1.1922,1.2048,1.2241,1.2384,1.2498,1.2719,1.3079,1.3372,1.3647,1.3806,1.3945,1.421,1.4496,1.4675,1.4816,1.4961,1.5244,1.5566,1.5798,1.5943,1.6144,1.6516,1.6846,1.7155,1.7407,1.7573,1.7783,1.8057,1.8263,1.8479,1.8721,1.8934,1.904,1.9174,1.9408,1.9617,1.9785]}]]